     2              OBSERVATION DATA    G (GPS)             RINEX VERSION / TYPE
TRRINEXO V2.3.4 LH UCLA / SCEC 29-JUL-94 15:33              PGM / RUN BY / DATE
DONATED TO SCEC ARCHIVE BY: NATIONAL GEODETIC SURVEY        COMMENT
PROJECT NAME: NGS hpgn 1993-1994                            COMMENT
ARCHIVED BY: SOUTHERN CALIFORNIA EARTHQUAKE CENTER (SCEC)   COMMENT
ANTENNA DELTA H: DIRECT HEIGHT TO PRE-AMP BASE (DHPAB)      COMMENT
NOTE:                                                       COMMENT
PROBLEM: NONE                                               COMMENT
FOR FURTHER INFORMATION CONTACT: DAVE JACKSON               COMMENT
UCLA / GEOLOGY BLDG., 595 CIRCLE DR E. RM 3806              COMMENT
LOS ANGELES CA 90024 DJACKSON@ESS.UCLA.EDU                  COMMENT
MEAS ANT HT=1.622 m (SLANT HT IN NOTCH, BOTTOM GRND PLANE)  COMMENT
BIT 2 OF LLI (+4) FLAGS DATA COLLECTED UNDER "AS" CONDITION COMMENT
HPGN CALIF STA 1105 1990                                    MARKER NAME
E. DUVALL NGS                                               OBSERVER / AGENCY
1552 TRIMBLE 4000 SST 5.66                                  REC # / TYPE / VERS
19 TRIMBLE 4000 SST                                         ANT # / TYPE
 -2244175.0000 -4878342.0000  3430313.0000                  APPROX POSITION XYZ
        1.5454        0.0000        0.0000                  ANTENNA: DELTA H/E/N
     1     2                                                WAVELENGTH FACT L1/2
     3    C1    L1    L2                                    # / TYPES OF OBSERV
    30                                                      INTERVAL
  1994     3    23    18    24    0.000000                  TIME OF FIRST OBS
                                                            END OF HEADER
 94  3 23 18 24  0.0000000  0  8 31 14 18 19 22 27 28 29
  22911713.773     -150041.38116     -8867.97719
  24183432.344      185443.67615     29690.06119
  20333730.094      -63494.07818    -18945.65519
  21482809.383      -95859.99617    -24702.13019
  24401269.594      173223.84315     27733.31819
  23327851.125     -159701.21416    -47504.62419
  23272641.156      -69434.91916    -13167.71619
  20934992.031       41725.61517     12155.39819
 94  3 23 18 24 30.0000000  0  8 31 14 18 19 22 27 28 29
  22895436.430     -235578.915 6    -75520.484 9
  24201482.898      280299.844 5    103603.768 8
  20327384.109      -96841.451 8    -44930.581 9
  21473214.766     -146278.975 7    -63989.600 9
  24418135.711      261848.304 5     96791.263 9
  23311935.781     -243338.878 6   -112676.756 9
  23265735.031     -105731.236 6    -41450.482 9
  20939003.703       62804.619 7     28580.606 9
 94  3 23 18 25  0.0000000  0  8 31 14 18 19 22 27 28 29
  22879128.578     -321279.486 6   -142300.021 9
  24219446.242      374697.620 5    177160.232 9
  20321030.250     -130230.968 7    -70948.348 9
  21463564.234     -196994.027 7   -103507.781 9
  24434928.602      350094.318 5    165554.340 9
  23295946.672     -327363.179 6   -178150.159 9
  23258833.945     -141993.086 6    -69706.396 9
  20943006.375       83839.929 7     44971.754 9
 94  3 23 18 25 30.0000000  0  8 31 14 18 19 22 27 28 29
  22862811.891     -407020.106 6   -209110.769 9
  24237340.375      468733.395 5    250434.637 9
  20314692.539     -163537.569 8    -96901.511 9
  21453876.453     -247901.937 7   -143176.239 9
  24451667.172      438059.200 5    234098.375 9
  23279908.773     -411635.829 6   -243817.090 9
  23251964.883     -178092.768 6    -97835.956 9
  20947026.164      104963.713 7     61431.842 9
 94  3 23 18 26  0.0000000  0  7 31 14 18 19 27 28 29
  22846504.531     -492717.325 6   -275887.698 9
  24255178.023      562470.674 4    323476.443 9
  20308386.766     -196673.376 7   -122721.592 9
  21444166.445     -298930.044 7   -182938.362 9
  23263840.164     -496082.810 6   -309619.870 9
  23245139.672     -213957.216 6   -125782.229 9
  20951077.188      126251.699 7     78019.874 9
 94  3 23 18 26 30.0000000  0  7 31 14 18 19 27 28 29
  22830226.820     -578258.216 6   -342542.829 9
  24272976.242      655998.065 5    396354.688 9
  20302133.266     -229535.434 7   -148328.365 9
  21434450.258     -349988.197 7   -222723.901 9
  23247756.258     -580603.499 6   -375480.091 9
  23238375.000     -249506.583 6   -153482.986 9
  20955176.328      147792.882 7     94805.199 9
 94  3 23 18 27  0.0000000  0  6 31 18 19 27 28 29
  22813990.711     -663579.523 6   -409026.854 9
  20295944.445     -262059.506 7   -173671.774 9
  21424739.094     -401020.131 7   -262489.012 9
  23231668.328     -665144.228 6   -441355.929 9
  23231680.164     -284691.521 6   -180899.782 9
  20959333.617      169638.387 7    111827.661 9
 94  3 23 18 27 30.0000000  0  6 31 18 19 27 28 29
  22797807.617     -748618.211 6   -475290.664 9
  20289828.141     -294200.159 8   -198716.426 9
  21415045.516     -451962.804 7   -302184.575 9
  23215585.000     -749656.669 5   -507209.719 9
  23225063.617     -319457.900 6   -207990.418 9
  20963557.250      191832.985 7    129122.138 9
 94  3 23 18 28  0.0000000  0  6 31 18 19 27 28 29
  22781685.867     -833338.872 6   -541306.652 9
  20283788.008     -325942.087 8   -223450.381 9
  21405374.367     -502780.916 7   -341783.083 9
  23199513.633     -834121.080 6   -573026.075 9
  23218530.023     -353797.178 6   -234748.266 9
  20967849.445      214390.994 7    146699.792 9
 94  3 23 18 28 30.0000000  0  6 31 18 19 27 28 29
  22765634.688     -917692.356 6   -607036.541 9
  20277834.281     -357229.687 7   -247830.315 9
  21395739.508     -553413.769 7   -381237.222 9
  23183459.883     -918482.294 6   -638762.040 9
  23212088.734     -387644.996 6   -261123.159 9
  20972223.883      237377.520 7    164611.353 9
 94  3 23 18 29  0.0000000  0  6 31 18 19 27 28 29
  22749655.055    -1001662.327 6   -672467.593 9
  20271972.266     -388034.753 8   -271834.249 9
  21386147.523     -603820.730 7   -420515.351 9
  23167428.781    -1002722.563 6   -704403.778 9
  23205751.531     -420947.624 6   -287073.213 9
  20976686.523      260829.324 7    182885.465 9
 94  3 23 18 29 30.0000000  0  6 31 18 19 27 28 29
  22733755.586    -1085216.870 6   -737574.937 9
  20266206.133     -418336.221 8   -295445.773 9
  21376606.484     -653961.433 7   -459586.003 9
  23151427.180    -1086811.421 5   -769927.509 9
  23199525.219     -453662.209 6   -312565.068 9
  20981243.289      284772.479 7    201542.452 9
 94  3 23 18 30  0.0000000  0  6 31 18 19 27 28 29
  22717937.320    -1168339.668 6   -802345.867 9
  20260544.938     -448086.303 8   -318627.644 9
  21367120.469     -703806.923 7   -498426.631 9
  23135458.344    -1170731.584 6   -835319.776 9
  23193419.492     -485752.140 6   -337570.176 9
  20985898.602      309237.821 7    220606.331 9
 94  3 23 18 30 30.0000000  0  6 31 18 19 27 28 29
  22702201.922    -1251030.591 6   -866780.259 9
  20254991.875     -477267.824 8   -341366.486 9
  21357692.742     -753353.210 7   -537034.095 9
  23119522.328    -1254477.202 6   -900576.055 9
  23187437.805     -517181.577 6   -362060.622 9
  20990655.602      334236.757 7    240086.003 9
 94  3 23 18 31  0.0000000  0  6 31 18 19 27 28 29
  22686557.219    -1333242.200 6   -930841.169 9
  20249554.500     -505840.363 7   -363630.798 9
  21348326.492     -802571.587 7   -575386.056 9
  23103628.875    -1337994.596 6   -965654.510 9
  23181589.750     -547918.610 6   -386011.531 9
  20995518.617      359792.665 7    259999.673 9
 94  3 23 18 31 30.0000000  0  6 31 18 19 27 28 29
  22671009.133    -1414950.256 6   -994509.726 9
  20244239.734     -533771.304 8   -385395.161 9
  21339025.547     -851450.741 8   -613473.685 9
  23087785.742    -1421248.033 6  -1030527.275 9
  23175872.344     -577962.552 6   -409422.350 9
  21000490.836      385919.753 7    280358.423 9
 94  3 23 18 32  0.0000000  0  6 31 18 19 27 28 29
  22655559.672    -1496135.599 6  -1057770.968 9
  20239050.047     -561043.304 8   -406646.070 9
  21329790.320     -899979.169 7   -651288.021 9
  23071997.750    -1504216.998 6  -1095178.380 9
  23170288.953     -607300.224 6   -432282.852 9
  21005576.164      412644.656 7    301183.007 9
 94  3 23 18 32 30.0000000  0  6 31 18 19 27 28 29
  22640215.391    -1576773.855 6  -1120605.901 9
  20233984.891     -587659.319 8   -427385.821 9
  21320623.102     -948154.865 7   -688827.512 9
  23056267.195    -1586880.016 6  -1159591.073 9
  23164840.977     -635932.254 6   -454593.488 9
  21010778.398      439981.769 7    322484.632 9
 94  3 23 18 33  0.0000000  0  6 31 18 19 27 28 29
  22624979.789    -1656833.209 6  -1182989.760 9
  20229049.109     -613599.199 8   -447598.718 9
  21311527.242     -995953.050 7   -726072.835 9
  23040599.305    -1669213.255 6  -1223746.796 9
  23159528.320     -663848.881 6   -476346.676 9
  21016101.711      467955.824 7    344282.580 9
 94  3 23 18 33 30.0000000  0  6 31 18 19 27 28 29
  22609857.922    -1736300.306 6  -1244912.104 9
  20224242.398     -638858.539 8   -467281.318 9
  21302505.742    -1043363.658 7   -763016.144 9
  23024992.461    -1751232.143 6  -1287657.573 9
  23154355.359     -691035.242 6   -497530.831 9
  21021551.258      496592.726 7    366597.026 9
 94  3 23 18 34  0.0000000  0  6 31 18 19 27 28 29
  22594851.477    -1815157.703 6  -1306359.371 9
  20219564.859     -663439.182 8   -486435.068 9
  21293556.773    -1090387.887 7   -799658.377 9
  23009443.117    -1832945.485 6  -1351330.264 9
  23149323.836     -717475.948 6   -518133.952 9
  21027130.242      525910.308 7    389441.867 9
 94  3 23 18 34 30.0000000  0  6 31 18 19 27 28 29
  22579963.039    -1893399.245 6  -1367326.750 9
  20215020.305     -687320.431 8   -505043.833 9
  21284681.305    -1137030.258 7   -836003.064 9
  22993951.539    -1914355.279 6  -1414766.423 9
  23144435.641     -743165.394 6   -538151.665 9
  21032838.992      555910.182 7    412818.373 9
 94  3 23 18 35  0.0000000  0  6 31 18 19 27 28 29
  22565191.148    -1971026.346 6  -1427815.332 9
  20210609.945     -710497.614 8   -523103.968 9
  21275878.523    -1183286.712 7   -872047.033 9
  22978517.719    -1995462.346 6  -1477966.690 9
  23139689.031     -768104.200 6   -557584.459 9
  21038674.133      586573.170 7    436711.584 9
 94  3 23 18 35 30.0000000  0  6 31 18 19 27 28 29
  22550538.828    -2048027.371 6  -1487816.065 9
  20206333.594     -732969.693 8   -540614.674 9
  21267149.961    -1229156.446 7   -907789.668 9
  22963144.016    -2076250.078 6  -1540918.126 9
  23135087.633     -792285.951 6   -576427.359 9
  21044635.648      617901.290 7    461123.087 9
 94  3 23 18 36  0.0000000  0  6 31 18 19 27 28 29
  22536004.625    -2124401.114 6  -1547328.011 9
  20202190.289     -754742.649 8   -557580.615 9
  21258497.273    -1274629.567 7   -943223.248 9
  22947835.211    -2156695.122 6  -1603602.534 9
  23130630.750     -815708.047 6   -594678.309 9
  21050722.188      649887.114 7    486047.081 9
 94  3 23 18 36 30.0000000  0  6 31 18 19 27 28 29
  22521593.609    -2200131.333 6  -1606338.495 9
  20198182.773     -775802.245 8   -573990.672 9
  21249923.695    -1319680.966 7   -978328.233 9
  22932597.859    -2236769.607 6  -1665998.186 9
  23126322.117     -838348.435 6   -612320.140 9
  21056934.961      682535.590 7    511487.435 9
 94  3 23 18 37  0.0000000  0  6 31 18 19 27 28 29
  22507307.898    -2275204.463 6  -1664836.966 9
  20194308.492     -796163.268 8   -589856.400 9
  21241434.484    -1364294.193 7  -1013091.768 9
  22917432.969    -2316460.869 6  -1728095.233 9
  23122163.797     -860198.309 6   -629345.988 9
  21063274.867      715851.762 7    537448.061 9
 94  3 23 18 37 30.0000000  0  6 31 18 19 27 28 29
  22493145.898    -2349624.871 6  -1722826.829 9
  20190568.227     -815818.544 8   -605172.199 9
  21233026.750    -1408475.045 7  -1047518.392 9
  22902338.945    -2395779.502 6  -1789901.909 9
  23118159.000     -881249.083 6   -645749.153 9
  21069744.531      749849.616 7    563939.874 9
 94  3 23 18 38  0.0000000  0  6 31 18 19 27 28 29
  22479106.398    -2423403.732 6  -1780316.770 9
  20186965.555     -834749.880 8   -619923.885 9
  21224701.664    -1452225.526 7  -1081609.669 9
  22887312.070    -2474748.762 6  -1851436.353 9
  23114303.352     -901508.376 6   -661535.595 9
  21076341.000      784510.693 7    590948.478 9
 94  3 23 18 38 30.0000000  0  6 31 18 19 27 28 29
  22465190.328    -2496532.675 6  -1837300.290 9
  20183506.133     -852929.019 8   -634089.445 9
  21216456.430    -1495555.010 7  -1115372.891 9
  22872349.828    -2553374.178 6  -1912702.885 9
  23110599.023     -920975.133 6   -676704.461 9
  21083062.461      819833.864 7    618473.004 9
 94  3 23 18 39  0.0000000  0  6 31 18 19 27 28 29
  22451399.344    -2569001.864 6  -1893769.707 9
  20180191.391     -870348.335 8   -647662.943 9
  21208291.695    -1538460.315 7  -1148805.593 9
  22857452.445    -2631658.838 6  -1973703.863 9
  23107044.258     -939654.657 6   -691259.918 9
  21089912.273      855829.549 7    646521.567 9
 94  3 23 18 39 30.0000000  0  6 31 18 19 27 28 29
  22437731.359    -2640826.915 6  -1949737.206 9
  20177022.789     -887000.404 8   -660638.582 9
  21200207.422    -1580944.308 7  -1181910.000 9
  22842619.578    -2709610.083 6  -2034445.049 9
  23103639.055     -957547.044 6   -705202.007 9
  21096890.930      892502.233 7    675097.664 9
 94  3 23 18 40  0.0000000  0  6 31 18 19 27 28 29
  22424187.836    -2712000.562 6  -2005197.111 9
  20173996.227     -902904.325 8   -673031.247 9
  21192202.289    -1623008.802 7  -1214687.510 9
  22827850.523    -2787217.673 6  -2094918.448 9
  23100384.000     -974656.038 6   -718533.673 9
  21103998.547      929852.816 7    704201.990 9
 94  3 23 18 40 30.0000000  0  6 31 18 19 27 28 29
  22410768.484    -2782520.397 6  -2060147.556 9
  20171104.414     -918101.406 8   -684873.135 9
  21184275.852    -1664662.706 7  -1247145.094 9
  22813145.688    -2864492.731 6  -2155132.730 9
  23097274.727     -990991.752 6   -731262.768 9
  21111237.773      967894.459 7    733844.801 9
 94  3 23 18 41  0.0000000  0  6 31 18 19 27 28 29
  22397474.484    -2852380.083 6  -2114583.603 9
  20168346.305     -932595.196 8   -696166.999 9
  21176431.453    -1705887.746 7  -1279268.487 9
  22798504.969    -2941433.031 6  -2215086.163 9
  23094316.992    -1006538.869 6   -743377.392 9
  21118610.203     1006636.904 7    764033.701 9
 94  3 23 18 41 30.0000000  0  6 31 18 19 27 28 29
  22384309.555    -2921562.286 6  -2168491.738 9
  20165726.242     -946363.441 8   -706895.504 9
  21168669.648    -1746674.655 7  -1311050.483 9
  22783929.273    -3018025.588 6  -2274768.635 9
  23091511.898    -1021278.682 6   -754862.948 9
  21126117.016     1046083.544 7    794771.319 9
 94  3 23 18 42  0.0000000  0  6 31 18 19 27 28 29
  22371272.609    -2990073.342 6  -2221876.908 9
  20163240.203     -959427.226 8   -717075.085 9
  21160984.750    -1787059.273 7  -1342519.010 9
  22769413.563    -3094305.835 6  -2334207.738 9
  23088853.914    -1035245.093 6   -765745.836 9
  21133750.211     1086197.926 7    826029.253 9
 94  3 23 18 42 30.0000000  0  6 31 18 19 27 28 29
  22358355.055    -3057953.347 6  -2274770.340 9
  20160884.852     -971805.156 8   -726720.235 9
  21153371.156    -1827069.261 7  -1373695.620 9
  22754948.367    -3170317.722 6  -2393437.734 9
  23086337.281    -1048472.424 6   -776052.844 9
  21141503.000     1126938.893 7    857775.433 9
 94  3 23 18 43  0.0000000  0  6 31 18 19 27 28 29
  22345564.055    -3125170.451 6  -2327147.233 9
  20158670.742     -983440.298 8   -735786.590 9
  21145837.000    -1866662.579 7  -1404547.538 9
  22740546.086    -3246002.861 6  -2452413.118 9
  23083969.703    -1060910.205 6   -785744.607 9
  21149379.477     1168330.240 7    890028.402 9
 94  3 23 18 43 30.0000000  0  6 31 18 19 27 28 29
  22332890.617    -3191768.193 6  -2379041.500 9
  20156587.984     -994384.980 8   -744314.921 9
  21138371.906    -1905889.292 7  -1435113.805 9
  22726199.500    -3321397.521 6  -2511162.153 9
  23081742.844    -1072613.482 6   -794864.013 9
  21157370.727     1210324.681 7    922751.312 9
 94  3 23 18 44  0.0000000  0  6 31 18 19 27 28 29
  22320343.258    -3257706.981 6  -2430422.305 9
  20154643.164    -1004607.268 8   -752280.345 9
  21130988.406    -1944690.413 7  -1465348.442 9
  22711917.734    -3396446.431 6  -2569641.798 9
  23079666.688    -1083527.010 6   -803368.048 9
  21165486.891     1252973.203 7    955983.891 9
 94  3 23 18 44 30.0000000  0  6 31 18 19 27 28 29
  22307912.992    -3323027.956 6  -2481321.708 9
  20152829.945    -1014135.841 8   -759705.220 9
  21123683.242    -1983079.298 7  -1495261.835 9
  22697700.125    -3471159.718 6  -2627859.894 9
  23077737.992    -1093660.756 6   -811264.449 9
  21173720.281     1296240.698 7    989698.786 9
 94  3 23 18 45  0.0000000  0  6 31 18 19 27 28 29
  22295603.328    -3387716.215 6  -2531728.082 9
  20151147.875    -1022974.111 8   -766592.193 9
  21116456.016    -2021059.984 7  -1524857.165 9
  22683547.617    -3545532.314 6  -2685812.530 9
  23075959.594    -1103008.741 6   -818548.574 9
  21182070.289     1340121.147 7   1023891.306 9
 94  3 23 18 45 30.0000000  0  6 31 18 19 27 28 29
  22283417.516    -3451753.529 6  -2581627.229 9
  20149598.398    -1031117.347 8   -772937.577 9
  21109304.398    -2058640.760 7  -1554140.875 9
  22669458.055    -3619574.780 6  -2743507.919 9
  23074329.234    -1111569.556 6   -825219.315 9
  21190540.563     1384631.826 7   1058574.908 9
 94  3 23 18 46  0.0000000  0  6 31 18 19 27 28 29
  22271353.945    -3515144.127 6  -2631022.448 9
  20148179.875    -1038571.830 8   -778746.275 9
  21102224.359    -2095846.362 7  -1583132.239 9
  22655424.250    -3693318.334 6  -2800970.382 9
  23072847.031    -1119363.593 6   -831292.570 9
  21199127.852     1429758.958 7   1093738.858 9
 94  3 23 18 46 30.0000000  0  6 31 18 19 27 28 29
  22259419.977    -3577857.413 6  -2679889.901 9
  20146895.117    -1045322.955 8   -784006.900 9
  21095214.938    -2132683.400 7  -1611836.418 9
  22641447.727    -3766771.366 6  -2858206.466 9
  23071506.492    -1126405.853 6   -836780.026 9
  21207836.070     1475519.077 7   1129396.039 9
 94  3 23 18 47  0.0000000  0  6 31 18 19 27 28 29
  22247620.922    -3639862.580 6  -2728205.563 9
  20145746.047    -1051361.475 8   -788712.253 9
  21088275.297    -2169150.776 7  -1640252.547 9
  22627523.398    -3839941.851 6  -2915222.392 9
  23070306.313    -1132711.138 6   -841693.195 9
  21216669.539     1521939.215 7   1165567.528 9
 94  3 23 18 47 30.0000000  0  6 31 18 19 27 28 29
  22235957.656    -3701153.423 6  -2775964.609 9
  20144735.211    -1056674.999 8   -792852.667 9
  21081408.336    -2205235.706 7  -1668370.663 9
  22613653.891    -3912824.760 6  -2972014.218 9
  23069247.352    -1138283.092 6   -846034.962 9
  21225630.875     1569031.910 7   1202263.089 9
 94  3 23 18 48  0.0000000  0  6 31 18 19 27 28 29
  22224430.258    -3761732.066 6  -2823168.705 9
  20143863.641    -1061253.241 8   -796420.139 9
  21074618.328    -2240917.002 7  -1696174.262 9
  22599842.531    -3985401.712 6  -3028567.666 9
  23068325.328    -1143122.419 6   -849805.857 9
  21234717.594     1616782.461 7   1239471.259 9
 94  3 23 18 48 30.0000000  0  6 31 18 19 27 28 29
  22213014.391    -3821721.494 6  -2869913.666 9
  20143111.305    -1065208.586 8   -799502.236 9
  21067884.422    -2276306.834 7  -1723750.734 9
  22586072.469    -4057767.685 6  -3084956.674 9
  23067523.930    -1147331.322 6   -853085.498 9
  21243906.438     1665070.911 7   1277098.581 9
 94  3 23 18 49  0.0000000  0  6 31 18 19 27 28 29
  22201728.219    -3881028.168 6  -2916126.615 9
  20142499.883    -1068420.865 8   -802005.316 9
  21061226.859    -2311291.072 7  -1751011.165 9
  22572366.633    -4129796.798 6  -3141083.205 9
  23066868.766    -1150777.246 6   -855770.627 9
  21253217.008     1713998.004 7   1315223.545 9
 94  3 23 18 49 30.0000000  0  6 31 18 19 27 28 29
  22190576.414    -3939633.170 6  -2961792.806 9
  20142036.563       -1288.29818
  21054653.164    -2345835.808 7  -1777929.137 9
  22558732.219    -4201440.866 6  -3196909.739 9
  23066368.766    -1153405.885 6   -857818.900 9
  21262654.914     1763593.238 7   1353869.137 9
 94  3 23 18 50  0.0000000  0  6 31 18 19 27 28 29
  22179550.813    -3997573.069 6  -3006940.728 9
  20141710.914       -2999.001 8      -556.08419
  21048154.031    -2379988.530 7  -1804541.645 9
  22545164.797    -4272736.099 6  -3252464.424 9
  23066016.805    -1155251.630 6   -859257.138 9
  21272212.789     1813820.449 7   1393007.186 9
 94  3 23 18 50 30.0000000  0  6 31 18 19 27 28 29
  22168644.617    -4054884.647 6  -3051599.058 9
  20141512.719       -4040.286 8     -1367.469 9
  21041721.008    -2413794.492 7  -1830883.938 9
  22531654.797    -4343733.486 6  -3307787.026 9
  23065810.000    -1156342.301 6   -860107.051 5
  21281887.547     1864662.343 7   1432624.221 9
 94  3 23 18 51  0.0000000  0  6 31 18 19 27 28 29
  22157868.930    -4111513.921 6  -3095725.726 9
  20141451.578       -4361.878 8     -1618.085 9
  21035365.234    -2447195.133 7  -1856910.397 9
  22518211.523    -4414383.348 6  -3362838.844 9
  23065756.125    -1156624.990 6
  21291690.828     1916179.269 7   1472767.241 9
 94  3 23 18 51 30.0000000  0  6 31 18 19 27 28 29
  22147221.891    -4167461.552 6  -3139321.239 9
  20141523.656       -3983.628 8     -1323.351 9
  21029083.758    -2480205.062 7  -1882632.409 9
  22504829.883    -4484697.726 6  -3417629.240 9
  23065851.508    -1156119.724 6       338.46719
  21301619.813     1968354.790 7   1513423.450 9
 94  3 23 18 51 59.9990000  0  6 31 18 19 27 28 29
  22136706.112    -4222725.576 6  -3182384.077 9
  20141727.558       -2911.818 8      -488.187 9
  21022872.784    -2512843.932 7  -1908065.288 9
  22491508.573    -4554701.493 6  -3472177.588 9
  23066095.667    -1154845.046 6      1331.727 9
  21311668.519     2021161.452 7   1554571.468 9
 94  3 23 18 52 29.9990000  0  6 31 18 19 27 28 29
  22126319.745    -4277303.053 6  -3224911.932 9
  20142069.878       -1112.821 8       913.618 9
  21016732.206    -2545112.248 7  -1933209.425 9
  22478244.870    -4624404.181 6  -3526491.341 9
  23066486.042    -1152789.048 6      2933.804 9
  21321838.261     2074603.939 7   1596214.927 9
 94  3 23 18 52 59.9990000  0  6 31 18 19 27 28 29
  22116068.206    -4331174.779 6  -3266889.857 9
  20142557.487        1448.625 8      2909.534 9
  21010664.862    -2576995.478 7  -1958053.494 9
  22465040.120    -4693794.950 6  -3580562.039 9
  23067029.581    -1149937.472 6      5155.821 9
  21332126.909     2128670.952 7   1638345.026 9
 94  3 23 18 53 29.9990000  0  6 31 18 19 27 28 29
  22105949.144    -4384352.168 6  -3308326.731 9
  20143185.081        4747.688 8      5480.222 9
  21004668.136    -2608509.133 7  -1982609.580 9
  22451888.136    -4762908.188 6  -3634416.476 9
  23067720.394    -1146307.523 6      7984.337 9
  21342528.308     2183330.851 7   1680937.115 9
 94  3 23 18 53 59.9990000  0  6 31 18 19 27 28 29
  22095958.144    -4436855.266 6  -3349238.180 9
  20143949.378        8764.486 8      8610.181 9
  20998739.784    -2639664.685 7  -2006886.626 9
  22438785.354    -4831765.475 6  -3688071.476 9
  23068557.698    -1141901.623 6     11417.510 9
  21353041.019     2238576.864 7   1723985.922 9
 94  3 23 18 54 29.9990000  0  6 31 18 19 27 28 29
  22086091.980    -4488703.406 6  -3389639.279 9
  20144845.776       13474.403 8     12280.230 9
  20992878.979    -2670462.665 7  -2030885.042 9
  22425731.917    -4900361.939 6  -3741523.242 9
  23069542.323    -1136732.853 6     15445.119 9
  21363664.745     2294401.904 7   1767485.900 9
 94  3 23 18 54 59.9990000  0  6 31 18 19 27 28 29
  22076352.347    -4539884.102 6  -3429520.295 9
  20145870.011       18856.103 8     16473.741 9
  20987088.901    -2700889.828 7  -2054594.513 9
  22412732.511    -4968675.140 6  -3794754.267 9
  23070668.315    -1130813.259 6     20057.779 9
  21374398.698     2350809.647 7   1811439.938 9
 94  3 23 18 55 29.9990000  0  6 31 18 19 27 28 29
  22066739.894    -4590394.675 6  -3468879.131 9
  20147018.003       24889.577 8     21175.135 9
  20981365.854    -2730965.018 7  -2078029.712 9
  22399788.198    -5036698.893 6  -3847759.753 9
  23071932.347    -1124168.835 6     25235.260 9
  21385244.042     2407803.266 7   1855850.502 9
 94  3 23 18 55 59.9990000  0  6 31 18 19 27 28 29
  22057253.698    -4640246.170 6  -3507724.394 9
  20148290.308       31575.413 8     26384.854 9
  20975705.011    -2760712.967 7  -2101209.925 9
  22386899.284    -5104428.215 6  -3900535.813 9
  23073328.651    -1116834.077 6     30950.643 9
  21396200.823     2465381.561 7   1900716.648 9
 94  3 23 18 56 29.9990000  0  6 31 18 19 27 28 29
  22047894.776    -4689430.179 7  -3546049.546 9
  20149686.894       38914.186 8     32103.357 9
  20970106.308    -2790134.496 7  -2124135.785 9
  22374065.058    -5171873.106 6  -3953090.239 9
  23074851.120    -1108833.938 6     37184.530 9
  21407267.276     2523535.358 7   1946031.237 9
 94  3 23 18 56 59.9990000  0  6 31 18 19 27 28 29
  22038664.347    -4737936.699 6  -3583846.775 9
  20151208.886       46910.873 8     38334.519 9
  20964567.784    -2819239.481 7  -2146814.989 9
  22361281.104    -5239050.558 6  -4005436.270 9
  23076501.331    -1100162.800 6     43941.263 9
  21418442.636     2582261.308 7   1991791.660 9
 94  3 23 18 57 29.9990000  0  6 31 18 19 27 28 29
  22029558.987    -4785783.200 6  -3621129.709 9
  20152853.089       55552.541 8     45068.269 9
  20959086.112    -2848043.938 7  -2169260.010 9
  22348542.206    -5305993.823 6  -4057599.794 9
  23078278.190    -1090824.026 6     51218.234 9
  21429724.058     2641545.317 7   2037986.928 9
 94  3 23 18 57 59.9990000  0  6 31 18 19 27 28 29
  22020581.042    -4832960.023 6  -3657890.810 9
  20154624.487       64861.160 8     52321.718 9
  20953667.105    -2876521.930 7  -2191450.645 9
  22335847.464    -5372706.105 6  -4109583.382 9
  23080189.104    -1080783.274 6     59042.194 9
  21441113.253     2701395.084 7   2084623.051 9
 94  3 23 18 58 29.9990000  0  6 31 18 19 27 28 29
  22011728.894    -4879480.895 7  -3694140.781 9
  20156519.558       74820.047 8     60081.873 9
  20948310.058    -2904673.144 8  -2213386.652 9
  22323192.058    -5439208.207 6  -4161403.151 9
  23082237.886    -1070018.770 6     67430.112 9
  21452606.167     2761791.309 7   2131684.980 9
 94  3 23 18 58 59.9990000  0  6 31 18 19 27 28 29
  22003000.956    -4925346.993 7  -3729880.535 9
  20158540.784       85440.651 8     68357.648 9
  20943014.315    -2932503.190 8  -2235072.397 9
  22310582.800    -5505474.578 6  -4213039.251 9
  23084424.940    -1058523.187 6     76387.705 9
  21464204.081     2822738.250 7   2179176.050 9
 94  3 23 18 59 29.9990000  0  7 31  2 18 19 27 28 29
  21994392.558    -4970585.428 7  -3765131.207 9
  24287732.120      -71702.19015
  20160686.987       96719.147 8     77146.075 9
  20937777.847    -2960020.182 7  -2256514.213 9
  22298015.456    -5571514.444 6  -4264498.865 9
  23086744.948    -1046329.820 6     85889.035 9
  21475903.917     2884221.516 7   2227085.029 9
 94  3 23 18 59 59.9990000  0  7 31  2 18 19 27 28 29
  21985902.292    -5015201.777 7  -3799897.137 9
  24269986.003     -164961.059 5    -14513.94019
  20162960.222      108664.755 8     86454.319 9
  20932601.714    -2987222.727 8  -2277711.000 9
  22285494.331    -5637314.802 6  -4315771.830 9
  23089196.792                        9939.92316
  21487704.542     2946233.116 7   2275405.698 9
 94  3 23 19  0 29.9990000  0  7 31  2 18 19 27 28 29
  21977531.034      -16053.404 7
  24252296.511     -257912.203 4    -86943.263 9
  20165358.854      121268.259 8     96275.220 9
  20927484.433    -3014112.821 7  -2298664.315 9
  22273019.815    -5702864.272 6  -4366849.333 9
  23091777.714       23499.645 6      6401.66519
  21499604.269     3008765.680 7   2324132.313 9
 94  3 23 19  0 59.9990000  0  7 31  2 18 19 27 28 29
  21969282.011      -59402.632 7    -10081.28919
  24234668.526     -350546.247 4   -159125.581 8
  20167882.683      134533.082 8    106611.433 9
  20922426.933    -3040690.657 8  -2319374.313 9
  22260592.894    -5768171.478 6  -4417738.017 9
  23094482.761       37714.581 6     17478.241 9
  21511603.003     3071820.384 7   2373265.797 9
 94  3 23 19  1 29.9990000  0  7 31  2 18 19 27 28 29
  21961154.019                       -7073.93817
  24217099.386     -442879.179 5   -231073.244 8
  20170527.808      148432.883 8    117442.436 9
  20917426.542    -3066967.651 8  -2339849.888 9
  22248203.292    -5833275.687 6  -4468468.558 9
  23097312.323       52578.359 6     29060.410 9
  21523698.097     3135380.483 7   2422793.087 9
 94  3 23 19  1 59.9990000  0  7 31  2 18 19 27 28 29
  21953149.151      -49139.135 7     -1083.37119
  24199585.058     -534920.638 5   -302793.728 8
  20173291.409      162955.317 8    128758.611 9
  20912482.495    -3092950.033 8  -2360095.899 9
  22235854.237    -5898175.328 6  -4519039.675 9
  23100267.183       68110.691 6     41163.513 9
  21535889.120     3199444.160 7   2472712.780 9
 94  3 23 19  2 29.9990000  0  7 31  2 18 19 27 28 29
  21945269.050      -90549.861 7    -33351.435 9
  24182124.878     -626669.804 5   -374286.513 9
  20176171.933      178091.687 8    140553.172 9
  20907592.870    -3118645.967 8  -2380118.701 9
  22223542.034    -5962873.868 6  -4569454.108 9
  23103350.206       84317.442 6     53792.158 9
  21548176.315     3264013.762 7   2523026.696 9
 94  3 23 19  2 59.9990000  0  7 31  2 18 19 27 28 29
  21937513.690     -131303.086 7    -65107.174 9
  24164724.339     -718110.508 5   -445538.955 9
  20179171.269      193853.565 8    152835.140 9
  20902759.144    -3144048.165 8  -2399912.616 9
  22211271.815    -6027353.208 6  -4619697.702 9
  23106567.206      101216.976 6     66960.622 9
  21560564.948     3329116.284 7   2573755.877 9
 94  3 23 19  3 29.9990000  0  7 31  2 18 19 27 28 29
  21929883.573     -171401.464 7    -96352.641 9
  24147383.378     -809236.523 5   -516546.134 8
  20182291.839      210252.404 8    165613.440 9
  20897982.659    -3169145.730 7  -2419469.154 9
  22199048.581    -6091592.306 7  -4669754.149 9
  23109917.425      118825.617 6     80681.624 9
  21573055.909     3394756.124 7   2624903.747 9
 94  3 23 19  3 59.9990000  0  7 31  2 18 19 27 28 29
  21922376.011     -210852.072 7   -127093.350 9
  24130104.284     -900032.819 5   -587296.440 9
  20185533.011      227284.786 8    178885.411 9
  20893266.472    -3193931.011 8  -2438782.353 9
  22186871.526    -6155573.448 6  -4719609.544 9
  23113403.776      137149.087 6     94959.663 9
  21585648.339     3460928.897 7   2676466.886 9
 94  3 23 19  4 29.9990000  0  7 31  2 18 19 27 28 29
  21914991.737     -249656.422 7   -157330.484 9
  24112891.644     -990486.550 5   -657779.726 9
  20188895.339      244954.150 8    192653.723 9
  20888609.636    -3218402.236 7  -2457850.829 9
  22174746.519    -6219301.814 7  -4769267.984 9
  23117025.456      156175.746 6    109785.626 9
  21598341.175     3527632.106 7   2728443.341 9
 94  3 23 19  4 59.9990000  0  7 31  2 18 19 27 28 29
  21907724.315     -287846.625 7   -187089.076 9
  24095739.964    -1080624.649 5   -728017.118 9
  20192373.401      263231.572 8    206895.855 9
  20884005.558    -3242597.429 8  -2476704.219 9
  22162658.417    -6282815.227 6  -4818758.957 9
  23120770.714      175857.822 6    125122.300 9
  21611128.128     3594826.055 7   2780802.189 9
 94  3 23 19  5 29.9990000  0  7 31  2 18 19 27 28 29
  21900590.339     -325337.783 7   -216302.945 9
  24078656.433    -1170388.516 5   -797962.898 9
  20195979.097      282178.953 8    221660.026 9
  20879465.128    -3266456.845 7  -2495295.962 9
  22150624.667    -6346061.132 7  -4868041.433 9
  23124654.714      196267.443 6    141025.889 9
  21624017.065     3662557.369 7   2833579.765 9
 94  3 23 19  5 59.9990000  0  7 31  2 18 19 27 28 29
  21893587.519     -362137.114 7   -244977.730 9
  24061643.417    -1259800.137 5   -867634.146 9
  20199707.847      301772.708 8    236927.867 9
  20874983.995    -3290004.837 7  -2513645.046 9
  22138635.339    -6409060.292 6  -4917131.688 9
  23128670.659      217377.366 6    157475.187 9
  21637006.776     3730818.742 7   2886770.381 9
 94  3 23 19  6 29.9990000  0  7 31  2 18 19 27 28 29
  21886716.065     -398245.491 7   -273114.123 9
  24044693.714    -1348874.998 5   -937043.019 9
  20203560.667      322020.216 8    252705.120 9
  20870557.573    -3313266.012 7  -2531770.631 9
  22126688.261    -6471844.259 6  -4966054.245 9
  23132816.534      239161.685 6    174449.981 9
  21650095.972     3799602.536 7   2940368.070 9
 94  3 23 19  6 59.9990000  0  7 31  2 18 19 27 28 29
  21879978.479     -433652.440 7   -300703.937 9
  24027805.034    -1437622.789 5  -1006197.000 9
  20207539.550      342929.292 8    268997.881 9
  20866186.972    -3336232.444 7  -2549666.547 9
  22114783.972    -6534401.323 6  -5014799.997 9
  23137092.956      261629.549 6    191957.390 9
  21663285.870     3868915.361 7   2994377.992 9
 94  3 23 19  7 29.9990000  0  7 31  2 18 19 27 28 29
  21873379.855     -468329.640 7   -327725.117 9
  24010981.003    -1526029.038 5  -1075084.892 9
  20211649.534      364528.422 8    285828.343 9
  20861879.854    -3358867.702 7  -2567304.403 9
  22102927.995    -6596705.036 6  -5063348.311 9
  23141504.745      284818.906 6    210027.001 9
  21676582.651     3938790.432 7   3048826.031 9
 94  3 23 19  7 59.9990000  0  7 31  2 18 19 27 28 29
  21866915.894     -502297.584 7   -354193.631 9
  23994224.308    -1614089.637 5  -1143703.405 9
  20215890.206      386812.058 8    303192.187 9
  20857635.901    -3381170.334 7  -2584683.072 9
  22091120.394    -6658759.413 7  -5111702.360 9
  23146052.190      308715.616 6    228647.812 9
  21689985.323     4009221.708 7   3103707.471 9
 94  3 23 19  8 29.9990000  0  7 31  2 18 19 27 28 29
  21860583.417     -535576.752 7   -380125.435 9
  23977530.034    -1701818.511 5  -1212063.442 9
  20220258.183      409764.284 8    321077.013 9
  20853452.362    -3403155.558 7  -2601814.414 9
  22079355.894    -6720576.483 6  -5159871.474 9
  23150730.706      333297.772 6    247802.727 9
  21703486.979     4080173.892 7   3158994.816 9
 94  3 23 19  8 59.9990000  0  7 31  2 18 19 27 28 29
  21854376.144     -568193.076 7   -405540.735 9
  23960895.229    -1789234.251 5  -1280179.464 9
  20224748.417      433361.293 8    339464.270 9
  20849327.503    -3424830.878 7  -2618704.271 9
  22067640.339    -6782146.032 7  -5207847.735 9
  23155537.542      358560.767 6    267488.165 9
  21717085.190     4151631.325 7   3214675.871 9
 94  3 23 19  9 29.9990000  0  7 31  2 18 19 27 28 29
  21848293.690     -600156.009 7   -430446.897 9
  23944322.097    -1876321.299 5  -1348039.416 9
  20229358.745      457588.470 8    358342.566 9
  20845261.581    -3446197.252 7  -2635353.391 9
  22055969.659    -6843472.950 6  -5255634.917 9
  23160473.823      384499.697 6    287700.296 9
  21730779.183     4223593.075 7   3270749.896 9
 94  3 23 19  9 59.9990000  0  7 31  2 18 19 27 28 29
  21842339.604     -631443.654 7   -454826.855 9
  23927818.737    -1963050.747 5  -1415620.686 9
  20234091.331      482458.824 8    377722.041 9
  20841255.409    -3467250.812 7  -2651758.758 9
  22044350.581    -6904532.690 7  -5303213.914 9
  23165537.644      411111.835 6    308437.013 9
  21744570.831     4296068.679 7   3327224.321 9
 94  3 23 19 10 29.9990000  0  7 31  2 18 19 27 28 29
  21836510.276     -662079.952 7   -478699.271 9
  23911375.206    -2049463.523 5  -1482955.187 9
  20238942.620      507953.013 8    397587.617 9
  20837300.456    -3488033.087 7  -2667952.741 9
  22032777.847    -6965346.332 7  -5350601.153 9
  23170723.808      438364.883 6    329673.130 9
  21758455.183     4369032.290 7   3384079.002 9
 94  3 23 19 10 59.9990000  0  7 31  2 18 19 27 28 29
  21830811.065     -692029.913 7   -502036.874 9
  23894995.558    -2135536.058 5  -1550024.621 9
  20243915.651      534085.770 8    417950.778 9
  20833400.729    -3508527.189 7  -2683922.175 9
  22021253.628    -7025906.342 7  -5397790.741 9
  23176037.315      466288.253 6    351431.573 9
  21772438.823     4442515.274 7   3441338.393 9
 94  3 23 19 11 29.9990000  0  7 31  2 18 19 27 28 29
  21825242.276     -721292.188 7   -524838.622 9
  23878680.815    -2221273.366 5  -1616832.818 9
  20249007.237      560843.242 8    438800.734 9
  20829553.526    -3528743.953 7  -2699675.498 9
  22009771.003    -7086247.743 6  -5444810.000 9
  23181474.058      494853.893 6    373690.481 9
  21786516.675     4516496.806 7   3498986.268 9
 94  3 23 19 11 59.9990000  0  7 31  2 18 19 27 28 29
  21819808.769     -749845.875 7   -547088.220 9
  23862430.542    -2306670.000 5  -1683375.536 9
  20254225.214      588262.294 8    460166.207 9
  20825760.995    -3548673.379 7  -2715204.923 9
  21998331.776    -7146359.373 6  -5491650.204 9
  23187034.472      524077.899 6    396462.425 9
  21800690.995     4590979.783 7   3557024.876 9
 94  3 23 19 12 29.9990000  0  7 31  2 18 19 27 28 29
  21814509.190     -777695.597 7   -568789.273 9
  23846242.659    -2391735.222 5  -1749660.052 9
  20259568.378      616341.072 8    482045.750 9
  20822027.722    -3568294.015 7  -2730493.733 9
  21986935.065    -7206252.081 7  -5538319.828 9
  23192725.597      553982.164 6    419764.430 9
  21814962.190     4665977.240 7   3615464.373 9
 94  3 23 19 12 59.9990000  0  7 31  2 18 19 27 28 29
  21809339.847     -804860.094 7   -589956.385 9
  23830118.206    -2476467.788 5  -1815685.356 9
  20265031.737      645050.741 8    504416.891 9
  20818353.417    -3587601.569 7  -2745538.584 9
  21975577.261    -7265934.361 6  -5584825.479 9
  23198544.104      584557.921 6    443589.665 9
  21829329.651     4741476.162 7   3674294.619 9
 94  3 23 19 13 29.9990000  0  7 31  2 18 19 27 28 29
  21804298.956     -831350.064 7   -610597.908 9
  23814058.714    -2560863.447 5  -1881448.083 9
  20270616.776      674400.935 8    527287.144 9
  20814739.269    -3606593.680 7  -2760337.640 9
  21964264.175    -7325385.986 7  -5631151.399 9
  23204488.831      615802.345 6    467935.956 9
  21843790.933     4817471.919 7   3733512.010 9
 94  3 23 19 13 59.9990000  0  7 31  2 18 19 27 28 29
  21799385.815     -857169.048 7   -630716.571 9
  23798061.386    -2644930.620 5  -1946954.890 9
  20276322.089      704382.473 8    550649.354 9
  20811184.448    -3625273.390 7  -2774893.261 9
  21952996.862    -7384596.349 7  -5677289.322 9
  23210562.823      647724.690 6    492810.496 9
  21858347.706     4893968.434 7   3793119.599 9
 94  3 23 19 14 29.9990000  0  7 31  2 18 19 27 28 29
  21794600.097     -882315.360 7   -650311.086 9
  23782127.136    -2728661.644 5  -2012199.742 9
  20282144.792      734980.290 8    574491.788 9
  20807690.245    -3643637.549 7  -2789202.999 9
  21941775.394    -7443567.101 7  -5723240.562 9
  23216766.370      680319.225 6    518208.825 9
  21872999.308     4970963.609 7   3853115.756 9
 94  3 23 19 14 59.9990000  0  7 31  2 18 19 27 28 29
  21789945.472     -906779.079 7   -669373.703 9
  23766259.831    -2812046.123 5  -2077174.568 9
  20288086.417      766204.131 8    598822.030 9
  20804254.261    -3661694.044 7  -2803273.003 9
  21930598.370    -7502300.645 7  -5769006.925 9
  23223092.089      713562.236 6    544112.442 9
  21887742.417     5048437.393 7   3913484.853 9
 94  3 23 19 15 29.9990000  0  7 31  2 18 19 27 28 29
  21785425.815     -930530.216 7   -687881.059 9
  23750460.628    -2895073.422 5  -2141871.089 9
  20294152.948      798084.063 8    623663.504 9
  20800879.558    -3679426.706 7  -2817090.668 9
  21919466.245    -7560801.403 7  -5814591.941 9
  23229544.065      747464.727 6    570529.934 9
  21902577.940     5126399.103 7   3974234.155 9
 94  3 23 19 15 59.9990000  0  7 31  2 18 19 27 28 29
  21781042.495     -953563.737 7   -705829.239 9
  23734729.323    -2977744.671 5  -2206290.136 9
  20300344.761      830622.317 8    649017.961 9
  20797568.862    -3696825.986 7  -2830648.549 9
  21908376.839    -7619077.871 7  -5860002.140 9
  23236122.933      782039.433 6    597471.238 9
  21917508.222     5204856.946 7   4035370.050 9
 94  3 23 19 16 29.9990000  0  7 31  2 18 19 27 28 29
  21776792.636     -975897.403 7   -723232.081 9
  23719062.964    -3060071.603 6  -2270440.874 9
  20306661.081      863814.051 8    674881.627 9
  20794318.065    -3713908.792 7  -2843959.831 9
  21897327.628    -7677140.592 7  -5905245.818 9
  23242827.198      817267.711 6    624921.828 9
  21932530.425     5283799.715 7   4096883.811 9
 94  3 23 19 16 59.9990000  0  7 31  2 18 19 27 28 29
  21772674.284     -997537.677 7   -740094.623 9
  23703460.636      -46415.54415
  20313101.128       19254.47118
  20791125.964    -3730682.298 7  -2857030.093 9
  21886322.800    -7734971.956 7  -5950309.200 9
  23249657.198      853163.182 6    652892.306 9
  21947646.940     5363237.172 7   4158783.042 9
 94  3 23 19 17 29.9990000  0  7 31  2 18 19 27 28 29
  21768681.612    -1018519.872 7   -756444.366 9
  23687913.839     -128108.962 5    -38164.85419
  20319655.862       53700.607 7     16160.43419
  20787983.151    -3747198.637 7  -2869899.970 9
  21875358.761    -7792588.126 7  -5995204.900 9
  23256613.933      889719.102 6    681377.402 9
  21962852.800     5443143.587 7   4221047.692 9
 94  3 23 19 17 59.9990000  0  7 31  2 18 19 27 28 29
  21764816.167    -1038832.031 7   -772272.007 9
  23672424.464     -209503.196 5   -101588.842 9
  20326326.573       88757.084 7     43477.139 9
  20784890.097    -3763453.485 7  -2882566.086 9
  21864441.394    -7849957.484 7  -6039908.291 9
  23263700.206      926955.081 6    710392.423 9
  21978151.347     5523534.967 7   4283690.236 9
 94  3 23 19 18 29.9990000  0  7 31  2 18 19 27 28 29
  21761079.745    -1058469.135 7   -787573.634 9
  23656993.558     -290596.143 5   -164778.073 9
  20333111.683      124413.446 7     71261.279 9
  20781845.722    -3779452.166 7  -2895032.595 9
  21853571.730    -7907079.005 7  -6084418.547 9
  23270911.565      964855.827 6    739925.431 9
  21993537.495     5604391.682 7   4346695.381 9
 94  3 23 19 18 59.9990000  0  7 31  2 18 19 27 28 29
  21757482.792    -1077369.610 7   -802301.270 9
  23641628.878     -371341.140 5   -227696.119 9
  20340019.644      160713.196 7     99546.762 9
  20778859.003    -3795147.857 8  -2907263.002 9
  21842753.714    -7963925.907 7  -6128714.828 9
  23278258.089     1003459.328 6    770006.049 9
  22009017.026     5685736.971 7   4410081.233 9
 94  3 23 19 19 29.9990000  0  7 31  2 18 19 27 28 29
  21754016.159    -1095584.775 7   -816494.892 9
  23626319.097     -451793.689 5   -290386.297 9
  20347039.370      197601.013 7    128290.477 9
  20775920.128    -3810591.494 8  -2919297.007 9
  21831972.987    -8020581.496 7  -6172862.025 9
  23285722.261     1042683.740 6    800570.490 9
  22024576.269     5767499.811 6   4473792.449 9
 94  3 23 19 19 59.9990000  0  7 31  2 18 19 27 28 29
  21750692.237    -1113054.304 7   -830107.497 9
  23611081.737     -531865.575 5   -352779.897 9
  20354185.339      235154.265 7    157552.719 9
  20773045.151    -3825698.175 7  -2931068.444 9
  21821236.651    -8077001.863 7  -6216825.941 9
  23293312.901     1082570.514 6    831651.052 9
  22040226.597     5849743.091 6   4537878.035 9
 94  3 23 19 20 29.9990000  0  7 31  2 18 19 27 28 29
  21747503.159    -1129811.766 7   -843165.247 9
  23595914.206     -611565.411 5   -414883.563 9
  20361454.659      273353.836 7    187318.580 9
  20770230.065    -3840492.190 7  -2942596.252 9
  21810537.659    -8133226.735 7  -6260637.531 9
  23301021.940     1123077.002 6    863214.498 9
  22055963.440     5932441.157 6   4602317.987 9
 94  3 23 19 20 59.9990000  0  7 31  2 18 19 27 28 29
  21744451.323    -1145850.886 7   -855663.246 9
  23580821.925     -690880.889 5   -476687.749 9
  20368850.925      312222.843 7    217606.087 9
  20767476.698    -3854962.183 8  -2953871.573 9
  21799877.159    -8189246.308 7  -6304289.129 9
  23308849.870     1164218.462 6    895272.722 9
  22071793.323     6015627.059 6   4667138.083 9
 94  3 23 19 21 29.9990000  0  7 31  2 18 19 27 28 29
  21741532.823    -1161186.984 7   -867613.431 9
  23565803.151     -769806.000 5   -538187.734 9
  20376374.362      351758.117 7    248412.761 9
  20764785.745    -3869103.465 8  -2964890.761 9
  21789260.347    -8245037.071 7  -6347762.444 9
  23316801.089     1206007.185 6    927835.339 9
  22087720.972     6099328.243 6   4732359.688 9
 94  3 23 19 21 59.9990000  0  7 31  2 18 19 27 28 29
  21738744.620    -1175838.714 7   -879030.350 9
  23550853.839     -848364.035 5   -599401.706 9
  20384019.565      391934.851 7    279719.274 9
  20762153.987    -3882933.752 8  -2975667.608 9
  21778688.003    -8300597.546 7  -6391056.299 9
  23324875.675     1248437.912 6    960898.202 9
  22103745.440     6183537.327 6   4797977.054 9
 94  3 23 19 22 29.9990000  0  7 31  2 18 19 27 28 29
  21736090.448    -1189788.652 7   -889900.414 9
  23535973.222     -926566.546 5   -660338.621 9
  20391784.144      432738.220 7    311514.073 9
  20759580.378    -3896456.743 8  -2986205.011 9
  21768163.011    -8355903.602 7  -6434151.922 9
  23333077.628     1291532.472 6    994478.340 9
  22119867.222     6268255.789 6   4863991.350 9
 94  3 23 19 22 59.9990000  0  7 31  2 18 19 27 28 29
  21733570.183    -1203032.039 7   -900219.909 9
  23521155.776    -1004425.432 5   -721007.791 9
  20399665.542      474155.370 7    343787.140 9
  20757064.917    -3909675.208 8  -2996505.115 9
  21757690.394    -8410937.931 7  -6477035.801 9
  23341407.354     1335310.169 6   1028590.779 9
  22136083.448     6353471.654 6   4930393.228 9
 94  3 23 19 23 29.9990000  0  7 31  2 18 19 27 28 29
  21731184.495    -1215568.289 7   -909988.408 9
  23506405.198    -1081941.078 5   -781409.506 9
  20407662.722      516179.344 7    376533.056 9
  20754606.815    -3922592.199 7  -3006570.308 9
  21747270.370    -8465697.831 7  -6519705.847 9
  23349864.987     1379756.063 6   1063223.915 9
  22152388.753     6439156.978 6   4997160.909 9
 94  3 23 19 23 59.9990000  0  7 31  2 18 19 27 28 29
  21728935.495    -1227385.568 7   -919196.664 9
  23491716.659    -1159124.584 5   -841552.430 9
  20415776.300      558816.671 7    409756.912 9
  20752205.425    -3935212.721 8  -3016404.491 9
  21736900.722    -8520190.506 7  -6562167.665 9
  23358446.800     1424849.445 6   1098361.578 9
  22168777.784     6525280.536 6   5064270.081 9
 94  3 23 19 24 29.9990000  0  7 31  2 18 19 27 28 29
  21726826.565    -1238470.056 7   -927833.913 9
  23477095.019    -1235966.383 5   -901429.094 9
  20424011.175      602091.093 7    443477.204 9
  20749861.245    -3947530.468 7  -3026002.741 9
  21726582.105    -8574414.566 7  -6604420.168 9
  23367149.808     1470587.584 6   1134001.627 9
  22185248.386     6611835.140 6   5131715.127 9
 94  3 23 19 24 59.9990000  0  7 31  2 18 19 27 28 29
  21724858.214    -1248814.372 7   -935894.412 9
  23462539.800    -1312455.252 6   -961030.723 9
  20432371.800      646024.500 7    477710.998 9
  20747577.409    -3959534.171 7  -3035356.284 9
  21716313.526    -8628374.836 7  -6646467.115 9
  23375973.847     1516961.420 6   1170137.051 9
  22201802.222     6698825.893 6   5199500.033 9
 94  3 23 19 25 29.9990000  0  7 31  2 18 19 27 28 29
  21723033.284    -1258403.106 7   -943366.144 9
  23448052.206    -1388589.169 6  -1020355.787 9
  20440857.940      690620.158 7    512460.831 9
  20745355.065    -3971210.492 7  -3044454.726 9
  21706093.128    -8682082.324 7  -6688317.086 9
  23384918.300     1563958.837 6   1206758.378 9
  22218439.050     6786250.519 6   5267623.023 9
 94  3 23 19 26 29.9990000  0  7 31  2 18 19 27 28 29
  21719818.550       -6120.36117
  23419278.245      -57787.98416
  20458200.128                       35238.01417
  20741101.237       -8410.40517
  21685789.948      -40790.24417
  23403177.769       37098.41016
  22251965.823       67752.01416
 94  3 23 19 26 59.9990000  0  7 31  2 18 19 27 28 29
  21718423.081      -13451.291 7     -4327.68119
  23404997.808     -132833.034 6    -29199.53619
  20467052.987       81757.926 7     27833.97419
  20739069.589      -19089.204 8     -5797.52619
  21675702.933      -93793.801 7    -28891.31819
  23412500.175       86084.333 6     17876.25819
  22268862.120      156542.742 6     53074.69819
 94  3 23 19 27 29.9990000  0  7 31  2 18 19 27 28 29
  21717167.839      -20047.680 7     -9467.732 9
  23390789.276     -207500.296 6    -87381.758 9
  20476026.105      128910.114 7     64575.905 9
  20737098.425      -29445.903 7    -13867.694 9
  21665660.347     -146570.236 7    -70015.798 9
  23421948.378      135741.001 6     56569.733 9
  22285849.097      245807.114 6    122631.253 9
 94  3 23 19 27 59.9990000  0  7 31  2 18 19 27 28 29
  21716053.112      -25908.160 7    -14034.338 9
  23376656.089     -281767.289 6   -145252.081 9
  20485125.011      176725.922 7    101834.945 9
  20735189.737      -39478.601 8    -21685.393 9
  21655666.034                      -29722.82617
  23431529.550      186084.903 6     95798.707 9
  22302933.315      335587.306 6    192589.739 9
 94  3 23 19 28 29.9990000  0  7 31  2 18 19 27 28 29
  21715067.026      -31089.759 7    -18071.947 9
  23362591.972     -355672.619 5   -202840.600 9
  20494345.120      225178.073 7    139589.840 9
  20733331.862      -49240.387 7    -29291.986 9
  21645711.417      -82030.594 7    -31232.96619
  23441225.565      237043.762 6    135506.872 9
  22320109.933      425849.728 6    262923.994 9
 94  3 23 19 28 59.9990000  0  7 31  2 18 19 27 28 29
  21714218.206      -35551.228 7    -21548.417 9
  23348599.698     -429205.342 6   -260138.756 9
  20503690.612      274287.823 7    177857.139 9
  20731530.667      -58707.309 8    -36668.815 9
  21635805.940     -134089.146 7    -71798.056 9
  23451044.151      288625.636 6    175700.496 9
  22337382.761      516616.512 6    333651.253 9
 94  3 23 19 29 29.9990000  0  7 31  2 18 19 27 28 29
  21713513.870      -39251.102 7    -24431.428 9
  23334681.214     -502347.164 6   -317132.334 9
  20513165.019      324077.590 7    216654.326 9
  20729791.636      -67845.997 8    -43789.874 9
  21625953.987     -185857.045 7   -112136.658 9
  23460981.683      340856.623 6    216399.937 9
  22354753.980      607903.170 6    404783.595 9
 94  3 23 19 29 59.9990000  0  7 31  2 18 19 27 28 29
  21712954.097      -42191.640 7    -26722.758 9
  23320838.792     -575086.739 6   -373812.465 9
  20522764.831      374524.500 7    255963.570 9
  20728116.862      -76645.426 7    -50646.580 9
  21616161.456     -237315.779 7   -152234.368 9
  23471045.651      393744.020 6    257610.848 9
  22372221.183      699692.652 6    476307.754 9
 94  3 23 19 30 29.9990000  0  7 31  2 18 19 27 28 29
  21712543.565      -44350.968 7    -28405.347 9
  23307074.198     -647417.743 5   -430174.229 9
  20532486.073      425610.145 7    295770.535 9
  20726509.761      -85092.410 8    -57228.652 9
  21606427.409     -288471.459 7   -192095.909 9
  23481236.644      447290.214 6    299335.105 9
  22389779.104      791959.914 6    548204.218 9
 94  3 23 19 30 59.9990000  0  7 31  2 18 19 27 28 29
  21712282.683      -45719.463 7    -29471.697 9
  23293389.019     -719337.260 6   -486215.351 9
  20542327.183      477325.400 7    336068.099 9
  20724971.847      -93174.290 8    -63526.219 9
  21596752.323     -339313.580 7   -231713.117 9
  23491553.901      501508.981 6    341583.466 9
  22407424.519      884685.988 6    620458.189 9
 94  3 23 19 31 29.9990000  0  7 31  2 18 19 27 28 29
  21712172.964      -46296.870 7    -29921.624 9
  23279784.683     -790827.463 6   -541921.963 9
  20552290.300      529679.354 7    376863.350 9
  20723506.175     -100874.951 7    -69526.734 9
  21587136.401     -389840.828 7   -271084.998 9
  23502000.628      556408.834 6    384362.537 9
  22425154.995      977862.774 6    693063.368 9
 94  3 23 19 31 59.9990000  0  7 31  2 18 19 27 28 29
  21712216.315      -46068.322 7    -29743.515 9
  23266265.073     -861874.666 6   -597283.338 9
  20562379.737      582699.854 7    418177.990 9
  20722117.456     -108171.863 7    -75212.640 9
  21577582.370     -440053.343 7   -310211.611 9
  23512581.097      612006.424 6    427685.279 9
  22442976.573     1071516.203 6    766039.944 9
 94  3 23 19 32 29.9990000  0  7 31  2 18 19 27 28 29
  21712411.206      -45045.736 7    -28946.689 9
  23252825.190                      -39964.15516
  20572598.784      636401.497 7    460023.391 9
  20720806.800     -115062.497 7    -80581.961 9
  21568082.706     -489974.391 7   -349111.102 9
  23523291.323      668292.139 6    471544.259 9
  22460891.276     1165657.626 6    839396.779 9
 94  3 23 19 32 59.9990000  0  7 31  2 18 19 27 28 29
  21712761.112      -43207.671 7    -27514.414 9
  23239475.886     -110118.077 6    -34575.68019
  20582957.128      690833.927 7    502438.233 9
  20719580.565     -121503.762 7    -85601.129 9
  21558647.636     -539552.219 7   -387743.165 9
  23534141.198      725310.479 6    515974.107 9
  22478907.964     1260331.632 6    913168.606 9
 94  3 23 19 33 29.9990000  0  7 31  2 18 19 27 28 29
  21713268.690      -40538.599 7    -25434.603 9
  23226218.065     -179785.722 6    -88862.103 9
  20593455.565      746005.084 7    545428.710 9
  20718440.331     -127496.071 7    -90270.461 9
  21549278.964     -588784.147 7   -426105.689 9
  23545133.167      783074.087 6    560984.682 9
  22497029.073     1355559.177 6    987371.776 9
 94  3 23 19 33 59.9990000  0  7 31  2 18 19 27 28 29
  21713935.026      -37036.639 7    -22705.792 9
  23213054.761     -248960.107 6   -142764.154 9
  20604096.808      801926.146 7    589003.528 9
  20717384.261     -133046.244 7    -94595.274 9
  21539979.565     -637657.231 7   -464188.584 9
  23556269.065      841594.350 6    606584.869 9
  22515258.089     1451355.755 6   1062018.334 9
 94  3 23 19 34 29.9990000  0  7 31  2 18 19 27 28 29
  21714763.979      -32681.749 7    -19312.354 9
  23199989.097     -317619.385 6   -196264.850 9
  20614883.847      858611.146 7    633173.619 9
  20716411.776     -138157.197 7    -98577.834 9
  21530752.972     -686142.476 7   -501969.276 9
  23567550.222      900872.331 6    652775.457 9
  22533596.011     1547719.315 6   1137106.693 9
 94  3 23 19 34 59.9990000  0  7 31  2 18 19 27 28 29
  21715762.401      -27434.357 7    -15223.461 9
  23187027.112     -385737.447 6   -249343.790 9
  20625817.979      916069.690 7    677946.472 9
  20715524.190     -142820.065 7   -102211.237 9
  21521606.636     -734201.776 7   -539418.077 9
  23578978.214      960926.011 6    699570.513 9
  22552043.065     1644660.986 6   1212645.538 9
 94  3 23 19 35 29.9990000  0  7 31  2 18 19 27 28 29
  21716932.972      -21283.418 7    -10430.501 9
  23174164.675     -453327.373 6   -302011.203 9
  20636899.659      974304.715 7    723324.375 9
  20714723.604     -147028.662 7   -105490.666 9
  21512544.597     -781826.844 7   -576528.505 9
  23590552.620     1021753.405 6    746968.441 9
  22570603.933     1742196.889 6   1288647.413 9
 94  3 23 19 35 59.9990000  0  7 31  2 18 19 27 28 29
  21718274.808      -14231.795 7     -4935.707 9
  23161402.823     -520390.914 6   -354268.446 9
  20648131.964     1033329.965 7    769318.031 9
  20714011.956     -150767.001 7   -108403.655 9
  21503568.667     -828997.567 7   -613284.877 9
  23602274.831     1083350.729 6    794966.321 9
  22589277.315     1840328.715 6   1365113.629 9
 94  3 23 19 36 29.9990000  0  7 31  2 18 19 27 28 29
  21719792.292       -6258.627 6      1277.172 9
  23148742.667     -586920.755 5   -406109.831 9
  20659515.940     1093151.262 7    815931.983 9
  20713393.589     -154017.559 7   -110936.561 9
  21494680.245     -875707.649 7   -649682.317 9
  23614143.620     1145726.735 5    843570.974 9
  22608068.011     1939070.998 6   1442055.541 9
 94  3 23 19 36 59.9990000  0  7 31  2 18 19 27 28 29
  21721480.659        2616.786 7      8193.099 9
  23136182.597     -652926.203 6   -457542.591 9
  20671045.089     1153739.106 7    863143.246 9
  20712867.636     -156781.048 7   -113089.926 9
  21485874.690     -921976.671 7   -685736.083 9
  23626162.175     1208885.388 6    892785.485 9
  22626973.683     2038420.904 6   1519470.924 9
 94  3 23 19 37 30.0000000  0  7 31  2 18 19 27 28 29
  21723341.992       12395.961 7     15813.250 9
  23123722.258     -718404.524 6   -508564.605 9
  20682724.234     1215113.101 7    910967.095 9
  20712436.484     -159047.796 7   -114856.218 9
  21477150.703     -967822.914 7   -721460.415 9
  23638330.813     1272827.849 6    942610.728 9
  22645994.344     2138373.132 6   1597355.647 9
 94  3 23 19 38  0.0000000  0  7 31  2 18 19 27 28 29
  21725375.594       23086.131 7     24143.274 9
  23111362.578     -783353.257 6   -559173.955 9
  20694551.680     1277265.734 7    959397.672 9
  20712095.453     -160839.445 7   -116252.310 9
  21468501.281    -1013274.348 7   -756877.098 9
  23650644.680     1337543.563 6    993038.532 9
  22665121.594     2238890.583 6   1675680.813 9
 94  3 23 19 38 30.0000000  0  7 31  2 18 19 27 28 29
  21727584.305       34689.181 7     33184.619 9
  23099104.648     -847769.331 6   -609368.238 9
  20706524.891     1340185.120 7   1008425.717 9
  20711846.297     -162150.180 7   -117273.660 9
  21459925.844    -1058341.921 7   -791994.668 9
  23663108.375     1403034.013 6   1044070.005 9
  22684358.211     2339980.388 6   1754451.966 9
 94  3 23 19 39  0.0000000  0  7 31  2 18 19 27 28 29
  21729962.148       47185.019 7     42921.649 9
  23086947.242     -911658.444 6   -659151.902 9
  20718642.883     1403866.767 7   1058047.734 9
  20711688.383                        -411.99117
  21451421.836    -1103029.725 7   -826816.311 9
  23675715.461     1469286.291 6   1095695.125 9
  22703701.242     2441623.711 6   1833654.420 9
 94  3 23 19 39 30.0000000  0  7 31  2 18 19 27 28 29
  21732508.594       60564.865 7     53347.511 9
  23074888.578     -975026.392 6   -708529.463 9
  20730906.664     1468312.100 7   1108264.828 9
  20711618.750        -775.807 7      -127.76519
  21442990.773    -1147335.784 7   -861340.487 9
  23688466.461     1536289.024 6   1147905.010 9
  22723147.422     2543812.138 6   1913281.627 9
 94  3 23 19 40  0.0000000  0  7 31  2 18 19 27 28 29
  21735218.734       74810.108 7     64447.705 9
  23062929.359    -1037872.802 6   -757500.629 9
  20743310.273     1533495.350 7   1159056.921 9
  20711636.391        -684.150 7       -56.347 9
  21434635.266    -1191243.187 7   -895554.027 9
  23701358.523     1604044.988 5   1200701.817 9
  22742699.117     2646559.811 6   1993344.612 9
 94  3 23 19 40 30.0000000  0  7 31  2 18 19 27 28 29
  21738087.719       89884.933 7     76194.323 9
  23051066.164    -1100213.422 6   -806077.677 9
  20755850.422     1599393.722 7   1210406.252 9
  20711740.500        -136.696 7       370.239 9
  21426358.211    -1234739.378 7   -929447.150 9
  23714391.172     1672529.226 5   1254066.133 9
  22762356.711     2749863.476 6   2073840.857 9
 94  3 23 19 41  0.0000000  0  7 31  2 18 19 27 28 29
  21741113.234      105786.932 7     88585.500 9
  23039295.555    -1162067.335 6   -854275.472 9
  20768526.266     1666004.376 7   1262310.606 9
  20711925.461         836.087 7      1128.243 9
  21418157.609    -1277833.383 7   -963026.876 9
  23727560.391     1741729.727 6   1307988.558 9
  22782114.336     2853689.982 6   2154744.482 9
 94  3 23 19 41 30.0000000  0  6 31 18 19 27 28 29
  21744299.852      122530.112 7    101632.125 9
  20781334.953     1733313.861 7   1314759.506 9
  20712188.430        2216.305 7      2203.734 9
  21410030.133    -1320544.102 7   -996307.945 9
  23740861.977     1811631.634 6   1362457.543 9
  22801970.055     2958026.977 6   2236045.886 9
 94  3 23 19 42  0.0000000  0  7 31  2 18 19 27 28 29
  21747644.758      140111.618 7    115332.009 9
  23016018.109      -58897.931 6     -3154.21819
  20794274.789     1801312.650 7   1367745.524 9
  20712529.078        1063.69317
  21401971.313    -1362894.539 7  -1029308.264 9
  23754291.477     1882201.334 6   1417446.888 9
  22821919.008     3062859.378 6   2317733.339 9
 94  3 23 19 42 30.0000000  0  7 31  2 18 19 27 28 29
  21751149.805      158528.050 7    129682.471 9
  23004503.734     -119406.468 6    -50303.664 9
  20807344.164     1869992.360 7   1421262.126 9
  20712944.469        3246.606 7      1275.79719
  21393975.195    -1404916.170 7  -1062052.377 9
  23767840.680     1953402.115 6   1472927.977 9
  22841956.055     3168153.521 6   2399780.579 9
 94  3 23 19 43  0.0000000  0  7 31  2 18 19 27 28 29
  21754815.430      177792.905 7    144694.045 9
  22993072.164     -179477.015 6    -97111.821 9
  20820542.148     1939347.774 7   1475305.251 9
  20713431.695        5807.791 7      3271.515 9
  21386035.914    -1446636.161 7  -1094561.446 9
  23781508.680     2025235.387 5   1528901.896 9
  22862079.625     3273905.026 6   2482184.219 9
 94  3 23 19 43 30.0000000  0  7 31  2 18 19 27 28 29
  21758636.914      197872.105 7    160340.168 9
  22981724.477     -239110.232 6   -143579.213 9
  20833862.555     2009347.410 7   1529850.372 9
  20713989.359        8738.681 7      5555.315 9
  21378149.844    -1488075.490 7  -1126851.815 9
  23795294.813       55590.17415
  22882288.836     3380104.820 6   2564937.157 9
 94  3 23 19 44  0.0000000  0  7 31  2 18 19 27 28 29
  21762605.563      218728.249 7    176591.709 9
  22970461.625     -298295.316 6   -189697.403 9
  20847303.508     2079980.289 7   1584888.923 9
  20714615.992       12030.347 7      8120.240 9
  21370320.031    -1529219.885 7  -1158912.369 9
  23809195.602      128638.569 6     45571.78219
  22902582.375     3486745.222 6   2648033.421 9
 94  3 23 19 44 30.0000000  0  7 31  2 18 19 27 28 29
  21766718.336      240340.018 7    193432.047 9
  22959283.570     -357039.773 6   -235472.258 9
  20860861.453     2151229.483 7   1640407.717 9
  20715307.367       15662.446 7     10950.439 9
  21362546.602    -1570070.275 7  -1190743.826 9
  23823214.258      202308.748 5    102977.049 9
  22922954.766     3593804.159 6   2731455.833 9
 94  3 23 19 45  0.0000000  0  7 31  2 18 19 27 28 29
  21770970.820      262688.381 7    210846.348 9
  22948187.711     -415348.169 6   -280907.314 9
  20874535.828     2223086.298 7   1696399.986 9
  20716061.898       19627.831 7     14040.342 9
  21354829.430    -1610626.638 7  -1222346.172 9
  23837353.578      276612.989 5    160876.432 9
  22943404.461     3701266.088 6   2815192.259 9
 94  3 23 19 45 30.0000000  0  7 31  2 18 19 27 28 29
  21775357.797      285739.495 7    228808.255 9
  22937170.203     -473244.343 6   -326021.165 9
  20888323.203     2295540.397 7   1752857.666 9
  20716877.453       23914.322 7     17380.453 9
  21347166.133    -1650896.762 7  -1253725.471 9
  23851610.539      351530.015 5    219253.277 9
  22963925.547     3809105.803 6   2899223.054 9
 94  3 23 19 46  0.0000000  0  7 31  2 18 19 27 28 29
  21779873.656      309473.778 7    247302.491 9
  22926223.180     -530771.262 6   -370847.288 9
  20902223.492     2368584.153 7   1809774.824 9
  20717752.414       28512.085 7     20963.117 9
  21339554.461    -1690895.760 7  -1284893.497 9
  23865979.016      427040.368 5    278092.473 9
  22984514.656     3917302.373 6   2983531.916 9
 94  3 23 19 46 30.0000000  0  7 31  2 18 19 27 28 29
  21784524.188      333912.425 7    266345.599 9
  22915344.766     -587938.538 6   -415393.173 9
  20916235.719     2442220.388 7   1867153.652 9
  20718688.977       33434.220 7     24798.542 9
  21331991.289    -1730640.775 7  -1315863.617 9
  23880458.586      503127.810 5    337381.340 9
  23005171.945     4025855.692 6   3068118.763 9
 94  3 23 19 47  0.0000000  0  7 31  2 18 19 27 28 29
  21789306.164      359039.143 7    285924.861 9
  22904528.461     -644776.087 6   -459682.130 9
  20930355.641     2516421.933 7   1924972.981 9
  20719685.289       38671.775 7     28879.745 9
  21324472.008    -1770155.713 7  -1346654.452 9
  23895036.875      579744.413 5    397082.484 9
  23025895.172     4134757.480 6   3152977.151 9
 94  3 23 19 47 30.0000000  0  7 31  2 18 19 27 28 29
  21794216.805      384847.047 7    306034.924 9
  22893771.242     -701308.133 6   -503733.026 9
  20944580.047     2591171.044 7   1983218.983 9
  20720744.180       44235.001 7     33214.721 9
  21316994.750    -1809447.920 7  -1377271.738 9
  23909714.000      656866.869 5    457177.831 9
  23046686.555     4244011.596 6   3238110.056 9
 94  3 23 19 48  0.0000000  0  7 31  2 18 19 27 28 29
  21799259.789      411345.719 7    326683.240 9
  22883068.914     -757546.828 6   -547555.356 9
  20958903.414     2666440.849 7   2041870.724 9
  20721864.594       50121.821 7     37801.850 9
  21309559.758    -1848518.809 7  -1407716.569 9
  23924483.391      734479.057 6    517654.809 9
  23067542.141     4353610.363 6   3323511.530 9
 94  3 23 19 48 30.0000000  0  7 31  2 18 19 27 28 29
  21804438.344      438562.506 7    347891.134 9
  22872426.312     -813476.028 6   -591136.506 9
  20973324.953     2742225.161 7   2100923.380 9
  20723045.039       56325.150 7     42635.617 9
  21302167.656    -1887364.412 7  -1437985.852 9
  23939347.078      812589.043 5    578519.691 9
  23088464.398     4463555.021 6   3409182.515 9
 94  3 23 19 49  0.0000000  0  7 31  2 18 19 27 28 29
  21809751.023      466478.798 7    369644.099 9
  22861841.773     -869099.621 6   -634479.520 9
  20987840.805     2818505.106 7   2160362.243 9
  20724279.875       62814.640 7     47692.364 9
  21294818.039    -1925986.947 7  -1468081.313 9
  23954307.453      891208.404 5    639781.492 9
  23109448.930     4573827.001 6   3495108.569 9
 94  3 23 19 49 30.0000000  0  7 31  2 18 19 27 28 29
  21815196.203      495094.387 7    391941.962 9
  22851316.781     -924405.556 6   -677575.015 9
  21002452.102     2895290.952 7   2220195.319 9
  20725566.477       69575.317 7     52960.425 9
  21287509.547    -1964392.615 7  -1498007.784 9
  23969366.133      970342.758 5    701444.544 9
  23130491.172     4684409.776 6   3581276.775 9
 94  3 23 19 50  0.0000000  0  7 31  2 18 19 27 28 29
  21820773.484      524403.690 7    414780.395 9
  22840853.953     -979388.360 6   -720418.730 9
  21017161.195     2972585.182 7   2280424.535 9
  20726898.055       76573.411 7     58413.488 9
  21280241.086    -2002590.785 7  -1527772.575 9
  23984521.086     1049978.446 5    763498.256 9
  23151589.234     4795277.004 6   3667666.665 9
 94  3 23 19 50 30.0000000  0  7 31  2 18 19 27 28 29
  21826478.711      554383.996 7    438141.669 9
  22830451.789    -1034049.349 6   -763011.666 9
  21031967.703     3050396.587 7   2341056.746 9
  20728272.063       83793.065 7     64039.195 9
  21273009.258    -2040593.829 7  -1557385.327 9
  23999770.117     1130112.099 5    825940.020 9
  23172740.266     4906425.200 6   3754275.465 9
 94  3 23 19 51  0.0000000  0  7 31  2 18 19 27 28 29
  21832306.320      585008.754 7    462005.125 9
  22820112.242    -1088388.574 6   -805353.891 9
  21046874.219     3128729.841 7   2402095.598 9
  20729689.102       91241.240 7     69842.969 9
  21265813.688    -2078406.426 7  -1586849.675 9
  24015112.094     1210735.986 5    888763.764 9
  23193944.703     5017858.008 6   3841106.057 9
 94  3 23 19 51 30.0000000  0  7 31  2 18 19 27 28 29
  21838257.320      616279.511 7    486371.952 9
  22809829.359    -1142421.393 6   -847457.349 9
  21061881.391     3207592.884 7   2463547.266 9
  20731153.836       98937.209 7     75839.824 9
  21258654.133    -2116028.465 7  -1616165.537 9
  24030542.250     1291828.562 5    951952.720 9
  23215205.805     5129584.047 6   3928165.135 9
 94  3 23 19 52  0.0000000  0  7 31  2 18 19 27 28 29
  21844327.406      648180.610 7    511229.949 9
  22799602.539    -1196163.243 6   -889334.082 9
  21076983.648     3286953.960 7   2525387.018 9
  20732663.656      106870.287 7     82021.439 9
  21251531.523    -2153458.351 7  -1645331.666 9
  24046063.000     1373381.511 5   1015500.402 9
  23236522.273     5241598.068 6   4015448.615 9
 94  3 23 19 52 30.0000000  0  7 31  2 18 19 27 28 29
  21850516.563      680702.374 7    536571.585 9
  22789431.586    -1249612.127 6   -930982.522 9
  21092177.383     3366798.146 7   2587603.212 9
  20734221.430      115056.400 7     88400.226 9
  21244445.359    -2190697.534 7  -1674349.196 9
  24061672.539     1455409.077 5   1079417.952 9
  23257894.945     5353914.397 6   4102967.644 9
 94  3 23 19 53  0.0000000  0  7 31  2 18 19 27 28 29
  21856826.055      713858.544 7    562407.544 9
  22779315.242    -1302775.452 6   -972408.442 9
  21107460.586     3447112.295 7   2650185.618 9
  20735828.336      123501.140 7     94980.537 9
  21237397.430    -2227735.585 7  -1703209.996 9
  24077371.672     1537907.645 5   1143702.483 9
  23279323.836     5466526.708 5   4190717.320 9
 94  3 23 19 53 30.0000000  0  7 31  2 18 19 27 28 29
  21863256.547      747651.918 7    588740.038 9
  22769251.563    -1355660.411 6  -1013617.458 9
  21122831.508     3527887.378 7   2713127.194 9
  20737482.063      132191.262 7    101752.053 9
  21230389.563    -2264561.217 7  -1731905.277 9
  24093156.477     1620862.474 5   1208342.524 9
  23300808.414     5579422.418 6   4278687.833 9
 94  3 23 19 54  0.0000000  0  7 31  2 18 19 27 28 29
  21869806.141      782068.595 7    615558.217 9
  22759244.336    -1408247.694 6  -1054594.506 9
  21138286.148     3609101.942 7   2776411.221 9
  20739178.375      141106.091 7    108698.668 9
  21223420.422    -2301184.923 7  -1760443.210 9
  24109027.094     1704261.948 5   1273328.996 9
  23322342.961     5692586.511 5   4366867.457 9
 94  3 23 19 54 30.0000000  0  8 31  2 16 18 19 27 28 29
  21876474.336      817113.434 7    642865.861 9
  22749294.867    -1460533.098 6  -1095336.329 9
  24291657.492       -6072.92715
  21153827.469     3690769.908 7   2840048.547 9
  20740919.375      150256.138 7    115828.571 9
  21216487.477    -2337616.409 7  -1788831.361 9
  24124978.992     1788087.407 5   1338647.502 9
  23343926.648     5806013.361 5   4455251.832 9
 94  3 23 19 55  0.0000000  0  8 31  2 16 18 19 27 28 29
  21883264.852      852797.553 7    670671.655 9
  22739403.547    -1512513.307 6  -1135840.337 9
  24290242.977      -13501.926 5     -1312.66119
  21169458.766     3772912.969 7   2904056.078 9
  20742704.977      159638.484 7    123139.489 9
  21209591.898    -2373851.740 7  -1817066.665 9
  24141008.500     1872321.813 5   1404284.671 9
  23365559.422     5919692.080 5   4543832.470 9
 94  3 23 19 55 30.0000000  0  8 31  2 16 18 19 27 28 29
  21890176.031      889115.482 7    698971.317 9
  22729573.313    -1564170.872 6  -1176092.930 9
  24288932.359      -20390.615 5     -6680.498 9
  21185181.422     3855535.759 7   2968437.417 9
  20744535.703      169259.531 7    130636.404 9
  21202730.484    -2409907.873 7  -1845162.335 9
  24157115.727     1956964.797 5   1470240.204 9
  23387237.234     6033607.693 5   4632597.689 9
 94  3 23 19 56  0.0000000  0  8 31  2 16 18 19 27 28 29
  21897210.836      926084.856 7    727778.602 9
  22719807.016    -1615492.455 6  -1216083.723 9
  24287722.383      -26750.098 5    -11635.998 9
  21200996.594     3938644.552 7   3033197.466 9
  20746414.641      179131.967 7    138329.203 9
  21195902.563    -2445788.849 7  -1873121.518 9
  24173302.336     2042033.585 5   1536527.462 9
  23408959.813     6147760.328 5   4721547.594 9
 94  3 23 19 56 30.0000000  0  8 31  2 16 18 19 27 28 29
  21904372.578      963717.430 7    757102.668 9
  22710100.305    -1666501.431 6  -1255830.921 9
  24286614.617      -32572.059 5    -16172.600 9
  21216906.547     4022252.096 7   3098346.151 9
  20748342.539      189263.682 7    146224.042 9
  21189110.906    -2481481.959 7  -1900934.313 9
  24189574.727     2127543.835 5   1603158.690 9
  23430727.438     6262148.214 5   4810680.825 9
 94  3 23 19 57  0.0000000  0  8 31  2 16 18 19 27 28 29
  21911660.055     1002015.548 7    786945.338 9
  22700450.961    -1717208.854 6  -1295343.147 9
  24285609.859      -37850.462 5    -20285.667 9
  21232911.281     4106355.354 7   3163881.101 9
  20750320.000      199655.877 7    154321.847 9
  21182358.148    -2516967.724 7  -1928585.539 9
  24205937.992     2213530.274 5   1670161.017 9
  23452539.570     6376774.384 5   4899999.711 9
 94  3 23 19 57 30.0000000  0  7 31  2 16 18 19 27 28
  21919073.641     1040974.474 7    817302.927 9
  22690857.344    -1767622.041 6  -1334626.101 9
  24284709.516      -42585.603 5    -23975.423 9
  21249006.984     4190938.658 7   3229790.115 9
  20752347.727      210310.518 7    162624.157 9
  21175646.148    -2552238.320 7  -1956069.106 9
  24222391.148     2299996.095 5   1737536.939 9
 94  3 23 19 58  0.0000000  0  7 31  2 16 18 19 27 29
  21926610.938       14594.57517
  22681316.984    -1817760.677 6  -1373695.120 9
  24283915.477       -1463.37915
  21265191.977     4275992.341 7   3296065.662 9
  20754422.461                        4026.78418
  21168976.422    -2587287.473 7  -1983380.113 9
  23496307.875      111292.978 5
 94  3 23 19 58 30.0000000  0  7 31  2 16 18 19 27 29
  21934267.555       54834.053 7     14691.46219
  22671827.469    -1867625.860 6  -1412551.064 9
  24283230.547       -5059.928 5     -1252.51919
  21281465.016     4361507.884 7   3362701.097 9
  20756547.352       15192.988 7      4086.13219
  21162349.984    -2622109.013 7  -2010513.758 9
  23518268.852       42340.192 5
 94  3 23 19 59  0.0000000  0  7 31  2 16 18 19 27 29
  21942045.844       95707.024 7     46540.528 9
  22662395.164    -1917191.967 6  -1451173.957 9
  24282658.313       -8069.287 5     -3597.501 9
  21297826.133     4447485.143 7   3429696.307 9
  20758724.516       26634.575 7     13001.651 9
  21155765.133    -2656712.963 7  -2037477.853 9
  23540280.227       88700.83115
 94  3 23 19 59 30.0000000  0  7 31  2 16 18 19 27 29
  21949944.367      137212.837 7     78882.720 9
  22653022.781    -1966445.002 6  -1489552.901 9
  24282199.688      -10480.011 5     -5476.018 9
  21314273.438     4533917.362 7   3497046.029 9
  20760955.008       38354.981 7     22134.424 9
  21149218.406    -2691118.490 7  -2064287.339 9
  23562342.922      204641.650 5     75296.94219
 94  3 23 20  0  0.0000000  0  7 31  2 16 18 19 27 29
  21957965.570      179364.302 7    111728.008 9
  22643711.297    -2015377.806 6  -1527682.312 9
  24281856.109      -12287.607 5     -6884.590 9
  21330806.859     4620799.258 7   3564746.146 9
  20763239.406       50360.137 7     31489.088 9
  21142709.672    -2725321.732 7  -2090939.207 9
  23584456.242      320847.108 5    165846.421 9
 94  3 23 20  0 30.0000000  0  7 31  2 16 18 19 27 29
  21966109.844      222165.069 7    145079.267 9
  22634460.703    -2063988.354 6  -1565560.616 9
  24281622.477      -13513.059 5     -7839.528 9
  21347424.938     4708127.865 7   3632794.346 9
  20765579.148       62656.434 7     41070.615 9
  21136239.078    -2759323.773 7  -2117434.294 9
  23606615.961      437297.167 5    256586.457 9
 94  3 23 20  1  0.0000000  0  7 31  2 16 18 19 27 29
  21974379.313      265617.906 7    178938.619 9
  22625272.164    -2112272.346 6  -1603184.446 9
  24281498.672      -14163.523 5     -8346.422 9
  21364131.242     4795920.188 7   3701203.885 9
  20767973.305       75236.950 7     50873.613 9
  21129806.734    -2793124.895 7  -2143772.817 9
  23628821.859      553988.666 5    347514.670 9
 94  3 23 20  1 30.0000000  0  7 31  2 16 18 19 27 29
  21982770.328      309712.900 7    213298.348 9
  22616144.688    -2160240.637 6  -1640562.276 9
  24281480.961      -14257.636 5     -8419.801 9
  21380923.617     4884167.960 7   3769968.320 9
  20770418.320       88084.453 7     60884.646 9
  21123415.953    -2826708.730 7  -2169942.023 9
  23651074.516      670924.301 5    438633.107 9
 94  3 23 20  2  0.0000000  0  7 31  2 16 18 19 27 29
  21991281.297      354441.020 7    248151.433 9
  22607075.687    -2207897.794 6  -1677697.663 9
  24281566.406      -13805.933 5     -8067.877 9
  21397804.320     4972874.091 7   3839089.910 9
  20772913.133      101195.138 8     71100.759 9
  21117070.266    -2860057.103 7  -2195927.751 9
  23673373.313      788103.013 5    529940.969 9
 94  3 23 20  2 30.0000000  0  7 31  2 16 18 19 27 29
  21999911.156      399793.069 7    283490.705 9
  22598066.711    -2255238.634 6  -1714586.579 9
  24281757.039      -12805.194 5     -7288.116 9
  21414776.469     5062061.855 7   3908586.802 9
  20775458.586      114572.510 7     81524.682 9
  21110768.453    -2893173.035 7  -2221732.361 9
  23695719.258      905531.058 5    621443.096 9
 94  3 23 20  3  0.0000000  0  7 31  2 16 18 19 27 29
  22008661.719      445772.039 7    319318.473 9
  22589116.195    -2302274.808 6  -1751238.081 9
  24282052.680      -11252.150 5     -6077.997 9
  21431839.508     5151728.866 7   3978457.131 9
  20778053.273      128207.679 7     92149.485 9
  21104511.000    -2926055.591 7  -2247355.125 9
  23718113.086     1023208.388 5    713139.450 9
 94  3 23 20  3 30.0000000  0  7 31  2 16 18 19 27 29
  22017530.875      492381.648 7    355637.649 9
  22580221.289    -2349017.285 6  -1787660.736 9
  24282453.672       -9143.018 5     -4434.589 9
  21448989.578     5241855.460 7   4048685.569 9
  20780696.477      142098.155 7    102973.229 9
  21098299.047    -2958698.838 7  -2272791.406 9
  23740552.531     1141128.711 5    805025.166 9
 94  3 23 20  4  0.0000000  0  7 31  2 16 18 19 27 29
  22026520.883      539627.772 7    392452.807 9
  22571380.641    -2395474.971 6  -1823861.458 9
  24282961.281       -6478.212 5     -2358.157 9
  21466226.266     5332434.665 7   4119266.695 9
  20783389.219      156247.659 7    113998.813 9
  21092130.672    -2991115.242 7  -2298050.921 9
  23763034.305     1259272.427 5    897084.959 9
 94  3 23 20  4 30.0000000  0  7 31  2 16 18 19 27 29
  22035633.398      587515.090 7    429767.606 9
  22562593.789    -2441647.876 6  -1859840.293 9
  24283573.570       -3259.787 5       149.651 9
  21483549.961     5423467.131 7   4190201.007 9
  20786131.180      170656.856 8    125226.756 9
  21086003.164    -3023315.327 7  -2323141.879 9
  23785557.227     1377630.319 5    989311.654 9
 94  3 23 20  5  0.0000000  0  7 31  2 16 18 19 27 29
  22044869.820      636052.348 7    467588.846 9
  22553864.703    -2487520.404 6  -1895585.062 9
  24284291.688         513.490 5      3089.802 9
  21500955.867     5514936.857 7   4261476.039 9
  20788923.539      185330.850 7    136661.036 9
  21079918.414    -3055290.926 7  -2348057.916 9
  23808120.000     1496200.731 5   1081703.930 9
 94  3 23 20  5 30.0000000  0  7 31  2 16 18 19 27 29
  22054226.039                       18096.57217
  22545195.406    -2533079.492 6  -1931085.575 9
  24285113.758        4833.678 5      6456.158 9
  21518442.297     5606829.417 7   4333080.552 9
  20791765.234      200264.149 7    148297.377 9
  21073871.797    -3087064.895 7  -2372816.836 9
  23830722.164     1614971.938 5   1174252.661 9
 94  3 23 20  6  0.0000000  0  7 31  2 16 18 19 27 29
  22063696.273       67865.812 7      7791.06219
  22536586.789    -2578316.125 6  -1966334.846 9
  24286039.750        9699.270 5     10247.479 9
  21536009.406     5699143.286 7   4405013.360 9
  20794657.805      215463.875 7    160141.323 9
  21067862.469    -3118645.324 7  -2397424.945 9
  23853361.352     1733942.280 5   1266956.550 9
 94  3 23 20  6 30.0000000  0  7 31  2 16 18 19 27 29
  22073279.992      118226.000 7     47032.774 9
  22528041.805    -2623220.702 6  -2001325.365 9
  24287070.633       15115.397 5     14467.780 9
  21553656.406     5791877.495 7   4477273.709 9
  20797601.117      230933.123 7    172195.291 9
  21061889.547    -3150033.128 7  -2421882.957 9
  23876041.555     1853124.886 5   1359825.870 9
 94  3 23 20  7  0.0000000  0  7 31  2 16 18 19 27 29
  22082974.242      169173.382 7     86732.038 9
  22519557.711      -16307.422 6
  24288206.430       21083.233 5     19118.006 9
  21571381.055     5885021.588 7   4549853.453 9
  20800594.977      246666.391 7    184454.986 9
  21055952.758    -3181229.533 7  -2446191.826 9
  23898761.461     1972516.920 5   1452858.361 9
 94  3 23 20  7 30.0000000  0  7 31  2 16 18 19 27 29
  22092782.031      220712.391 7    126892.302 9
  22511133.609      -60579.407 6    -10324.67519
  24289450.383       27619.055 5     24210.804 9
  21589187.766     5978597.650 7   4622769.794 9
  20803640.898      262670.791 8    196925.953 9
  21050056.648    -3212214.707 7  -2470336.094 9
  23921522.945     2092127.740 5   1546061.351 9
 94  3 23 20  8  0.0000000  0  7 31  2 16 18 19 27 29
  22102702.719      272844.665 7    167514.845 9
  22502762.273     -104568.682 6    -44601.979 9
  24290797.375       34698.801 5     29727.450 9
  21607076.977     6072606.316 7   4696023.224 9
  20806734.969      278930.048 8    209595.508 9
  21044200.164    -3242988.597 7  -2494315.729 9
  23944325.516     2211953.013 5   1639431.418 9
 94  3 23 20  8 30.0000000  0  7 31  2 16 18 19 27 29
  22112740.539      325596.045 7    208619.809 9
  22494443.133     -148286.687 6    -78667.899 9
  24292247.172       42317.156 5     35663.792 9
  21625051.070     6167058.655 7   4769622.375 9
  20809875.148      295432.240 8    222454.365 9
  21038383.367    -3273558.150 7  -2518136.143 9
  23967165.703     2331978.279 5   1732957.340 9
 94  3 23 20  9  0.0000000  0  7 31  2 16 18 19 27 29
  22122898.484      378976.919 7    250215.292 9
  22486174.555     -191738.927 6   -112526.727 9
  24293798.539       50471.273 5     42017.587 9
  21643108.797     6261951.516 7   4843564.796 9
  20813063.156      312184.870 7    235508.364 9
  21032608.797    -3303904.357 7  -2541782.520 9
  23990041.148     2452188.470 5   1826627.351 9
 94  3 23 20  9 30.0000000  0  7 31  2 16 18 19 27 29
  22133173.781      432973.395 7    292290.459 9
  22477957.320     -234917.814 6   -146172.554 9
  24295447.547       59136.770 5     48769.879 9
  21661246.734     6357267.748 7   4917837.123 9
  20816298.023      329184.810 7    248755.076 9
  21026876.109    -3334027.075 7  -2565254.748 9
  24012950.586     2572578.124 5   1920437.204 9
 94  3 23 20 10  0.0000000  0  6 31  2 16 18 19 27
  22143566.875      487584.706 7    334844.710 9
  22469792.461     -277824.552 6   -179606.322 9
  24297192.125       68304.989 5     55913.884 9
  21679460.320     6452980.975 7   4992418.796 9
  20819579.906      346433.019 7    262195.234 9
  21021183.414    -3363944.445 7  -2588566.958 9
 94  3 23 20 10 30.0000000  0  7 31  2 16 18 19 27 29
  22154070.508      542784.141 7    377857.239 9
  22461678.875     -320459.880 6   -212828.595 9
  24299033.813       77982.647 5     63454.910 9
  21697742.398       16032.60417
  20822908.992                        2931.78318
  21015529.617    -3393655.521 7  -2611718.427 9
  24058860.891      116672.936 5      3133.20519
 94  3 23 20 11  0.0000000  0  6 31  2 16 18 19 27
  22164682.367      598550.071 7    421311.188 9
  22453618.344     -362820.063 7   -245836.460 9
  24300970.438       88160.359 5     71385.534 9
  21716089.930      112447.614 7     27574.59719
  20826282.695       20660.191 8      5084.29019
  21009917.016    -3423149.821 7  -2634700.978 9
 94  3 23 20 11 30.0000000  0  7 31  2 16 18 19 27 29
  22175401.094      654878.869 7    465203.729 9
  22445607.133     -404918.787 6   -278640.590 9
  24303002.250       98837.831 5     79705.601 9
  21734502.578      209205.845 7    102970.559 9
  20829698.633       38611.804 7     19072.551 9
  21004339.078    -3452462.154 7  -2657541.743 9
  24104879.898      116956.505 5      6284.73519
 94  3 23 20 12  0.0000000  0  7 31  2 16 18 19 27 29
  22186225.086      711758.901 7    509525.806 9
  22437643.242     -446771.102 7   -311252.716 9
  24305132.914      110032.408 5     88428.598 9
  21752982.188      306319.241 7    178643.278 9
  20833157.055       56786.708 8     33234.803 9
  20998794.664    -3481596.260 7  -2680243.628 9
  24127929.680      238083.736 5    100669.285 9
 94  3 23 20 12 30.0000000  0  7 31  2 16 18 19 27 29
  22197153.344      769186.889 7    554274.860 9
  22429726.102     -488374.200 7   -343670.655 9
  24307359.063      121730.971 5     97544.307 9
  21771532.102      403796.732 7    254599.703 9
  20836658.930       75188.639 8     47573.963 9
  20993288.133    -3510533.965 7  -2702792.470 9
  24151006.367      359348.916 5    195161.348 9
 94  3 23 20 13  0.0000000  0  7 31  2 16 18 19 27 29
  22208186.391      827166.369 7    599453.647 9
  22421853.875     -529743.559 7   -375906.437 9
  24309677.539      133915.707 5    107038.844 9
  21790153.203      501649.833 7    330848.805 9
  20840204.688       93822.317 7     62093.698 9
  20987817.945    -3539280.383 7  -2725192.265 9
  24174109.563      480755.934 5    289763.908 9
 94  3 23 20 13 30.0000000  0  6 31 16 18 19 27 29
  22219324.414      885698.025 7    645062.699 9
  24312092.758      146606.213 5    116927.458 9
  21808848.516      599895.120 7    407403.511 9
  20843799.227      112711.384 7     76812.444 9
  20982386.836    -3567821.826 7  -2747432.339 9
  24197240.789                       44580.122 5
 94  3 23 20 14  0.0000000  0  7 31  2 16 18 19 27 29
  22230567.945      944779.608 7    691100.264 9
  22406256.344      -39476.075 7
  24314603.133      159798.217 5    127206.916 9
  21827619.227      698535.571 7    484266.144 9
  20847442.461      131855.963 7     91730.290 9
  20977001.297    -3596122.554 7  -2769484.842 9
  24220399.625      166282.321 5     47428.38519
 94  3 23 20 14 30.0000000  0  6 31  2 16 18 19 27
  22241917.516     1004423.224 7    737575.780 9
  22398539.977      -80026.451 7    -30540.39019
  24317209.328      173492.517 5    137877.719 8
  21846463.719      797568.153 7    561434.330 9
  20851133.656      151253.232 7    106845.039 9
  20971663.164    -3624174.552 7  -2791343.526 9
 94  3 23 20 15  0.0000000  0  6 31  2 16 18 19 27
  22253372.977     1064621.360 7    784483.387 9
  22390879.273     -120282.080 7    -61908.341 9
  24319913.977      187703.809 5    148951.412 9
  21865381.813      896984.332 7    638901.412 9
  20854868.789      170881.384 7    122139.691 9
  20966368.250    -3651999.547 7  -2813025.333 9
 94  3 23 20 15 30.0000000  0  6 31  2 16 18 19 27
  22264934.211     1125374.812 7    831823.709 9
  22383277.891     -160228.306 7    -93035.205 9
  24322718.453      202443.031 5    160436.443 9
  21884373.547                       56594.89517
  20858646.422      190733.190 7    137608.627 9
  20961113.117      -15624.06317
 94  3 23 20 16  0.0000000  0  6 31  2 16 18 19 27
  22276602.305     1186691.686 7    879603.065 9
  22375730.594     -199889.846 7   -123940.235 9
  24325620.914      217696.108 5    172321.899 9
  21903433.711      156754.622 7     46857.13019
  20862465.766      210802.741 7    153247.229 9
  20955893.664      -43052.907 7    -12808.02619
 94  3 23 20 16 30.0000000  0  6 31  2 16 18 19 27
  22288378.883     1248578.866 7    927826.822 9
  22368230.063     -239304.830 7   -154653.147 9
  24328622.406      233463.758 5    184608.335 9
  21922558.328      257255.911 7    125169.759 9
  20866328.859      231104.778 7    169066.992 9
  20950704.273      -70323.812 7    -34058.070 9
 94  3 23 20 17  0.0000000  0  6 31  2 16 18 19 27
  22300264.742     1311039.952 7    976497.773 9
  22360774.633     -278483.835 7   -185182.174 9
  24331720.438      249745.004 5    197294.975 9
  21941747.578      358096.899 7    203747.087 9
  20870239.039      251652.785 7    185078.418 9
  20945543.984      -97441.437 7    -55188.673 9
 94  3 23 20 17 30.0000000  0  6 31  2 16 18 19 27
  22312257.805     1374063.925 7   1025607.345 9
  22353360.922     -317440.085 7   -215537.633 9
  24334912.461      266518.248 5    210364.962 9
  21961000.344      459270.078 7    282583.260 9
  20874197.477      272456.312 7    201288.953 9
  20940413.273     -124402.132 7    -76196.999 9
 94  3 23 20 18  0.0000000  0  6 31  2 16 18 19 27
  22324356.844     1437644.416 7   1075150.570 9
  22345990.906     -356171.030 7   -245717.526 9
  24338196.687      283779.712 5    223815.377 9
  21980312.547      560758.746 7    361665.272 9
  20878206.992      293524.532 7    217705.741 9
  20935318.805     -151173.710 7    -97057.954 9
 94  3 23 20 18 30.0000000  0  6 31  2 16 18 19 27
  22336560.227     1501772.957 7   1125120.854 9
  22338668.305     -394650.470 7   -275701.450 9
  24341576.508      301541.657 5    237655.788 9
  21999689.219      662579.112 7    441005.747 9
  20882269.078      314870.786 7    234339.183 9
  20930266.469     -177724.819 7   -117747.121 9
 94  3 23 20 19  0.0000000  0  6 31  2 16 18 19 27
  22348864.445     1566433.563 7   1175505.728 9
  22331397.617     -432855.925 7   -305471.867 9
  24345050.344                        6747.82315
  22019128.563      764736.350 7    520608.724 9
  20886381.727      336481.670 7    251178.826 9
  20925258.930     -204039.204 7   -138251.819 9
 94  3 23 20 19 30.0000000  0  6 31  2 16 18 19 27
  22361273.711     1631639.018 7   1226315.163 9
  22324183.289     -470768.674 7   -335014.215 9
  24348617.945                       25497.324 5
  22038634.609      867239.362 7    600481.142 9
  20890544.492      358359.088 7    268226.160 9
  20920299.742     -230099.825 7   -158558.781 9
 94  3 23 20 20  0.0000000  0  6 31  2 16 18 19 27
  22373789.344     1697413.294 7   1277567.832 9
  22317026.594     -508379.306 7   -364321.138 9
  24352282.688       44756.568 5     14018.10419
  22058208.297      970100.987 7    680632.999 9
  20894760.555      380514.380 7    285490.022 9
  20915390.852     -255895.129 7   -178659.002 9
 94  3 23 20 20 30.0000000  0  6 31  2 16 18 19 27
  22386416.398     1763767.514 7   1329272.407 9
  22309925.742     -545693.862 7   -393397.354 9
  24356042.242       64513.807 5     29413.295 9
  22077855.508     1073348.233 7    761085.339 9
  20899027.570      402938.030 7    302962.989 9
  20910530.031     -281437.906 7   -198562.447 9
 94  3 23 20 21  0.0000000  0  6 31  2 16 18 19 27
  22399153.992     1830705.109 7   1381431.564 9
  22302879.688     -582719.741 7   -422248.623 9
  24359895.977       84760.741 5     45190.057 9
  22097575.211     1176975.413 7    841833.720 9
  20903342.133      425610.632 7    320629.944 9
  20905713.969     -306747.926 7   -218284.520 9
 94  3 23 20 21 30.0000000  0  6 31  2 16 18 19 27
  22412001.516     1898218.329 7   1434039.257 9
  22295888.953     -619457.097 7   -450875.077 9
  24363844.180      105507.430 5     61356.264 9
  22117368.156     1280986.547 7    922881.292 9
  20907704.227      448534.698 7    338492.848 9
  20900941.594     -331826.367 7   -237826.143 9
 94  3 23 20 22  0.0000000  0  6 31  2 16 18 19 27
  22424952.141     1966276.294 7   1487071.423 9
  22288952.016     -655909.341 7   -479279.354 9
  24367887.117      126749.986 5     77908.855 9
  22137233.758     1385378.094 7   1004225.295 9
  20912115.164      471712.092 7    356553.146 9
  20896213.000     -356675.313 7   -257188.947 9
 94  3 23 20 22 30.0000000  0  6 31  2 16 18 19 27
  22438001.055     2034848.061 7   1540503.954 9
  22282068.578     -692082.795 7   -507466.392 9
  24372022.938      148487.841 5     94847.411 9
  22157167.609     1490130.222 7   1085850.269 9
  20916570.750      495127.668 7    374799.040 9
  20891525.773     -381305.306 7   -276381.129 9
 94  3 23 20 23  0.0000000  0  6 31  2 16 18 19 27
  22451146.289     2103928.764 7   1594333.050 9
  22275239.898     -727965.500 7   -535426.876 9
  24376262.008      170764.912 5    112206.064 9
  22177166.961     1595230.035 7   1167746.160 9
  20921075.539      518799.380 7    393244.517 9
  20886882.664     -405705.938 7   -295394.596 9
 94  3 23 20 23 30.0000000  0  6 31  2 16 18 19 27
  22464388.789     2173515.516 7   1648556.474 9
  22268466.031     -763562.383 7   -563164.644 9
  24380605.602      193590.346 5    129992.061 9
  22197232.641     1700674.589 7   1249910.679 9
  20925631.578      542742.602 7    411901.565 9
  20882285.797     -429863.742 7   -314218.847 9
 94  3 23 20 24  0.0000000  0  6 31  2 16 18 19 27
  22477732.117     2243637.632 7   1703197.051 9
  22261745.883     -798876.890 7   -590682.379 9
  24385053.695      216966.716 5    148207.368 9
  22217363.172     1806461.444 7   1332341.922 9
  20930241.836      566968.685 7    430779.014 9
  20877737.039     -453768.034 7   -332845.566 9
 94  3 23 20 24 30.0000000  0  6 31  2 16 18 19 27
  22491182.859     2314322.238 7   1758275.943 9
  22255078.789     -833912.840 7   -617983.062 9
  24389606.797      240893.311 5    166851.429 8
  22237557.719     1912584.610 7   1415035.219 9
  20934905.805      591479.608 7    449878.427 9
  20873236.188     -477419.776 7   -351275.477 9
 94  3 23 20 25  0.0000000  0  6 31  2 16 18 19 27
  22504744.844     2385590.356 7   1813809.512 9
  22248465.734     -868665.668 7   -645063.133 9
  24394261.039      265352.577 5    185910.538 9
  22257818.688     2019057.135 7   1498000.749 9
  20939626.336      616286.607 7    469208.549 9
  20868784.391     -500814.173 7   -369504.864 9
 94  3 23 20 25 30.0000000  0  6 31  2 16 18 19 27
  22518419.477     2457448.450 7   1869802.795 9
  22241906.523     -903134.695 7   -671922.053 9
  24399007.297      290293.095 5    205344.640 9
  22278145.430     2125873.679 7   1581234.333 9
  20944404.188      641392.418 7    488771.511 9
  20864382.305     -523947.098 7   -387530.510 9
 94  3 23 20 26  0.0000000  0  6 31  2 16 18 19 27
  22532205.133     2529893.397 7   1926253.364 9
  22235402.547     -937312.450 7   -698554.021 9
  24403843.148      315702.114 5    225143.134 2
  22298536.422     2233028.677 7   1664731.638 9
  20949238.938      666798.563 7    508568.503 9
  20860028.820     -546824.708 7   -405357.208 9
 94  3 23 20 26 30.0000000  0  6 31  2 16 18 19 27
  22546098.023     2602900.657 7   1983142.097 9
  22228955.117     -971194.748 7   -724955.762 9
  24408766.766      341577.415 5    245305.246 8
  22318990.984     2340518.458 7   1748489.810 9
  20954129.461                       14599.01917
  20855722.734     -569453.630 7   -422990.131 9
 94  3 23 20 27  0.0000000  0  6 31  2 16 18 19 27
  22560094.328     2676451.413 7   2040454.333 9
  22222564.320    -1004778.347 7   -751124.752 9
  24413779.711      367917.712 5    265830.117 9
  22339509.914     2448342.583 7   1832508.514 9
  20959075.781       40590.789 7     14873.90919
  20851464.250     -591832.860 7   -440428.484 9
 94  3 23 20 27 30.0000000  0  6 31  2 16 18 19 27
  22574189.844     2750523.968 7   2098173.166 9
  22216228.383    -1038071.527 7   -777067.444 9
  24418880.414      394724.837 5    286718.742 9
  22360087.695     2556480.221 7   1916771.524 9
  20964075.633       66865.931 7     35348.035 9
  20847252.789     -613963.801 7   -457673.369 9
 94  3 23 20 28  0.0000000  0  7 31  2 16 18 19  7 27
  22588384.078     2825112.746 7   2156294.251 9
  22209947.406    -1071078.857 7   -802787.393 9
  24424075.992      422022.759 5    307989.786 9
  22380725.750     2664934.324 7   2001281.115 9
  20969127.898       93414.771 7     56035.426 9
  24404039.305      -34123.05615
  20843086.945     -635855.574 7   -474731.890 9
 94  3 23 20 28 30.0000000  0  7 31  2 16 18 19  7 27
  22602674.547     2900213.675 7   2214814.414 9
  22203717.633    -1103815.598 7   -828296.493 9
  24429362.867      449809.476 5    329641.711 9
  22401423.883     2773703.659 7   2086036.340 9
  20974228.680      120219.945 7     76922.562 9
  24386336.148     -127154.915 5
  20838965.391     -657515.401 7   -491609.669 9
 94  3 23 20 29  0.0000000  0  7 31  2 16 18 19  7 27
  22617064.797     2975835.481 7   2273740.455 9
  22197540.805    -1136275.899 7   -853590.187 9
  24434745.781      478095.571 5    351682.769 9
  22422181.992     2882787.541 7   2171036.654 9
  20979380.414      147292.968 7     98018.410 9
  24368645.945     -220112.719 5    -60355.59119
  20834892.469     -678917.179 7   -508286.380 9
 94  3 23 20 29 30.0000000  0  7 31  2 16 18 19  7 27
  22631554.398     3051976.123 7   2333070.782 9
  22191415.234    -1168466.215 7   -878673.509 9
  24440224.539      506884.813 5    374115.841 8
  22442996.367     2992166.405 7   2256266.823 9
  20984582.875      174633.766 7    119322.923 9
  24350970.938     -312997.587 5   -132733.189 9
  20830868.070     -700065.685 7   -524765.731 9
 94  3 23 20 30  0.0000000  0  7 31  2 16 18 19  7 27
  22646142.195     3128632.200 7   2392802.750 9
  22185339.961    -1200391.767 7   -903550.514 9
  24445797.406      536177.035 5    396940.882 9
  22463865.914     3101838.443 6   2341725.449 9
  20989836.078      202238.715 7    140833.261 9
  24333311.023     -405797.075 5   -205044.262 9
  20826891.750     -720962.338 7   -541048.837 9
 94  3 23 20 30 30.0000000  0  7 31  2 16 18 19  7 27
  22660824.836     3205793.858 6   2452928.681 9
  22179312.641    -1232064.315 7   -928230.382 9
  24451467.188      565967.450 5    420154.099 9
  22484789.484     3211791.560 6   2427403.098 9
  20995141.266      230116.911 7    162556.520 9
  24315667.609     -498515.345 5   -277292.044 9
  20822966.391     -741591.020 7   -557123.136 9
 94  3 23 20 31  0.0000000  0  7 31  2 16 18 19  7 27
  22675603.781     3283457.263 6   2513445.575 9
  22173335.133    -1263478.523 7   -952708.944 9
  24457229.969      596248.238 5    443749.432 9
  22505766.016     3322026.334 6   2513300.210 9
  21000501.711      258285.572 7    184506.115 9
  24298038.086     -591159.122 5   -349481.786 9
  20819093.727     -761942.600 7   -572981.506 9
 94  3 23 20 31 30.0000000  0  7 31  2 16 18 19  7 27
  22690477.516     3361618.532 6   2574350.426 9
  22167405.781    -1294635.900 7   -976987.374 9
  24463081.523      626999.650 5    467711.489 9
  22526800.938     3432564.780 6   2599433.947 9
  21005916.586      286741.476 7    206679.539 9
  24280419.445     -683744.775 5   -421626.216 9
  20815269.758     -782035.358 7   -588638.201 9
 94  3 23 20 32  0.0000000  0  7 31  2 16 18 19  7 27
  22705445.336     3440270.373 6   2635637.538 9
  22161524.016    -1325546.622 7  -1001073.609 9
  24469018.594      658202.280 5    492025.156 9
  22547896.648     3543421.663 6   2685815.829 9
  21011384.250      315475.451 7    229069.637 9
  24262811.836     -776273.412 5   -493726.256 9
  20811495.570     -801868.796 7   -604092.825 9
 94  3 23 20 32 30.0000000  0  7 31  2 16 18 19  7 27
  22720505.906     3519419.405 6   2697312.075 9
  22155689.391    -1356206.168 7  -1024964.127 9
  24475042.938      689858.912 5    516692.587 9
  22569055.984     3654614.047 6   2772459.133 9
  21016905.602      344487.484 7    251676.394 9
  24245216.180     -868739.285 5   -565777.331 9
  20807772.063     -821436.914 7   -619340.709 9
 94  3 23 20 33  0.0000000  0  7 31  2 16 18 19  7 27
  22735662.000     3599064.213 6   2759372.928 9
  22149906.203    -1386597.374 7  -1048645.540 9
  24481150.516      721958.910 4    541705.495 8
  22590279.391     3766144.000 6   2859365.480 9
  21022476.219      373762.732 7    274488.260 9
  24227632.813     -961136.428 5   -637774.876 9
  20804095.367     -840757.493 7   -634395.704 9
 94  3 23 20 33 30.0000000  0  7 31  2 16 18 19  7 27
  22750912.297     3679205.352 6   2821820.536 9
  22144173.883    -1416717.993 7  -1072116.115 9
  24487347.375      754516.752 5    567075.195 9
  22611564.258     3877998.356 6   2946524.600 9
  21028096.016      403295.554 7    297500.834 9
  24210068.469    -1053439.374 5   -709699.015 9
  20800464.195     -859840.131 7   -649265.285 9
 94  3 23 20 34  0.0000000  0  7 31  2 16 18 19  7 27
  22766257.930     3759847.297 6   2884658.385 9
  22138493.797    -1446568.523 7  -1095376.225 9
  24493632.336      787543.455 5    592810.207 9
  22632905.789     3990146.793 6   3033912.895 9
  21033767.367      433097.498 7    320723.113 9
  24192525.195    -1145629.083 5   -781534.881 9
  20796878.711     -878680.912 7   -663946.414 9
 94  3 23 20 34 30.0000000  0  7 31  2 16 18 19  7 27
  22781696.992     3840980.316 6   2947878.891 9
  22132864.984    -1476148.122 7  -1118425.226 9
  24500005.406      821032.816 5    618905.692 9
  22654295.867     4102554.156 6   3121502.937 9
  21039489.414      463166.819 7    344153.742 9
  24175001.555    -1237712.804 5   -853288.208 9
  20793336.727     -897294.628 7   -678450.604 9
 94  3 23 20 35  0.0000000  0  7 31  2 16 18 19  7 27
  22797226.602     3922587.355 6   3011468.755 9
  22127284.836    -1505469.692 7  -1141273.170 9
  24506464.688      854974.341 5    645353.594 9
  22675729.039     4215185.123 6   3209267.210 9
  21045261.805      493500.963 7    367790.721 9
  24157496.609    -1329699.381 5   -924965.750 9
  20789834.734     -915698.572 7   -692791.335 9
 94  3 23 20 35 30.0000000  0  6 31  2 18 19  7 27
  22812847.805     4004679.090 6   3075436.308 9
  22121753.305    -1534539.097 7  -1163924.618 9
  22697206.750     4328046.683 6   3297211.172 9
  21051090.305      524129.952 7    391657.455 9
  24140011.211    -1421586.264 5   -996565.704 9
  20786376.984     -933869.333 7   -706950.367 9
 94  3 23 20 36  0.0000000  0  6 31  2 18 19  7 27
  22828559.406     4087245.579 6   3139773.805 9
  22116267.789    -1563365.759 7  -1186386.917 9
  22718727.336     4441137.675 6   3385333.900 9
  21056974.906      555053.585 7    415753.777 9
  24122540.617    -1513393.179 5  -1068103.280 9
  20782967.289     -951786.686 7   -720911.940 9
 94  3 23 20 36 30.0000000  0  6 31  2 18 19  7 27
  22844360.586     4170281.762 6   3204477.287 9
  22110828.750    -1591949.930 7  -1208660.258 9
  22740292.906     4554466.458 6   3473641.933 9
  21062912.250      586254.095 7    440065.849 9
  24105086.836    -1605116.482 5  -1139575.788 9
  20779609.539     -969432.568 7   -734661.974 9
 94  3 23 20 37  0.0000000  0  6 31  2 18 19  7 27
  22860248.859     4253772.413 6   3269534.908 9
  22105433.945    -1620298.114 7  -1230749.708 9
  22761906.883     4668047.639 6   3562146.624 9
  21068902.328      617733.444 7    464595.197 9
  24087649.141    -1696749.400 5  -1210977.780 9
  20776305.984     -986791.249 7   -748188.216 9
 94  3 23 20 37 30.0010000  0  6 31  2 18 19  7 27
  22876221.200     4337705.259 6   3334937.095 9
  22100083.083    -1648416.104 7  -1252659.786 9
  22783570.802     4781888.780 6   3650853.874 9
  21074944.552      649485.306 7    489336.893 9
  24070227.419    -1788300.801 5  -1282316.388 9
  20773059.653    -1003851.242 7   -761481.714 9
 94  3 23 20 38  0.0010000  0  6 31  2 18 19  7 27
  22892277.114     4422078.706 6   3400682.592 9
  22094778.895    -1676290.215 7  -1274379.837 9
  22805281.536     4895979.748 6   3739755.813 9
  21081035.700      681493.737 7    514278.520 9
  24052826.950    -1879739.353 5  -1353566.888 9
  20769871.403    -1020606.341 7   -774537.628 9
 94  3 23 20 38 30.0010000  0  6 31  2 18 19  7 27
  22908418.013     4506900.181 6   3466777.206 9
  22089523.536    -1703907.127 7  -1295899.471 9
  22827043.481     5010341.730 6   3828868.934 9
  21087175.044      713755.702 7    539417.702 9
  24035450.247    -1971048.881 5  -1424717.021 9
  20766737.575    -1037074.639 7   -787370.063 9
 94  3 23 20 39  0.0010000  0  6 31  2 18 19  7 27
  22924644.669     4592169.637 6   3533220.899 9
  22084316.927    -1731267.675 7  -1317219.348 9
  22848856.724     5124971.038 6   3918190.351 9
  21093364.310      746280.966 7    564762.049 9
  24018097.849    -2062244.314 5  -1495778.122 9
  20763654.372    -1053274.759 7   -799993.528 9
 94  3 23 20 39 30.0010000  0  6 31  2 18 19  7 27
  22940961.786     4677919.817 6   3600039.166 9
  22079162.911    -1758353.869 7  -1338325.435 9
  22870722.224       19164.14816
  21099603.981      779070.784 7    590312.542 9
  24000766.083    -2153317.898 5  -1566744.325 9
  20760621.630    -1069213.564 7   -812413.374 9
 94  3 23 20 40  0.0010000  0  6 31  2 18 19  7 27
  22957371.458     4764150.131 6   3667231.572 9
  22074060.489    -1785165.139 7  -1359217.293 9
  22892638.731      134336.530 6     29934.92919
  21105891.919      812114.855 7    616061.155 9
  23983458.177    -2244269.648 5  -1637615.570 9
  20757634.638    -1084911.062 7   -824645.184 9
 94  3 23 20 40 30.0010000  0  6 31  2 18 19  7 27
  22973871.669     4850859.600 6   3734797.346 9
  22069012.161    -1811694.824 7  -1379889.743 9
  22914609.544      249792.714 6    119900.651 9
  21112231.216      845428.093 7    642019.505 9
  23966173.474    -2335104.484 5  -1708395.720 9
  20754695.192    -1100357.010 7   -836680.980 9
 94  3 23 20 41  0.0010000  0  6 31  2 18 19  7 27
  22990456.942     4938017.908 6   3802712.858 9
  22064012.005    -1837971.164 7  -1400364.776 9
  22936627.044      365494.530 6    210057.788 9
  21118623.192      879018.386 7    668193.740 9
  23948904.739    -2425848.276 5  -1779104.848 9
  20751803.505    -1115552.159 7   -848521.344 9
 94  3 23 20 41 30.0010000  0  6 31  2 18 19  7 27
  23007124.192     5025605.345 6   3870962.759 9
  22059059.677    -1863994.727 7  -1420642.843 9
  22958690.052      481436.441 6    300401.990 9
  21125068.739      912889.503 7    694586.800 9
  23931655.528    -2516493.372 5  -1849737.175 9
  20748958.927    -1130501.356 7   -860170.064 9
 94  3 23 20 42  0.0010000  0  5  2 18 19  7 27
  22054153.411    -1889775.287 7  -1440731.556 9
  22980796.950      597609.847 6    390926.582 9
  21131569.091      947049.785 7    721205.182 9
  23914426.341    -2607037.684 5  -1920290.818 9
  20746163.552    -1145189.358 7   -871615.247 9
 94  3 23 20 42 30.0010000  0  6 31  2 18 19  7 27
  23040691.849       85460.648 6      9201.21919
  22049291.966    -1915323.428 7  -1460639.161 9
  23002943.778      713989.994 6    481612.268 9
  21138127.294      981513.386 7    748059.914 9
  23897215.013    -2697479.108 5  -1990764.351 9
  20743418.169    -1159617.521 7   -882857.968 9
 94  3 23 20 43  0.0010000  0  6 31  2 18 19  7 27
  23057595.614      174287.275 6     78416.719 9
  22044473.599    -1940643.821 7  -1480369.302 9
  23025128.403      830568.643 6    572452.640 9
  21144744.872     1016287.312 7    775156.460 9
  23880026.716    -2787798.748 5  -2061142.948 9
  20740722.052    -1173786.712 7   -893898.888 9
 94  3 23 20 43 30.0010000  0  6 31  2 18 19  7 27
  23074585.458      263566.285 6    147984.727 9
  22039701.896    -1965720.879 7  -1499909.829 9
  23047352.169      947354.576 6    663454.519 9
  21151418.177     1051356.537 7    802483.104 9
  23862868.364    -2877969.617 5  -2131405.639 9
  20738076.669    -1187688.456 7   -904731.412 9
 94  3 23 20 44  0.0010000  0  6 31  2 18 19  7 27
  23091665.396      353324.177 6    217925.891 9
  22034976.521    -1990552.385 7  -1519259.023 9
  23069614.810     1064347.152 6    754617.415 9
  21158147.692     1086720.306 7    830039.264 9
  23845741.622    -2967972.071 6  -2201536.995 9
  20735488.036    -1201291.045 7   -915330.827 9
 94  3 23 20 44 30.0010000  0  6 31  2 18 19  7 27
  23108835.638      443554.469 6    288235.162 9
  22030296.021    -2015149.012 7  -1538425.191 9
  23091915.044     1181539.197 6    845935.735 9
  21164929.880     1122361.152 7    857811.326 9
  23828645.224    -3057807.983 6  -2271538.690 9
  20732954.067    -1214605.153 7   -925705.452 9
 94  3 23 20 45  0.0010000  0  6 31  2 18 19  7 27
  23126096.731      534262.876 6    358916.986 9
  22025664.685    -2039486.398 7  -1557389.356 9
  23114259.638     1298960.879 6    937432.998 9
  21171763.911     1158273.468 7    885794.917 9
  23811582.724    -3147468.949 5  -2341404.041 9
  20730481.349    -1227601.390 7   -935832.392 9
 94  3 23 20 45 30.0010000  0  6 31  2 18 19  7 27
  23143443.536      625420.535 6    429948.890 9
  22021082.981    -2063562.675 7  -1576150.064 9
  23136647.286     1416607.427 6   1029105.468 9
  21178647.052     1194445.075 7    913980.558 9
  23794551.974    -3236969.364 6  -2411144.252 9
  20728066.872    -1240289.404 7   -945719.157 9
 94  3 23 20 46  0.0010000  0  6 31  2 18 19  7 27
  23160874.755      717022.274 6    501326.816 9
  22016549.903    -2087383.422 7  -1594711.659 9
  23159081.747     1534497.322 6   1120967.564 9
  21185581.724     1230886.477 7    942376.432 9
  23777550.997    -3326309.814 6  -2480759.881 9
  20725713.567    -1252655.847 7   -955355.343 9
 94  3 23 20 46 30.0010000  0  6 31  2 18 19  7 27
  23178388.060      809052.751 6    573038.826 9
  22012065.138    -2110950.597 7  -1613075.661 9
  23181561.911     1652626.318 6   1213015.968 9
  21192569.146     1267603.663 7    970987.204 9
  23760576.114    -3415509.717 6  -2550265.952 9
  20723417.138    -1264724.520 7   -964759.506 9
 94  3 23 20 47  0.0010000  0  6 31  2 18 19  7 27
  23195981.763      901509.550 6    645083.042 9
  22007629.521    -2134260.028 7  -1631238.823 9
  23204085.692     1770992.180 6   1305248.950 9
  21199611.536     1304612.984 7    999825.611 9
  23743627.294    -3504572.539 5  -2619665.319 9
  20721175.349    -1276504.075 7   -973938.373 9
 94  3 23 20 47 30.0010000  0  6 31  2 18 19  7 27
  23213660.278      994410.559 6    717473.395 9
  22003243.177    -2157311.065 7  -1649200.641 9
  23226654.177     1889594.248 6   1397665.985 9
  21206714.099     1341936.374 7   1028908.749 9
  23726709.442    -3593478.046 6  -2688942.024 9
  20718990.185    -1287988.168 7   -982887.013 9
 94  3 23 20 48  0.0010000  0  6 31  2 18 19  7 27
  23231423.669     1087759.323 6    790212.640 9
  21998904.896    -2180108.770 7  -1666965.063 9
  23249265.974     2008418.320 6   1490256.006 9
  21213877.692     1379583.608 7   1058244.232 9
  23709819.606    -3682235.229 6  -2758103.194 9
  20716861.286    -1299174.682 7   -991603.773 9
 94  3 23 20 48 30.0010000  0  6 31  2 18 19  7 27
  23249270.333     1181544.394 6    863291.869 9
  21994617.849    -2202637.513 7  -1684519.893 9
  23271916.653     2127446.136 6   1583004.773 9
  21221105.786     1417565.119 7   1087840.194 9
  23692958.013    -3770839.436 6  -2827145.228 9
  20714786.825    -1310076.622 7  -1000098.788 9
 94  3 23 20 49  0.0010000  0  6 31  2 18 19  7 27
  23267198.028     1275755.327 6    936702.934 9
  21990383.255    -2224890.175 7  -1701859.596 9
  23294608.091     2246688.172 6   1675920.482 9
  21228394.036     1455866.044 7   1117685.049 9
  23676131.060    -3859266.989 5  -2896049.566 9
  20712769.356    -1320678.989 7  -1008360.370 9
 94  3 23 20 49 30.0010000  0  6 31  2 18 19  7 27
  23285205.224     1370380.954 6   1010437.144 9
  21986200.325    -2246871.391 7  -1718987.780 9
  23317339.466     2366144.754 6   1769003.363 9
  21235742.989     1494484.291 7   1147777.170 9
  23659337.505    -3947514.971 6  -2964814.047 9
  20710812.466    -1330961.847 7  -1016372.984 9
 94  3 23 20 50  0.0010000  0  6 31  2 18 19  7 27
  23303285.505     1465395.288 6   1084474.237 9
  21982066.255    -2268596.880 7  -1735916.700 9
  23340110.075     2485805.970 6   1862245.697 9
  21243149.794     1533407.417 7   1178106.860 9
  23642577.841    -4035589.763 6  -3033443.552 9
  20708912.888    -1340944.536 7  -1024151.704 9
 94  3 23 20 50 30.0010000  0  6 31  2 18 19  7 27
  23321439.505     1560790.961 6   1158808.465 9
  21977979.919    -2290068.384 7  -1752647.707 9
  23362922.450     2605683.613 6   1955656.671 9
  21250612.575     1572624.278 7   1208665.435 9
  23625851.724    -4123482.530 5  -3101931.261 9
  20707071.935    -1350619.406 7  -1031690.561 9
 94  3 23 20 51  0.0010000  0  6 31  2 18 19  7 27
  23339665.341     1656566.150 6   1233438.433 9
  21973939.419    -2311302.313 7  -1769193.600 9
  23385775.552     2725774.816 6   2049234.039 9
  21258129.677     1612126.689 7   1239446.516 9
  23609159.106    -4211201.100 5  -3170283.258 9
  20705291.333    -1359975.661 7  -1038981.145 9
 94  3 23 20 51 30.0010000  0  6 31  2 18 19  7 27
  23357964.716     1752730.383 6   1308371.547 9
  21969940.927    -2332315.095 7  -1785567.172 9
  23408664.497     2846056.916 6   2142960.168 9
  21265703.567     1651928.189 7   1270460.656 9
  23592497.177    -4298759.959 5  -3238510.787 9
  20703570.958    -1369017.135 7  -1046026.448 9
 94  3 23 20 52  0.0010000  0  6 31  2 18 19  7 27
  23376339.606     1849292.921 6   1383615.026 9
  21965986.161    -2353095.873 7  -1801759.961 9
  23431588.966     2966523.530 6   2236830.088 9
  21273333.575     1692023.484 7   1301703.723 9
  23575867.083    -4386151.265 6  -3306607.782 9
  20701908.091    -1377754.890 7  -1052835.089 9
 94  3 23 20 52 30.0010000  0  6 31  2 18 19  7 27
  23394792.192     1946262.299 6   1459175.533 9
  21962075.544    -2373646.184 7  -1817773.162 9
  23454548.966     3087178.429 6   2330846.703 9
  21281019.544     1732412.783 7   1333175.884 9
  23559268.247    -4473380.188 6  -3374578.229 9
  20700304.677    -1386181.711 7  -1059401.447 9
 94  3 23 20 53  0.0010000  0  6 31  2 18 19  7 27
  23413320.935     2043631.418 6   1535047.518 9
  21958206.083    -2393982.195 7  -1833619.378 9
  23477540.888     3208000.213 6   2424993.354 9
  21288759.841     1773088.568 7   1364871.280 9
  23542700.895    -4560443.831 6  -3442419.901 9
  20698755.216    -1394323.998 7  -1065746.090 9
 94  3 23 20 53 30.0010000  0  6 31  2 18 19  7 27
  23431925.724     2141406.592 6   1611235.905 9
  21954380.239    -2414085.217 7  -1849284.046 9
  23500566.708     3329002.962 6   2519281.020 9
  21296556.013     1814058.973 7   1396796.250 9
  23526166.802    -4647327.923 6  -3510121.689 9
  20697258.669    -1402189.404 7  -1071874.984 9
 94  3 23 20 54  0.0010000  0  6 31  2 18 19  7 27
  23450607.575     2239576.366 6   1687731.774 9
  21950598.966    -2433955.952 7  -1864767.704 9
  23523628.552     3450192.448 6   2613714.185 9
  21304407.388     1855317.124 7   1428945.438 9
  23509667.005    -4734029.991 6  -3577681.620 9
  20695813.708    -1409781.589 7  -1077790.975 9
 94  3 23 20 54 30.0010000  0  6 31  2 18 19  7 27
  23469364.927     2338144.166 6   1764537.793 9
  21946860.935    -2453599.572 7  -1880074.389 9
  23546724.810     3571564.409 6   2708289.535 9
  21312314.114     1896867.220 7   1461322.114 9
  23493203.403    -4820547.023 6  -3645097.370 9
  20694424.380    -1417083.360 7  -1083480.671 9
 94  3 23 20 55  0.0010000  0  6 31  2 18 19  7 27
  23488192.817     2437088.389 6   1841637.126 9
  21943167.450    -2473008.970 7  -1895198.569 9
  23569850.138     3693086.625 6   2802981.962 9
  21320275.575     1938706.270 7   1493923.952 9
  23476774.091    -4906882.933 6  -3712371.997 9
  20693091.724    -1424086.377 7  -1088937.576 9
 94  3 23 20 55 30.0010000  0  6 31  2 18 19  7 27
  23507091.278     2536399.766 6   1919022.543 9
  21939518.935    -2492181.385 7  -1910138.077 9
  23593000.614     3814745.248 6   2897780.689 9
  21328293.161     1980836.583 7   1526752.743 9
  23460377.771    -4993048.106 6  -3779513.542 9
  20691819.255    -1430772.605 7  -1094147.627 9
 94  3 23 20 56  0.0010000  0  6 31  2 18 19  7 27
  23526057.177     2636061.787 6   1996681.211 9
  21935912.583    -2511132.527 7  -1924905.166 9
  23616173.263     3936514.798 6   2992665.841 9
  21336364.778     2023253.763 7   1559805.065 9
  23444014.372    -5079039.696 6  -3846519.830 9
  20690609.364    -1437131.486 7  -1099102.604 9
 94  3 23 20 56 30.0010000  0  6 31  2 18 19  7 27
  23545084.583     2736051.731 6   2074595.395 9
  21932350.310    -2529853.210 7  -1939492.681 9
  23639365.130     4058389.838 6   3087633.188 9
  21344490.903     2065956.415 7   1593079.835 9
  23427685.341    -5164849.543 6  -3913384.511 9
  20689460.794    -1443166.396 7  -1103805.137 9
 94  3 23 20 57  0.0010000  0  6 31  2 18 19  7 27
  23564171.255     2836355.418 6   2152754.028 9
  21928833.966    -2548329.986 7  -1953890.138 9
  23662579.528     4180380.784 6   3182690.837 9
  21352670.106     2108940.382 7   1626573.807 9
  23411391.005    -5250476.311 6  -3980106.512 9
  20688373.153    -1448882.822 7  -1108259.494 9
 94  3 23 20 57 30.0010000  0  6 31  2 18 19  7 27
  23583320.474     2936981.079 6   2231163.577 9
  21925363.349    -2566568.982 7  -1968102.310 9
  23685821.497     4302512.952 6   3277858.544 9
  21360901.521     2152196.118 7   1660279.545 9
  23395134.419    -5335902.728 6  -4046672.375 9
  20687342.528    -1454299.324 7  -1112480.144 9
 94  3 23 20 58  0.0010000  0  6 31  2 18 19  7 27
  23602529.177     3037923.683 6   2309820.082 9
  21921934.013    -2584590.111 7  -1982144.725 9
  23709091.083     4424799.594 6   3373146.615 9
  21369180.146     2195701.292 7   1694179.654 9
  23378916.591    -5421126.976 6  -4113080.722 9
  20686366.685    -1459426.380 7  -1116475.253 9
 94  3 23 20 58 30.0010000  0  6 31  2 18 19  7 27
  23621801.997     3139205.146 6   2388740.638 9
  21918547.372       -6500.362 7
  23732394.146     4547256.795 6   3468567.587 9
  21377506.817     2239456.859 7   1728274.870 9
  23362736.521      -31151.881 6
  20685445.216    -1464269.853 7  -1120249.388 9
 94  3 23 20 59  0.0010000  0  6 31  2 18 19  7 27
  23641146.310     3240858.137 6   2467950.690 9
  21915201.028      -24084.617 7     -4095.46019
  23755731.653     4669894.511 6   3564129.224 9
  21385883.950     2283478.612 7   1762577.506 9
  23346595.989     -115970.345 6     -2198.60619
  20684579.505    -1468817.829 7  -1123793.265 9
 94  3 23 20 59 30.0010000  0  6 31  2 18 19  7 27
  23660559.864     3342876.781 6   2547445.670 9
  21911890.935      -41478.972 7    -17649.477 9
  23779101.200     4792699.923 6   3659821.503 9
  21394313.927     2327778.970 7   1797097.239 9
  23330496.161     -200575.859 6    -68124.776 9
  20683769.067    -1473077.506 7  -1127112.494 9
 94  3 23 21  0  0.0010000  0  6 31  2 18 19  7 27
  23680041.810     3445257.593 6   2627222.842 9
  21908617.685      -58677.737 7    -31051.084 9
  23802499.013     4915656.761 6   3755631.811 9
  21402802.606     2372387.766 7   1831857.313 9
  23314434.372     -284981.366 6   -133895.129 9
  20683017.192    -1477028.973 7  -1130191.558 9
 94  3 23 21  0 30.0010000  0  6 31  2 18 19  7 27
  23699590.396     3547982.943 6   2707268.495 9
  21905384.263      -75673.595 7    -44294.585 9
  23825920.528     5038737.410 6   3851538.568 9
  21411353.185     2417321.327 7   1866870.447 9
  23298408.606     -369194.184 6   -199515.322 9
  20682322.200    -1480680.448 7  -1133036.858 9
 94  3 23 21  1  0.0010000  0  5 31 18 19  7 27
  23719201.427     3651038.485 6   2787571.436 9
  23849362.192     5161924.501 5   3947528.274 9
  21419966.653     2462583.153 7   1902139.370 9
  23282420.567     -453210.737 6   -264982.568 9
  20681689.013    -1484006.736 7  -1135628.767 9
 94  3 23 21  1 30.0010000  0  5  2 18 19  7 27
  21899039.294      -12668.45817
  23872825.146     5285222.179 5   4043604.144 9
  21428643.224     2508179.890 7   1937669.265 9
  23266470.638     -537027.396 6   -330294.077 9
  20681122.013    -1486987.884 7  -1137951.740 9
 94  3 23 21  2  0.0010000  0  6 31  2 18 19  7 27
  23758612.067      100264.667 6        -2.84619
  21895934.677      -28982.614 7     -8878.74119
  23896310.481     5408636.451 5   4139770.848 9
  21437381.794     2554101.367 7   1973452.210 9
  23250557.325     -620648.756 6   -395453.402 9
  20680621.349    -1489618.529 7  -1140001.588 9
 94  3 23 21  2 30.0010000  0  6 31  2 18 19  7 27
  23778417.083      204339.918 6     81094.672 9
  21892877.794      -45047.429 7    -21396.746 9
  23919821.286     5532183.813 6   4236041.265 9
  21446179.427     2600333.143 7   2009476.936 9
  23234687.450     -704047.110 6   -460438.957 9
  20680190.825    -1491880.738 7  -1141764.346 9
 94  3 23 21  3  0.0010000  0  6 31  2 18 19  7 27
  23798288.388      308763.233 6    162463.409 9
  21889868.216      -60860.309 7    -33718.447 9
  23943360.544     5655879.316 6   4332427.086 9
  21455034.356     2646866.634 7   2045736.762 9
  23218859.255     -787223.273 6   -525251.387 9
  20679829.146    -1493781.448 7  -1143245.424 9
 94  3 23 21  3 30.0010000  0  6 31  2 18 19  7 27
  23818226.575      413541.597 6    244108.803 9
  21886906.856      -76423.923 7    -45845.911 9
  23966929.442     5779739.564 5   4428941.316 9
  21463948.317     2693709.102 7   2082237.346 9
  23203078.333     -870153.138 6   -589871.906 9
  20679532.872    -1495337.403 7  -1144457.853 9
 94  3 23 21  4  0.0010000  0  6 31  2 18 19  7 27
  23838231.427      518670.075 6    326027.000 9
  21883988.302      -91761.132 7    -57796.961 9
  23990527.989     5903749.463 5   4525572.152 9
  21472917.356     2740841.511 7   2118963.858 9
  23187343.958     -952835.997 6   -654299.975 9
  20679298.224    -1496569.753 7  -1145418.132 9
 94  3 23 21  4 30.0010000  0  6 31  2 18 19  7 27
  23858301.419      624133.881 6    408206.506 9
  21881113.521     -106868.680 7    -69569.048 9
  24014151.169     6027887.383 5   4622302.723 9
  21481940.606     2788257.931 7   2155911.678 9
  23171657.458    -1035270.430 6   -718534.469 9
  20679123.794    -1497486.882 7  -1146132.787 9
 94  3 23 21  5  0.0010000  0  6 31  2 18 19  7 27
  23878432.341      729920.743 6    490637.753 9
  21878281.731     -121749.874 7    -81164.760 9
  24037796.333     6152145.954 5   4719127.267 9
  21491020.481     2835974.376 7   2193093.284 9
  23156018.958    -1117449.946 6   -782570.326 9
  20679007.271    -1498100.062 7  -1146610.591 9
 94  3 23 21  5 30.0010000  0  6 31  2 18 19  7 27
  23898625.333      836038.717 6    573326.984 9
  21875489.997     -136419.180 7    -92595.357 9
  24061461.942     6276503.816 5   4816029.274 9
  21500158.200     2883991.523 7   2230509.203 9
  23140430.036    -1199371.123 6   -846404.879 9
  20678951.052    -1498395.257 7  -1146840.616 9
 94  3 23 21  6  0.0010000  0  6 31  2 18 19  7 27
  23918878.044      942464.073 6    656255.728 9
  21872738.630     -150878.312 7   -103862.182 9
  24085142.356     6400944.806 5   4912995.953 9
  21509351.419     2932303.557 7   2268154.908 9
  23124885.474    -1281060.274 6   -910058.653 9
  20678956.958    -1498363.563 7  -1146815.920 9
 94  3 23 21  6 30.0010000  0  6 31  2 18 19  7 27
  23939183.645     1049171.116 6    739403.999 9
  21870027.536     -165125.237 7   -114963.649 9
  24108836.356     6525459.766 5   5010020.367 9
  21518603.153     2980920.957 7   2306038.563 9
  23109383.474    -1362520.722 6   -973534.223 9
  20679027.638    -1497990.723 7  -1146525.399 9
 94  3 23 21  7  0.0010000  0  6 31  2 18 19  7 27
  23959541.208     1156151.529 6    822765.270 9
  21867354.544     -179170.532 7   -125908.007 9
  24132545.935     6650051.796 5   5107104.789 9
  21527914.106     3029850.084 7   2344165.118 9
  23093923.841    -1443762.308 6  -1036839.259 9
  20679166.489    -1497262.966 7  -1145958.316 9
 94  3 23 21  7 30.0010000  0  6 31  2 18 19  7 27
  23979950.208     1263401.728 6    906336.762 9
  21864718.856     -193020.300 7   -136700.001 9
  24156269.310     6774719.191 5   5204247.938 9
  21537282.192     3079080.288 7   2382526.281 9
  23078503.145    -1524794.404 6  -1099981.062 9
  20679373.825    -1496172.252 7  -1145108.411 9
 94  3 23 21  8  0.0010000  0  6 31  2 18 19  7 27
  24000408.927     1370910.216 6    990109.505 9
  21862123.005     -206663.126 7   -147330.737 9
  24180008.856     6899465.330 5   5301452.446 9
  21546706.052     3128601.827 7   2421114.453 9
  23063123.833    -1605611.954 6  -1162955.690 9
  20679648.622    -1494729.162 7  -1143983.927 9
 94  3 23 21  8 30.0010000  0  6 31  2 18 19  7 27
  24020919.356     1478693.226 6   1074096.182 9
  21859565.630     -220100.890 7   -157801.699 9
  24203763.919     7024298.946 5   5398725.068 9
  21556186.302     3178421.770 7   2459935.150 9
  23047789.520    -1686191.095 6  -1225744.532 9
  20679987.567    -1492949.329 7  -1142597.045 9
 94  3 23 21  9  0.0010000  0  6 31  2 18 19  7 27
  24041484.552     1586768.360 6   1158310.500 9
  21857046.614     -233339.010 7   -168117.080 9
  24227537.364     7149229.285 5   5496073.092 9
  21565723.021     3228536.990 7   2498985.939 9
  23032502.552    -1766527.635 6  -1288344.327 9
  20680385.981    -1490853.849 7  -1140964.205 9
 94  3 23 21  9 30.0010000  0  6 31  2 18 19  7 27
  24062109.177     1695147.439 6   1242761.633 9
  21854567.177     -246369.252 7   -178270.489 9
  24251329.958     7274258.443 5   5593498.111 9
  21575315.903     3278947.974 7   2538267.191 9
  23017264.255    -1846608.419 6  -1350744.833 9
  20680841.755    -1488457.656 7  -1139097.044 9
 94  3 23 21 10  0.0010000  0  6 31  2 18 19  7 27
  24082795.536     1803853.018 6   1327467.180 9
  21852131.669     -259167.449 7   -188243.083 9
  24275143.606     7399395.461 5   5691007.153 9
  21584969.950     3329678.777 7   2577797.660 9
  23002077.317    -1926416.641 6  -1412932.962 9
  20681356.231    -1485756.459 7  -1136992.216 9
 94  3 23 21 10 30.0010000  0  6 31  2 18 19  7 27
  24103543.677     1912886.625 5   1412428.325 9
  21849736.544     -271754.499 7   -198051.150 9
  24298975.474     7524637.280 5   5788597.896 9
  21594687.114     3380743.198 7   2617588.083 9
  22986943.091    -2005947.551 6  -1474904.995 9
  20681931.560    -1482732.305 7  -1134635.738 9
 94  3 23 21 11  0.0010000  0  6 31  2 18 19  7 27
  24124352.380     2022236.327 6   1497635.803 9
  21847383.263     -284120.235 7   -207686.758 9
  24322826.755     7649970.678 5   5886259.954 9
  21604466.458     3432135.052 7   2657633.658 9
  22971858.896    -2085213.952 6  -1536670.930 9
  20682574.044    -1479356.056 7  -1132004.893 9
 94  3 23 21 11 30.0010000  0  6 31  2 18 19  7 27
  24145218.224     2131892.200 6   1583081.865 9
  21845074.700     -296252.005 7   -217140.061 9
  24346695.521     7775398.419 5   5983995.518 9
  21614310.599     3483864.560 7   2697942.337 9
  22956827.708    -2164204.370 6  -1598221.801 9
  20683289.021    -1475597.494 7  -1129076.147 9
 94  3 23 21 12  0.0010000  0  6 31  2 18 19  7 27
  24166142.013     2241842.264 6   1668757.146 9
  21842809.317     -308156.588 7   -226416.341 9
  24370580.552     7900918.690 5   6081803.204 9
  21624218.442     3535930.962 7   2738513.534 9
  22941849.653    -2242914.485 6  -1659554.249 9
  20684080.552    -1471439.540 7  -1125836.184 9
 94  3 23 21 12 30.0010000  0  6 31  2 18 19  7 27
  24187117.481     2352071.865 5   1754650.202 9
  21840586.177     -319839.482 8   -235519.874 9
  24394486.013     8026540.914 5   6179690.340 9
  21634189.005     3588326.083 7   2779340.876 9
  22926923.708    -2321346.648 6  -1720670.111 9
  20684950.427    -1466868.912 7  -1122274.657 9
 94  3 23 21 13  0.0010000  0  6 31  2 18 19  7 27
  24208150.575     2462599.702 5   1840775.680 9
  21838411.216     -331269.704 7   -244426.532 9
  24418413.521     8152278.319 5   6277667.198 9
  21644222.052     3641050.842 7   2820425.076 9
  22912052.802    -2399495.295 6  -1781565.058 9
  20685898.927    -1461884.754 7  -1118390.900 9
 94  3 23 21 13 30.0010000  0  6 31  2 18 19  7 27
  24229243.856     2573436.609 6   1927142.042 9
  21836282.528     -342455.214 8   -253142.497 9
  24442365.075     8278143.433 5   6375743.619 9
  21654318.247     3694106.538 7   2861767.160 9
  22897239.942    -2477338.353 6  -1842221.873 9
  20686923.786    -1456497.864 7  -1114193.328 9
 94  3 23 21 14  0.0010000  0  6 31  2 18 19  7 27
  24250392.778     2684587.006 5   2013752.661 9
  21834199.692     -353401.096 7   -261671.740 9
  24466337.583     8404118.189 5   6473905.408 9
  21664475.263     3747482.378 7   2903358.704 9
  22882485.302    -2554874.697 6  -1902639.685 9
  20688024.224    -1450715.511 7  -1109687.605 9
 94  3 23 21 14 30.0010000  0  6 31  2 18 19  7 27
  24271606.083     2796058.335 5   2100613.281 9
  21832163.700     -364099.207 7   -270007.906 9
  24490329.419     8530197.686 5   6572148.870 9
  21674693.388     3801177.734 7   2945199.215 9
  22867791.060    -2632093.728 6  -1962810.243 9
  20689199.419    -1444538.865 7  -1104874.642 9
 94  3 23 21 15  0.0010000  0  6 31  2 18 19  7 27
  24292880.302     2907854.794 5   2187727.284 9
  21830178.731     -374531.210 8   -278136.722 9
  24514339.833     8656377.609 5   6670470.562 9
  21684976.325     3855214.106 7   2987305.445 9
  22853161.661    -2708970.554 6  -2022714.159 9
  20690449.677    -1437968.686 7  -1099755.030 9
 94  3 23 21 15 30.0010000  0  6 31  2 18 19  7 27
  24314212.802     3019960.195 5   2275082.082 9
  21828243.646     -384699.793 8   -286060.275 9
  24538370.497     8782652.046 5   6768865.930 9
  21695326.927     3909609.156 7   3029691.167 9
  22838599.263    -2785497.594 6  -2082345.496 9
  20691775.927    -1431000.118 7  -1094324.981 9
 94  3 23 21 16  0.0010000  0  6 31  2 18 19  7 27
  24335602.599     3132362.040 5   2362667.830 9
  21826361.294     -394592.189 8   -293768.618 9
  24562416.364     8909014.319 5   6867329.685 9
  21705749.396     3964378.919 7   3072368.875 9
  22824102.849    -2861677.141 6  -2141706.073 9
  20693179.271    -1423626.016 7  -1088578.938 9
 94  3 23 21 16 30.0010000  0  6 31  2 18 19  7 27
  24357047.646     3245056.009 5   2450481.168 9
  21824532.224     -404203.909 8   -301258.258 9
  24586482.872     9035480.846 5   6965874.712 9
  21716247.458     4019546.273 7   3115356.388 9
  22809671.419    -2937509.914 6  -2200796.438 9
  20694663.013    -1415828.137 7  -1082502.678 9
 94  3 23 21 17  0.0010000  0  6 31  2 18 19  7 27
  24378545.880     3358027.985 5   2538511.165 9
  21822751.575     -413559.905 8   -308548.624 9
  24610565.239     9162032.787 5   7064486.288 9
  21726820.341     4075107.312 7   3158650.668 9
  22795302.200    -3013018.811 6  -2259634.423 9
  20696226.513    -1407611.206 7  -1076099.884 9
 94  3 23 21 17 30.0010000  0  6 31  2 18 19  7 27
  24400092.825     3471259.566 5   2626743.472 9
  21821012.817     -422698.873 8   -315669.884 9
  24634660.122     9288651.316 5   7163149.761 9
  21737461.614     4131026.066 7   3202223.680 9
  22780991.036    -3088222.533 6  -2318234.609 9
  20697869.419    -1398979.536 7  -1069373.913 9
 94  3 23 21 18  0.0010000  0  6 31  2 18 19  7 27
  24421690.677     3584761.463 5   2715186.413 9
  21819312.114     -431634.736 8   -322632.882 9
  24658767.294     9415336.067 5   7261864.821 9
  21748167.856     4187289.215 7   3246065.055 9
  22766738.786    -3163121.529 6  -2376597.338 9
  20699591.114    -1389932.187 7  -1062324.032 9
 94  3 23 21 18 30.0010000  0  6 31  2 18 19  7 27
  24443338.021     3698509.797 5   2803821.390 9
  21817643.450     -440402.821 8   -329465.141 9
  24682881.755     9542056.566 5   7360607.745 9
  21758933.294     4243861.057 7   3290146.963 9
  22752539.544    -3237741.888 7  -2434742.951 9
  20701385.333    -1380502.240 7  -1054976.025 9
 94  3 23 21 19  0.0010000  0  6 31  2 18 19  7 27
  24465029.106     3812498.545 5   2892643.694 9
  21816006.599     -449004.334 7   -336167.607 9
  24707000.817     9668803.900 5   7459371.536 9
  21769751.341     4300709.932 7   3334444.751 9
  22738392.669    -3312081.418 6  -2492669.740 9
  20703246.536    -1370721.844 7  -1047354.934 9
 94  3 23 21 19 30.0010000  0  6 31  2 18 19  7 27
  24486762.810     3926714.671 5   2981643.117 9
  21814402.966     -457431.055 8   -342733.865 9
  24731125.911     9795579.796 5   7558157.658 9
  21780620.950     4357829.916 7   3378953.788 9
  22724301.364    -3386130.789 6  -2550370.437 9
  20705172.231    -1360601.078 7  -1039468.619 9
 94  3 23 21 20  0.0010000  0  7 31  2 26 18 19  7 27
  24508539.825     4041155.929 5   3070818.017 9
  21812837.755     -465657.933 8   -349144.407 9
  24884322.536      -25347.417 5
  24755255.560     9922383.595 5   7656965.436 9
  21791545.474     4415238.131 7   3423687.422 9
  22710265.544    -3459889.288 6  -2607844.494 9
  20707162.067    -1350144.914 7  -1031320.962 9
 94  3 23 21 20 30.0010000  0  7 31  2 26 18 19  7 27
  24530360.841     4155819.706 5   3160166.321 9
  21811315.067     -473658.074 8   -355378.272 9
  24871198.239      -11474.16915
  24779391.966    10049216.052 5   7755795.598 9
  21802525.622     4472940.244 7   3468650.070 9
  22696286.560    -3533350.563 6  -2665086.944 9
  20709216.567    -1339350.126 7  -1022909.439 9
 94  3 23 21 21  0.0010000  0  7 31  2 26 18 19  7 27
  24552224.505     4270711.694 5   3249692.466 9
  21809838.114     -481419.704 8   -361426.283 9
  24858120.021      -80200.314 5    -10695.39119
  24803535.661    10176086.957 5   7854655.706 9
  21813563.435     4530943.931 7   3513847.707 9
  22682364.763    -3606506.064 6  -2722091.135 9
  20711338.130    -1328199.698 7  -1014220.795 9
 94  3 23 21 21 30.0010000  0  7 31  2 26 18 19  7 27
  24574129.599       42231.503 5
  21808405.130     -488952.265 8   -367295.804 9
  24845084.317     -148706.278 5    -64076.630 9
  24827683.888    10302988.398 5   7953539.594 9
  21824662.146     4589267.230 7   3559294.396 9
  22668502.622    -3679352.530 6  -2778854.516 9
  20713529.356    -1316684.977 7  -1005248.288 9
 94  3 23 21 22  0.0010000  0  7 31  2 26 18 19  7 27
  24596078.841      157576.307 5     50950.13619
  21807012.911     -496266.558 8   -372995.247 9
  24832095.333     -216963.036 5   -117263.690 9
  24851835.958    10429911.168 5   8052440.120 8
  21835820.044     4647902.593 7   3604984.251 9
  22654697.231    -3751900.055 6  -2835384.965 9
  20715789.177    -1304809.986 7   -995995.057 9
 94  3 23 21 22 30.0010000  0  7 31  2 26 18 19  7 27
  24618073.817      273161.266 5    141016.257 9
  21805659.138     -503381.747 8   -378539.537 9
  24819162.505     -284924.583 5   -170220.720 8
  24875997.864    10556878.005 5   8151374.951 9
  21847038.169     4706853.815 7   3650920.230 9
  22640949.302    -3824143.795 6  -2891678.698 9
  20718119.028    -1292565.913 7   -986454.229 9
 94  3 23 21 23  0.0010000  0  6 31  2 26 19  7 27
  24640111.497      388966.132 5    231253.683 9
  21804335.106     -510338.178 7   -383960.123 9
  24806287.403     -352583.776 5   -222942.169 9
  21858313.724     4766107.505 7   3697091.900 9
  22627258.739    -3896089.981 6  -2947740.578 9
  20720517.458    -1279962.249 7   -976633.203 9
 94  3 23 21 23 30.0010000  0  6 31  2 26 19  7 27
  24662187.771      504974.491 5    321649.697 9
  21803037.755     -517157.187 8   -389273.623 9
  24793472.810     -419927.035 5   -275417.402 7
  21869645.935     4825658.478 7   3743495.228 9
  22613622.786    -3967744.866 6  -3003575.472 9
  20722984.599    -1266997.006 7   -966530.423 9
 94  3 23 21 24  0.0010000  0  6 31  2 26 19  7 27
  24684299.536      621172.760 5    412193.726 9
  21801764.044     -523849.373 8   -394488.304 9
  24780719.521     -486945.671 4   -327639.672 7
  21881032.505     4885494.778 7   3790120.886 9
  22600043.138    -4039110.891 7  -3059185.278 9
  20725522.427    -1253662.098 7   -956139.598 9
 94  3 23 21 24 30.0010000  0  6 31  2 26 19  7 27
  24706441.778      737539.919 5    502869.347 9
  21800516.286     -530406.636 8   -399597.848 9
  24768023.888     -553658.429 4   -379623.618 7
  21892473.622     4945619.055 7   3836970.937 9
  22586519.075    -4110176.713 6  -3114561.172 9
  20728132.177    -1239947.236 7   -945452.705 9
 94  3 23 21 25  0.0010000  0  6 31  2 26 19  7 27
  24728615.489      854055.691 5    593660.715 9
  21799296.739     -536815.705 8   -404591.914 9
  24755382.653     -620089.698 5   -431388.236 8
  21903969.724     5006031.808 7   3884045.774 9
  22573053.427    -4180938.289 6  -3169699.985 9
  20730815.817    -1225844.563 7   -934463.621 9
 94  3 23 21 25 30.0010000  0  6 31  2 26 19  7 27
  24750815.231      970712.404 5    684561.943 9
  21798107.739     -543063.487 8   -409460.302 9
  24742789.802     -686261.771 5   -482950.865 9
  21915521.153     5066735.401 7   3931347.239 9
  22559645.138    -4251402.193 6  -3224606.846 9
  20733572.599    -1211356.656 7   -923174.353 9
 94  3 23 21 26  0.0010000  0  5  2 26 19  7 27
  21796955.856     -549115.621 7   -414176.240 9
  24730246.458     -752178.695 5   -534314.656 9
  21927129.817     5127738.387 7   3978881.991 9
  22546294.239    -4321556.841 6  -3279272.733 9
  20736401.396    -1196492.389 7   -911591.817 9
 94  3 23 21 26 30.0010000  0  5  2 26 19  7 27
  21795844.239     -554958.462 8   -418729.089 9
  24717751.567     -817841.943 5   -585480.803 9
  21938797.950     5189053.829 7   4026660.218 9
  22533003.606    -4391406.145 7  -3333700.679 9
  20739301.489    -1181252.413 7   -899716.522 9
 94  3 23 21 27  0.0010000  0  5  2 26 19  7 27
  21794770.310     -560601.220 7   -423126.033 9
  24705305.505     -883246.096 5   -636445.064 9
  21950525.185     5250680.723 7   4074681.138 9
  22519767.950    -4460951.910 6  -3387892.121 9
  20742272.763    -1165637.805 7   -887549.311 9
 94  3 23 21 27 30.0010000  0  5  2 26 19  7 27
  21793733.286     -566049.999 8   -427371.818 9
  24692912.067     -948375.081 5   -687194.880 9
  21962311.747     5312618.470 7   4122944.275 9
  22506593.294    -4530189.719 7  -3441843.582 9
  20745314.005    -1149656.018 7   -875095.980 9
 94  3 23 21 28  0.0010000  0  6 15  2 26 19  7 27
  24738688.614      -37999.785 5
  21792731.981     -571314.051 8   -431473.659 9
  24680577.411    -1013195.612 5   -737704.352 9
  21974156.638     5374864.905 7   4171447.952 9
  22493476.849    -4599119.383 7  -3495554.928 9
  20748426.513    -1133300.559 7   -862351.477 9
 94  3 23 21 28 30.0010000  0  6 15  2 26 19  7 27
  24731263.138      -77016.870 5
  21791762.263     -576408.770 7   -435443.554 9
  24668306.278    -1077682.512 5   -787953.835 9
  21986061.060     5437423.252 7   4220194.676 9
  22480419.771    -4667728.296 6  -3549016.354 9
  20751614.263    -1116548.079 7   -849297.604 9
 94  3 23 21 29  0.0010000  0  6 15  2 26 19  7 27
  24723897.013     -115732.625 5    -27139.78219
  21790824.427     -581336.859 7   -439283.604 9
  24656099.106    -1141827.170 5   -837936.655 9
  21998023.708     5500287.125 7   4269179.469 9
  22467426.606    -4736012.965 7  -3602225.103 9
  20754877.380    -1099401.215 7   -835936.414 9
 94  3 23 21 29 30.0010000  0  6 15  2 26 19  7 27
  24716587.575     -154140.389 5    -57067.779 9
  21789922.903     -586073.866 7   -442974.764 9
  24643959.841    -1205619.742 5   -887645.124 9
  22010045.724     5563461.881 7   4318406.507 9
  22454494.614    -4803965.448 6  -3655175.018 9
  20758217.325    -1081849.720 7   -822259.934 9
 94  3 23 21 30  0.0020000  0  6 15  2 26 19  7 27
  24709337.518     -192234.756 5    -86751.566 8
  21789059.885     -590609.449 7   -446508.970 9
  24631886.908    -1269066.239 5   -937083.907 9
  22022126.963     5626949.052 7   4367876.991 9
  22441629.049    -4871578.752 7  -3707860.623 9
  20761636.580    -1063880.407 7   -808257.878 9
 94  3 23 21 30 30.0020000  0  6 15  2 26 19  7 27
  24702150.088     -230006.101 5   -116183.688 9
  21788236.494     -594935.644 7   -449880.018 9
  24619878.096    -1332170.996 5   -986256.415 9
  22034267.729     5690750.031 7   4417592.002 9
  22428832.603    -4938826.536 7  -3760261.416 9
  20765135.268    -1045493.725 7   -793930.601 9
 94  3 23 21 31  0.0020000  0  6 15  2 26 19  7 27
  24695023.205     -267454.645 5   -145364.255 9
  21787453.580     -599051.139 7   -453086.888 9
  24607932.955    -1394942.528 5  -1035169.269 9
  22046469.205     5754867.338 7   4467553.498 9
  22416103.877    -5005707.012 6  -3812376.010 9
  20768712.143    -1026698.469 7   -779284.956 9
 94  3 23 21 31 30.0020000  0  6 15  2 26 19  7 27
  24687960.682     -304569.398 5   -174284.742 9
  21786709.658     -602960.442 8   -456133.085 9
  24596053.979    -1457368.052 5  -1083812.516 9
  22058731.869     5819308.699 7   4517767.503 9
  22403451.025    -5072206.863 7  -3864193.986 9
  20772368.361    -1007483.351 7   -764312.148 9
 94  3 23 21 32  0.0020000  0  6 15  2 26 19  7 27
  24680962.768     -341351.373 5   -202945.904 9
  21786000.260     -606688.310 7   -459037.903 9
  24584242.049    -1519440.308 5  -1132180.474 9
  22071056.018     5884073.562 7   4568233.590 9
  22390869.064    -5138323.624 7  -3915713.460 9
  20776101.830     -987864.530 7   -749024.768 9
 94  3 23 21 32 30.0020000  0  6 15  2 26 19  7 27
  24674028.018     -377788.802 5   -231338.613 9
  21785327.627     -610222.144 7   -461791.526 9
  24572500.205    -1581145.698 5  -1180262.570 9
  22083445.846     5949180.331 7   4618966.092 9
  22378361.322    -5204046.840 7  -3966926.283 9
  20779912.010     -967841.928 7   -733422.749 9
 94  3 23 21 33  0.0020000  0  6 15  2 26 19  7 27
  24667160.713     -413877.036 5   -259459.222 9
  21784693.869     -613553.229 8   -464387.164 9
  24560828.572    -1642479.193 5  -1228054.876 9
  22095901.580     6014635.854 7   4669970.346 9
  22365929.775    -5269379.708 7  -4017834.919 9
  20783800.596     -947407.051 7   -717499.480 9
 94  3 23 21 33 30.0020000  0  6 15  2 26 19  7 27
  24660359.650     -449614.114 5   -287306.216 9
  21784099.939     -616674.943 7   -466819.655 9
  24549227.182    -1703444.848 5  -1275560.546 9
  22108424.354     6080445.707 7   4721250.703 9
  22353571.885    -5334321.096 7  -4068438.519 9
  20787768.674     -926554.417 7   -701250.684 9
 94  3 23 21 34  0.0020000  0  6 15  2 26 19  7 27
  24653626.588     -484998.502 5   -314878.406 9
  21783548.244     -619573.450 7   -469078.217 9
  24537694.416    -1764049.624 5  -1322785.042 9
  22121014.971     6146606.815 7   4772804.765 9
  22341287.744    -5398870.964 7  -4118737.039 9
  20791816.791     -905283.795 7   -684676.185 9
 94  3 23 21 34 30.0020000  0  6 15  2 26 19  7 27
  24646959.213     -520033.303 5   -342178.158 9
  21783038.361     -622253.036 7   -471166.200 9
  24526229.775    -1824297.242 5  -1369731.193 9
  22133671.814     6213120.854 7   4824633.836 9
  22329077.291    -5463038.567 7  -4168737.683 9
  20795946.197     -883583.272 7   -667766.695 9
 94  3 23 21 35  0.0020000  0  6 15  2 26 19  7 27
  24640357.885     -554721.383 5   -369207.749 9
  21782566.385     -624732.858 7   -473098.516 9
  24514833.236    -1884185.700 5  -1416397.479 9
  22146393.994     6279976.724 7   4876729.269 9
  22316935.330    -5526844.235 7  -4218456.302 9
  20800156.963     -861455.747 7   -650524.481 9
 94  3 23 21 35 30.0020000  0  6 15  2 26 19  7 27
  24633822.955     -589063.761 5   -395967.980 9
  21782129.385     -627030.269 8   -474888.696 9
  24503505.885    -1943712.096 5  -1462781.672 9
  22159179.939     6347165.252 7   4929083.921 9
  22304860.838    -5590295.932 7  -4267899.093 9
  20804445.939     -838915.806 7   -632960.901 9
 94  3 23 21 36  0.0020000  0  6 15  2 26 19  7 27
  24627354.541     -623056.776 5   -422456.000 9
  21781724.736     -629155.637 7   -476544.815 9
  24492248.791    -2002866.219 5  -1508875.759 9
  22172028.580     6414685.804 7   4981697.287 9
  22292853.229    -5653396.595 7  -4317068.355 9
  20808813.072     -815967.170 7   -615078.855 9
 94  3 23 21 36 30.0020000  0  6 15  2 26 19  7 27
  24620951.932     -656701.692 5   -448672.733 9
  21781350.729     -631120.522 8   -478075.879 9
  24481062.447    -2061650.569 5  -1554681.693 9
  22184940.768     6482540.160 7   5034570.764 9
  22280911.838    -5716147.284 7  -4365964.921 9
  20813256.619     -792616.997 7   -596883.930 9
 94  3 23 21 37  0.0020000  0  6 15  2 26 19  7 27
  24614614.963     -690004.702 5   -474623.071 9
  21781006.338     -632931.462 7   -479486.989 9
  24469941.400    -2120088.485 5  -1600217.692 9
  22197912.471     6550706.148 7   5087687.073 9
  22269037.721    -5778546.621 7  -4414587.692 9
  20817773.932     -768876.531 7   -578384.875 9
 94  3 23 21 37 30.0020000  0  6 15  2 26 19  7 27
  24608342.627     -722962.807 5   -500304.641 9
  21780692.643     -634580.219 8   -480771.726 9
  24458885.736    -2178185.609 5  -1645488.120 9
  22210942.119     6619178.304 7   5141041.953 9
  22257234.580    -5840571.745 7  -4462918.879 9
  20822367.877     -744736.239 7   -559574.274 9
 94  3 23 21 38  0.0020000  0  6 15  2 26 19  7 27
  24602137.713     -755573.461 5   -525715.458 9
  21780412.611     -636049.049 7   -481916.256 9
  24447894.166    -2235950.042 5  -1690499.363 9
  22224029.424     6687951.569 7   5194631.455 9
  22245503.424    -5902218.498 7  -4510955.233 9
  20827040.182     -720183.394 7   -540442.195 9
 94  3 23 21 38 30.0020000  0  6 15  2 26 19  7 27
  24595997.174     -787839.938 5   -550858.079 9
  21780167.596     -637336.985 7   -482919.834 9
  24436960.916    -2293400.972 5  -1735266.281 9
  22237170.260     6757006.821 7   5248440.695 9
  22233844.291    -5963486.622 7  -4558696.549 9
  20831789.893     -695221.928 7   -520991.717 9
 94  3 23 21 39  0.0020000  0  6 15  2 26 19  7 27
  24589922.775     -819762.424 5   -575732.651 9
  21779956.877     -638445.013 8   -483783.223 9
  24426087.088    -2350547.520 5  -1779796.058 9
  22250360.846     6826324.852 7   5302454.704 9
  22222256.877    -6024379.421 7  -4606145.413 9
  20836617.603     -669853.466 7   -501224.096 9
 94  3 23 21 39 30.0020000  0  6 15  2 26 19  7 27
  24583912.830     -851345.885 5   -600343.084 9
  21779780.963     -639370.117 7   -484504.077 9
  24415272.174    -2407380.719 5  -1824081.658 9
  22263601.385     6895905.177 7   5356673.091 9
  22210736.518    -6084920.661 7  -4653320.325 9
  20841521.619     -644082.205 7   -481142.610 9
 94  3 23 21 40  0.0020000  0  6 15  2 26 19  7 27
  24577966.299     -882592.060 5   -624690.665 9
  21779638.260     -640119.768 7   -485088.215 9
  24404517.572    -2463895.941 5  -1868119.443 9
  22276893.268     6965751.469 7   5411098.729 9
  22199280.807    -6145119.982 7  -4700228.821 9
  20846501.228     -617915.692 7   -460753.132 9
 94  3 23 21 40 30.0020000  0  6 15  2 26 19  7 27
  24572084.736     -913499.496 5   -648774.277 9
  21779525.479     -640710.429 7   -485548.462 9
  24393826.150    -2520077.580 6  -1911897.342 9
  22290237.150     7035874.832 7   5465740.256 9
  22187891.572    -6204971.058 7  -4746865.952 9
  20851554.080     -591361.426 7   -440061.517 9
 94  3 23 21 41  0.0020000  0  6 15  2 26 19  7 27
  24566269.104     -944060.087 5   -672587.651 9
  21779443.674     -641142.149 7   -485884.858 9
  24383204.807    -2575894.125 6  -1955390.740 9
  22303638.994     7106301.699 7   5520618.277 9
  22176566.939    -6264480.441 7  -4793236.840 9
  20856684.463     -564401.405 7   -419053.724 9
 94  3 23 21 41 30.0020000  0  6 15  2 26 19  7 27
  24560519.963     -974267.159 5   -696125.516 9
  21779390.143     -641423.843 7   -486104.350 9
  24372659.283    -2631313.256 6  -1998574.453 9
  22317101.932     7177051.010 7   5575747.562 9
  22165308.307    -6323642.906 7  -4839337.403 9
  20861893.330     -537028.579 7   -397724.261 9
 94  3 23 21 42  0.0020000  0  6 15  2 26 19  7 27
  24554841.666    -1004113.776 5   -719382.506 9
  21779360.510     -641577.731 7   -486224.255 9
  24362188.986    -2686333.138 6  -2041447.070 9
  22330628.072     7248130.220 7   5631133.911 9
  22154120.682    -6382436.383 7  -4885150.440 9
  20867178.400     -509255.047 7   -376082.564 9
 94  3 23 21 42 30.0020000  0  6 15  2 26 19  7 27
  24549233.408    -1033583.013 5   -742345.446 9
  21779357.955     -641592.910 8   -486236.075 9
  24351799.471    -2740932.027 6  -2083991.657 9
  22344219.463     7319554.115 7   5686788.833 9
  22143004.510    -6440852.318 7  -4930669.292 9
  20872544.229     -481057.213 7   -354110.242 9
 94  3 23 21 43  0.0020000  0  6 15  2 26 19  7 27
  24543697.314    -1062670.919 5   -765011.248 9
  21779381.689     -641467.032 7   -486137.982 9
  24341489.994    -2795107.416 6  -2126206.206 9
  22357875.158     7391313.718 7   5742705.361 9
  22131958.588    -6498895.721 7  -4975897.871 9
  20877991.721     -452430.867 7   -331804.011 9
 94  3 23 21 43 30.0020000  0  6 15  2 26 19  7 27
  24538237.455    -1091365.849 5   -787370.836 9
  21779434.978     -641186.722 7   -485919.555 9
  24331260.471    -2848865.799 6  -2168095.846 9
  22371595.080     7463412.665 7   5798886.305 9
  22120989.314    -6556541.508 7  -5020816.610 9
  20883518.330     -423387.121 7   -309172.539 9
 94  3 23 21 44  0.0020000  0  6 15  2 26 19  7 27
  24532852.291    -1119664.691 5   -809421.769 9
  21779522.775     -640725.882 7   -485560.448 9
  24321106.924    -2902222.123 6  -2209672.186 9
  22385378.603     7535846.692 7   5855328.353 9
  22110094.916    -6613793.081 7  -5065428.178 9
  20889124.041     -393928.571 7   -286217.839 9
 94  3 23 21 44 30.0020000  0  6 15  2 26 19  7 27
  24527543.939    -1147556.684 5   -831155.669 9
  21779653.455     -640040.979 7   -485026.751 9
  24311032.268    -2955163.622 5  -2250925.255 9
  22399226.463     7608617.172 7   5912032.563 9
  22099275.541    -6670648.528 7  -5109731.076 9
  20894814.854     -364024.277 7   -262915.807 9
 94  3 23 21 45  0.0020000  0  6 15  2 26 19  7 27
  24522314.604    -1175043.153 5   -852573.616 9
  21779825.494     -639134.371 7   -484320.294 9
  24301032.103    -3007715.683 5  -2291874.884 9
  22413136.486     7681712.984 7   5968990.277 9
  22088534.455    -6727092.784 7  -5153713.569 9
  20900589.643     -333679.160 7   -239270.280 9
 94  3 23 21 45 30.0020000  0  6 15  2 26 19  7 27
  24517159.541    -1202128.896 5   -873679.299 9
  21780040.088     -638007.107 7   -483441.899 9
  24291101.924    -3059900.008 5  -2332537.989 9
  22427106.885     7755126.666 7   6026195.678 9
  22077873.424    -6783117.882 7  -5197369.442 9
  20906448.096     -302891.318 7   -215279.771 9
 94  3 23 21 46  0.0020000  0  6 15  2 26 19  7 27
  24512081.635    -1228812.708 5   -894471.745 9
  21780295.385     -636666.122 7   -482396.967 9
  24281241.299    -3111713.179 5  -2372911.834 9
  22441135.291     7828846.354 7   6083639.525 9
  22067293.002    -6838717.577 7  -5240693.834 9
  20912396.025     -271635.270 7   -190924.427 9
 94  3 23 21 46 30.0020000  0  6 15  2 26 19  7 27
  24507081.807    -1255089.694 5   -914947.254 9
  21780586.533     -635136.380 8   -481204.954 9
  24271451.471    -3163157.468 5  -2412998.267 9
  22455222.025     7902873.594 7   6141323.021 9
  22056796.260    -6893878.751 7  -5283676.522 9
  20918433.275     -239908.071 7   -166201.947 9
 94  3 23 21 47  0.0020000  0  6 15  2 26 19  7 27
  24502159.580    -1280952.924 5   -935100.324 9
  21780909.268     -633440.544 7   -479883.514 9
  24261733.119    -3214231.301 5  -2452796.037 9
  22469368.986     7977216.260 7   6199252.315 9
  22046385.143    -6948588.485 7  -5326307.432 9
  20924558.150     -207722.624 7   -141122.391 9
 94  3 23 21 47 30.0020000  0  6 15  2 26 19  7 27
  24497316.604    -1306405.546 5   -954933.444 9
  21781261.713     -631587.915 7   -478439.897 9
  24252089.408    -3264908.046 5  -2492284.374 9
  22483577.783     8051883.122 7   6257434.220 9
  22036056.572    -7002865.619 7  -5368601.250 9
  20930765.939     -175100.295 7   -115702.410 9
 94  3 23 21 48  0.0020000  0  6 15  2 26 19  7 27
  24492551.408    -1331446.662 5   -974445.923 9
  21781641.471     -629592.635 7   -476885.131 9
  24242524.322    -3315173.816 5  -2531452.486 9
  22497849.049     8126879.357 7   6315872.779 9
  22025806.611    -7056728.271 7  -5410572.096 9
  20937053.088     -142061.611 7    -89957.997 9
 94  3 23 21 48 30.0020000  0  6 15  2 26 19  7 27
  24487863.268    -1356080.168 5   -993640.793 9
  21782046.838     -627462.513 8   -475225.284 9
  24233037.096    -3365026.808 5  -2570298.954 9
  22512184.479     8202210.905 7   6374572.623 9
  22015633.604    -7110189.656 7  -5452230.268 9
  20943414.572     -108631.743 7    -63908.765 9
 94  3 23 21 49  0.0020000  0  6 15  2 26 19  7 27
  24483253.236    -1380302.333 5  -1012515.132 9
  21782480.299     -625183.373 7   -473449.326 9
  24223633.275    -3414445.773 5  -2608807.195 9
  22526582.830     8277874.736 7   6433531.393 9
  22005537.596    -7163243.093 7  -5493570.553 9
  20949852.447      -74800.340 7    -37546.652 9
 94  3 23 21 49 30.0020000  0  6 15  2 26 19  7 27
  24478723.064    -1404114.116 5  -1031069.695 9
  21782944.846     -622743.451 7   -471548.083 9
  24214313.299    -3463422.846 6  -2646971.148 9
  22541041.979     8353859.380 7   6492740.140 9
  21995517.322    -7215899.347 7  -5534601.352 9
  20956369.791      -40552.479 7    -10860.025 9
 94  3 23 21 50  0.0020000  0  6 15  2 26 19  7 27
  24474269.666    -1427513.785 5  -1049303.160 9
  21783441.424     -620134.402 7   -469515.050 9
  24205073.916    -3511976.318 6  -2684804.986 9
  22555559.080     8430146.299 7   6552184.432 9
  21985573.775    -7268152.315 7  -5575317.900 9
  20962971.080       -5861.467 7     16171.913 9
 94  3 23 21 50 30.0020000  0  6 15  2 26 19  7 27
  24469896.221    -1450497.550 5  -1067212.541 9
  21783973.689     -617336.883 7   -467335.166 9
  24195916.307    -3560101.486 6  -2722305.076 9
  22570131.682     8506727.179 7   6611857.778 9
  21975710.494    -7319983.719 7  -5615705.954 9
  20969660.385       29291.255 7     43563.624 9
 94  3 23 21 51  0.0020000  0  6 15  2 26 19  7 27
  24465601.674    -1473062.194 5  -1084795.323 9
  21784544.354     -614339.045 8   -464999.186 9
  24186840.682    -3607793.053 6  -2759467.345 9
  22584759.744     8583595.548 7   6671755.140 9
  21965926.471    -7371396.935 7  -5655768.157 9
  20976438.252       64907.615 7     71316.612 9
 94  3 23 21 51 30.0020000  0  6 15  2 26 19  7 27
  24461386.713      -12498.49515
  21785152.033     -611144.493 8   -462509.927 9
  24177845.275    -3655066.040 6  -2796303.400 9
  22599443.705       28325.332 7
  21956220.510    -7422405.793 7  -5695515.265 9
  20983301.439      100974.346 7     99420.537 9
 94  3 23 21 52  0.0020000  0  6 15  2 26 19  7 27
  24457253.877      -34220.550 5     -9550.16419
  21785795.174     -607765.028 7   -459876.572 9
  24168927.307    -3701929.056 6  -2832820.013 9
  22614187.002      105802.878 7     34239.51819
  21946593.533    -7472995.659 7  -5734935.896 9
  20990247.189      137474.075 7    127861.859 9
 94  3 23 21 52 30.0020000  0  6 15  2 26 19  7 27
  24453201.478      -55514.403 5    -26142.702 9
  21786471.604     -604208.606 7   -457105.335 9
  24160088.338    -3748374.773 6  -2869011.464 9
  22628992.213      183605.527 6     94864.888 9
  21937046.010    -7523165.402 7  -5774029.156 9
  20997270.604      174383.610 7    156622.511 9
 94  3 23 21 53  0.0020000  0  6 15  2 26 19  7 27
  24449233.619      -76370.033 5    -42393.792 9
  21787179.588     -600489.007 7   -454206.941 9
  24151331.291    -3794397.198 6  -2904873.074 9
  22643862.846      261748.860 6    155755.729 9
  21927580.221    -7572909.893 7  -5812791.048 9
  21004373.213      211706.856 7    185705.532 9
 94  3 23 21 53 30.0020000  0  6 15  2 26 19  7 27
  24445348.088      -96786.570 5    -58302.738 9
  21787914.424     -596628.236 8   -451198.545 9
  24142649.705    -3840014.404 6  -2940418.902 9
  22658796.705      340225.767 7    216906.495 9
  21918196.744    -7622220.793 7  -5851215.080 9
  21011556.400      249455.196 7    215119.799 9
 94  3 23 21 54  0.0020000  0  6 15  2 26 19  7 27
  24441545.205     -116770.254 5    -73874.404 9
  21788671.768     -592647.040 8   -448096.314 9
  24134045.479    -3885231.926 6  -2975653.329 9
  22673789.674      419014.799 6    278300.469 9
  21908896.361    -7671092.160 7  -5889296.622 9
  21018820.424      287626.682 7    244863.787 9
 94  3 23 21 54 30.0020000  0  6 15  2 26 19  7 27
  24437822.853     -136327.364 5    -89113.667 9
  21789454.049     -588536.443 8   -444893.246 9
  24125518.010    -3930044.799 5  -3010572.413 9
  22688839.791      498104.752 6    339928.933 9
  21899677.986    -7719535.670 7  -5927044.770 9
  21026166.135      326229.982 7    274944.257 9
 94  3 23 21 55  0.0020000  0  5 15 26 19  7 27
  24434183.385     -155457.612 5   -104020.305 9
  24117065.916    -3974459.145 5  -3045180.962 9
  22703947.299      577494.209 6    401790.767 9
  21890540.635    -7767553.675 7  -5964461.347 9
  21033596.596      365276.007 7    305369.706 9
 94  3 23 21 55 30.0020000  0  6 15  2 26 19  7 27
  24430623.768     -174161.315 5   -118594.588 9
  21791092.197        4228.404 8       230.17919
  24108690.432    -4018472.203 5  -3079476.842 9
  22719111.236      657180.189 6    463883.652 9
  21881482.057    -7815159.226 7  -6001556.536 9
  21041109.869      404758.944 7    336135.613 9
 94  3 23 21 56  0.0020000  0  6 15  2 26 19  7 27
  24427144.174     -192449.408 5   -132844.988 9
  21791950.705        8739.660 8      3745.448 9
  24100394.603    -4062070.220 6  -3113449.276 9
  22734331.549      737164.716 6    526209.183 9
  21872497.416    -7862372.511 7  -6038346.059 9
  21048702.135      444656.057 7    367224.251 9
 94  3 23 21 56 30.0020000  0  6 15  2 26 19  7 27
  24423742.486     -210322.096 5   -146771.686 9
  21792836.322       13394.115 8      7372.303 9
  24092177.955    -4105246.935 5  -3147093.456 9
  22749609.322      817450.433 7    588769.400 9
  21863586.424    -7909199.620 7  -6074834.664 9
  21056371.588      484959.260 7    398629.325 9
 94  3 23 21 57  0.0020000  0  6 15  2 26 19  7 27
  24420421.713     -227773.225 5   -160369.902 9
  21793747.580       18183.386 8     11104.205 9
  24084043.721    -4147993.697 6  -3180402.587 9
  22764942.322      898025.762 6    651555.297 9
  21854749.643    -7955637.629 7  -6111020.085 9
  21064119.018      525672.987 7    430354.283 9
 94  3 23 21 57 30.0020000  0  6 15  2 26 19  7 27
  24417181.830     -244798.869 5   -173636.612 9
  21794686.424       23116.106 8     14947.889 9
  24075993.729    -4190297.017 6  -3213366.194 9
  22780328.018      978874.690 6    714554.382 9
  21845988.041    -8001679.249 7  -6146896.630 9
  21071944.510      566795.577 7    462397.837 9
 94  3 23 21 58  0.0020000  0  6 15  2 26 19  7 27
  24414023.221     -261394.381 5   -186568.101 9
  21795652.439       28192.329 8     18903.393 9
  24068029.080    -4232149.759 6  -3245978.703 9
  22795762.236     1059983.820 6    777756.213 9
  21837306.150    -8047301.087 7  -6182446.069 9
  21079849.166      608334.402 7    494765.726 9
 94  3 23 21 58 30.0020000  0  6 15  2 26 19  7 27
  24410948.439     -277557.131 5   -199162.390 9
  21796644.377       33405.038 8     22965.251 9
  24060148.846    -4273559.456 6  -3278245.980 9
  22811242.322     1141330.539 7    841143.190 9
  21828704.252    -8092503.738 7  -6217668.868 9
  21087835.361      650301.934 7    527467.669 9
 94  3 23 21 59  0.0020000  0  6 15  2 26 19  7 27
  24407957.361     -293275.290 5   -211410.250 9
  21797663.908       38762.688 8     27140.045 9
  24052355.822    -4314515.306 6  -3310159.621 9
  22826770.127     1222928.705 7    904726.083 9
  21820183.502    -8137280.722 7  -6252559.977 9
  21095908.174      692725.973 7    560525.333 9
 94  3 23 21 59 30.0020000  0  6 15  2 26 19  7 27
  24405050.830     -308549.900 5   -223312.460 9
  21798710.533       44264.302 8     31427.020 9
  24044646.603    -4355024.830 6  -3341725.455 9
  22842347.346     1304788.381 7    968512.759 9
  21811746.580    -8181618.828 7  -6287109.101 9
  21104066.799      735599.286 7    593933.082 9
 94  3 23 22  0  0.0020000  0  6 15  2 26 19  7 27
  24402228.885     -323379.986 6   -234868.294 9
  21799783.908       49904.408 8     35821.913 9
  24037022.619    -4395094.883 6  -3372948.865 9
  22857978.494     1386929.193 7   1032518.499 9
  21803392.104    -8225522.563 7  -6321319.749 9
  21112313.564      778935.960 7    627701.888 9
 94  3 23 22  0 30.0020000  0  6 15  2 26 19  7 27
  24399491.252     -337761.567 5   -246074.649 9
  21800883.674       55684.241 8     40325.682 9
  24029476.674    -4434745.467 6  -3403845.402 9
  22873668.533     1469379.443 7   1096765.364 9
  21795118.275    -8268999.366 7  -6355197.729 9
  21120648.822      822736.971 7    661832.518 9
 94  3 23 22  1  0.0020000  0  6 15  2 26 19  7 27
  24396841.393     -351687.159 5   -256925.681 9
  21802014.346       61623.269 8     44953.499 9
  24022011.416    -4473978.720 6  -3434416.758 9
  22889420.502     1552156.571 7   1161266.933 9
  21786931.088    -8312022.803 7  -6388722.432 9
  21129069.971      866989.601 7    696315.060 9
 94  3 23 22  1 30.0020000  0  6 15  2 26 19  7 27
  24394279.275     -365151.961 5   -267417.673 9
  21803177.057       67734.819 8     49715.741 9
  24014623.432    -4512797.712 6  -3464665.314 9
  22905233.721     1635256.279 7   1226019.869 9
  21778831.924    -8354583.280 7  -6421886.386 9
  21137573.572      911677.260 7    731136.583 9
 94  3 23 22  2  0.0020000  0  6 15  2 26 19  7 27
  24391802.807     -378161.476 5   -277554.879 9
  21804370.885       74007.136 8     54603.262 9
  24007314.236    -4551210.272 6  -3494597.153 9
  22921106.947     1718670.113 6   1291017.575 9
  21770816.674    -8396702.638 7  -6454706.619 9
  21146157.877      956788.623 7    766288.268 9
 94  3 23 22  2 30.0020000  0  6 15  2 26 19  7 27
  24389412.424     -390725.879 5   -287345.236 9
  21805592.463       80428.259 8     59606.734 9
  24000080.338    -4589223.050 6  -3524217.497 9
  22937034.932     1802372.316 6   1356239.978 9
  21762885.143    -8438383.752 7  -6487185.358 9
  21154815.541     1002285.374 7    801740.254 9
 94  3 23 22  3  0.0020000  0  6 15  2 26 19  7 27
  24387105.830     -402846.379 5   -296789.716 9
  21806840.877       86988.783 8     64718.832 9
  23992926.877    -4626812.499 6  -3553507.967 9
  22953013.822     1886341.317 6   1421670.287 9
  21755036.846    -8479624.797 7  -6519321.189 9
  21163546.010     1048164.372 7    837490.094 9
 94  3 23 22  3 30.0020000  0  6 15  2 26 19  7 27
  24384884.760     -414514.491 5   -305881.654 9
  21808113.572       93675.744 8     69929.449 9
  23985858.400    -4663961.643 6  -3582455.328 9
  22969045.611     1970589.819 6   1487318.393 9
  21747269.947    -8520442.169 7  -6551126.881 9
  21172353.666     1094450.143 7    873556.898 9
 94  3 23 22  4  0.0020000  0  6 15  2 26 19  7 27
  24382752.166     -425727.349 6   -314618.885 9
  21809408.096      100478.206 8     75230.069 9
  23978873.822    -4700663.244 6  -3611053.980 9
  22985130.619     2055118.265 6   1553184.634 9
  21739581.260    -8560845.034 7  -6582609.587 9
  21181242.174     1141157.085 7    909951.896 9
 94  3 23 22  4 30.0020000  0  6 15  2 26 19  7 27
  24380704.893     -436483.726 5   -323000.441 9
  21810726.127      107404.834 8     80627.439 9
  23971977.236    -4736907.669 6  -3639296.358 9
  23001269.416     2139926.434 6   1619268.833 9
  21731971.963    -8600833.765 7  -6613769.587 9
  21190212.588     1188297.943 7    946685.004 9
 94  3 23 22  5  0.0020000  0  6 15  2 26 19  7 27
  24378744.478     -446784.205 5   -331026.722 9
  21812066.518      114449.755 8     86116.991 9
  23965166.947    -4772692.833 6  -3667180.889 9
  23017463.643     2225025.287 6   1685579.547 9
  21724438.518    -8640422.413 7  -6644617.840 9
  21199270.221     1235896.431 7    983774.708 9
 94  3 23 22  5 30.0020000  0  6 15  2 26 19  7 27
  24376871.775     -456626.871 5   -338696.276 9
  21813429.932      121613.836 8     91699.399 9
  23958444.471    -4808021.545 6  -3694709.734 9
  23033714.221     2310423.802 6   1752123.759 9
  21716979.439    -8679620.254 7  -6675161.576 9
  21208414.010     1283948.065 7   1021217.519 9
 94  3 23 22  6  0.0020000  0  6 15  2 26 19  7 27
  24375086.721     -466005.527 5   -346004.276 9
  21814818.689      128911.221 8     97385.679 9
  23951808.408    -4842892.633 6  -3721881.998 9
  23050022.330     2396122.724 6   1818902.056 9
  21709600.119    -8718397.869 7  -6705377.857 9
  21217644.729     1332453.757 7   1059014.140 9
 94  3 23 22  6 30.0020000  0  6 15  2 26 19  7 27
  24373390.064     -474923.667 5   -352953.408 9
  21816233.244      136344.134 8    103177.573 9
  23945259.510    -4877310.569 6  -3748701.157 9
  23066387.908     2482125.831 6   1885917.387 9
  21702302.971    -8756744.089 7  -6735257.987 9
  21226958.635     1381398.965 7   1097153.235 9
 94  3 23 22  7  0.0020000  0  6 15  2 26 19  7 27
  24371782.385     -483372.058 6   -359536.534 9
  21817671.650      143903.878 8    109068.286 9
  23938795.205    -4911279.805 6  -3775170.659 9
  23082812.932     2568436.932 6   1953172.703 9
  21695089.955    -8794649.360 7  -6764794.526 9
  21236354.955     1430775.461 7   1135628.401 9
 94  3 23 22  7 30.0020000  0  6 15  2 26 19  7 27
  24370264.080     -491347.724 5   -365751.331 9
  21819135.268      151594.078 8    115060.656 9
  23932415.439    -4944805.674 6  -3801294.715 9
  23099293.010     2655041.388 6   2020656.614 9
  21687963.174    -8832100.920 7  -6793977.515 9
  21245830.064     1480569.723 7   1174429.106 9
 94  3 23 22  8  0.0020000  0  6 15  2 26 19  7 27
  24368838.049     -498839.006 5   -371588.666 9
  21820626.955      159434.485 8    121170.069 9
  23926121.971    -4977877.039 6  -3827064.587 9
  23115825.971     2741924.283 6   2088357.490 9
  21680925.064    -8869086.873 7  -6822797.698 9
  21255387.197     1530791.622 7   1213563.030 9
 94  3 23 22  8 30.0020000  0  6 15  2 26 19  7 27
  24367505.650     -505841.931 5   -377045.440 9
  21822147.455      167424.902 8    127396.377 9
  23919917.549    -5010481.091 6  -3852470.346 9
  23132410.260     2829072.852 6   2156265.383 9
  21673969.924    -8905635.876 7  -6851277.397 9
  21265023.783     1581432.323 7   1253023.292 9
 94  3 23 22  9  0.0020000  0  6 15  2 26 19  7 27
  24366266.979     -512352.693 5   -382118.742 9
  21823697.275      175569.592 8    133742.894 9
  23913803.791    -5042611.436 6  -3877506.958 9
  23149042.119     2916471.611 6   2224368.217 9
  21667097.924    -8941748.282 7  -6879416.896 9
  21274740.588     1632493.730 7   1292811.376 9
 94  3 23 22  9 30.0020000  0  6 15  2 26 19  7 27
  24365120.346     -518368.227 5   -386806.127 9
  21825282.861      183902.259 8    140235.886 9
  23907781.588    -5074255.636 6  -3902164.774 9
  23165719.072       32157.20816
  21660310.635    -8977416.136 7  -6907209.994 9
  21284539.885     1683990.520 7   1332938.714 9
 94  3 23 22 10  0.0020000  0  6 15  2 26 19  7 27
  24364071.424     -523894.191 6   -391112.066 9
  21826901.807      192409.735 8    146865.084 9
  23901850.471    -5105423.492 6  -3926451.397 9
  23182442.307      120037.184 6     11424.53019
  21653605.916    -9012649.708 7  -6934664.683 9
  21294421.783     1735918.791 7   1373402.276 9
 94  3 23 22 10 30.0020000  0  6 15  2 26 19  7 27
  24363112.674     -528929.614 5   -395035.747 9
  21828551.260      201077.575 8    153619.252 9
  23896009.088    -5136122.269 6  -3950372.513 9
  23199216.479      208186.275 6     80112.034 9
  21646988.486    -9047423.359 7  -6961760.995 9
  21304387.174     1788287.243 7   1414208.833 9
 94  3 23 22 11  0.0020000  0  6 15  2 26 19  7 27
  24362246.049     -533475.740 5   -398578.106 9
  21830229.682      209896.598 8    160491.217 9
  23890253.994    -5166363.738 6  -3973937.280 9
  23216043.729      296614.283 6    149016.892 9
  21640464.541    -9081707.136 7  -6988475.590 9
  21314439.760     1841113.753 7   1455372.312 9
 94  3 23 22 11 30.0020000  0  6 15  2 26 19  7 27
  24361476.479     -537530.568 6   -401737.677 9
  21831933.189      218849.449 8    167467.459 9
  23884586.541    -5196145.904 6  -3997144.145 9
  23232927.494      385339.175 6    218153.070 9
  21634033.619    -9115500.387 7  -7014807.947 9
  21324581.869     1894412.111 7   1496903.467 9
 94  3 23 22 12  0.0020000  0  6 15  2 26 19  7 27
  24360797.635     -541090.043 5   -404511.245 9
  21833657.814      227912.149 8    174529.300 9
  23879008.971    -5225455.892 6  -4019983.106 9
  23249872.689      474386.063 6    287540.150 9
  21627697.564    -9148796.888 7  -7040753.232 9
  21334814.635     1948185.201 7   1538804.537 9
 94  3 23 22 12 30.0020000  0  6 15  2 26 19  7 27
  24360215.650     -544151.217 5   -406896.504 9
  21835406.650      237102.055 8    181690.263 9
  23873525.455    -5254274.415 6  -4042439.064 9
  23266880.377      563763.599 6    357184.879 9
  21621455.275    -9181601.306 7  -7066315.075 9
  21345138.455     2002436.363 7   1581078.132 9
 94  3 23 22 13  0.0020000  0  6 15  2 26 19  7 27
  24359729.080     -546708.642 5   -408889.263 9
  21837182.260      246433.477 8    188961.495 9
  23868137.353    -5282587.062 6  -4064500.868 9
  23283951.025      653468.557 6    427084.753 9
  21615302.939    -9213931.652 7  -7091507.517 9
  21355551.674     2057159.063 7   1623719.162 9
 94  3 23 22 13 30.0020000  0  6 15  2 26 19  7 27
  24359337.268     -548764.746 5   -410491.373 9
  21838985.010      255906.690 8    196343.214 9
  23862847.268    -5310390.537 6  -4086165.875 9
  23301081.369      743489.640 6    497230.952 9
  21609236.018    -9245812.551 7  -7116349.733 9
  21366051.096     2112332.821 7   1666711.667 9
 94  3 23 22 14  0.0020000  0  6 15  2 26 19  7 27
  24359042.541     -550317.993 5   -411701.652 9
  21840817.400      265535.741 8    203846.366 9
  23857651.018    -5337692.715 6  -4107440.291 9
  23318269.510      833810.725 6    567610.919 9
  21603253.518    -9277250.183 7  -7140846.551 9
  21376634.377     2167947.894 7   1710048.055 9
 94  3 23 22 14 30.0020000  0  6 15  2 26 19  7 27
  24358843.104     -551363.832 5   -412516.521 9
  21842680.369      275325.787 8    211474.966 9
  23852548.299    -5364509.171 6  -4128336.200 9
  23335510.385      924411.934 6    638209.165 9
  21597354.877    -9308246.818 7  -7164999.738 9
  21387299.549     2223994.354 7   1753720.597 9
 94  3 23 22 15  0.0020000  0  6 15  2 26 19  7 27
  24358740.838     -551900.470 5   -412934.649 9
  21844569.471      285252.844 8    219210.327 9
  23847535.494    -5390853.306 6  -4148864.085 9
  23352801.025     1015274.633 6    709011.166 9
  21591541.861    -9338795.467 7  -7188803.840 9
  21398045.510       43328.91017
 94  3 23 22 15 30.0020000  0  6 15  2 26 19  7 27
  24358736.447     -551921.581 5   -412951.032 9
  21846483.494      295311.802 8    227048.471 9
  23842609.955    -5416732.988 6  -4169030.062 9
  23370140.768     1106396.397 6    780015.036 9
  21585815.455    -9368887.292 7  -7212251.981 9
  21408873.064      100226.416 7     32544.28319
 94  3 23 22 16  0.0020000  0  6 15  2 26 19  7 27
  24358830.463     -551427.398 5   -412565.920 9
  21848422.814      305502.474 8    234989.253 9
  23837775.143    -5442145.761 6  -4188832.187 9
  23387531.807     1197786.393 6    851227.914 9
  21580176.908      -16731.44217
  21419781.502      157550.744 7     77212.560 9
 94  3 23 22 16 30.0020000  0  6 15  2 26 19  7 27
  24359024.096     -550415.351 6   -411777.258 9
  21850384.658      315812.958 8    243023.395 9
  23833029.783    -5467077.472 6  -4208259.484 9
  23404975.400     1289450.005 6    922654.009 9
  21574629.072      -45887.740 7    -15105.74719
  21430770.510      215298.080 7    122210.447 9
 94  3 23 22 17  0.0020000  0  6 15  2 26 19  7 27
  24359313.049     -548888.858 5   -410587.736 9
  21852369.393      326241.691 8    251149.678 9
  23828379.377    -5491516.010 6  -4227302.490 9
  23422470.189     1381387.538 6    994293.537 9
  21569169.354      -74576.133 7    -37460.306 9
  21441840.244      273470.754 7    167539.771 9
 94  3 23 22 17 30.0020000  0  6 15  2 26 19  7 27
  24359700.689     -546850.314 5   -408999.181 9
  21854379.557      336806.494 8    259381.989 9
  23823824.104    -5515452.891 6  -4245954.587 9
  23440018.010     1473603.216 6   1066149.810 9
  21563800.502     -102791.329 7    -59446.135 9
  21452993.314      332080.608 7    213209.761 9
 94  3 23 22 18  0.0020000  0  5 15  2 19  7 27
  24360186.697     -544303.168 6   -407014.351 9
  21856417.236      347514.279 8    267725.716 9
  23457617.744     1566091.455 6   1138218.460 9
  21558521.197     -130534.114 7    -81063.849 9
  21464229.986      391128.911 7    259221.399 9
 94  3 23 22 18 30.0020000  0  6 15  2 26 19  7 27
  24360768.830     -541241.332 5   -404628.430 9
  21858484.393      358377.023 8    276190.192 9
  23815004.346      -22156.204 6     -1770.02719
  23475268.580     1658842.862 6   1210492.167 9
  21553333.283     -157796.266 7   -102307.048 9
  21475551.213      450623.165 7    305580.529 9
 94  3 23 22 19  0.0020000  0  6 15  2 26 19  7 27
  24361446.666     -537675.675 5   -401849.930 9
  21860581.268      369394.594 8    284775.312 9
  23810729.635      -44614.496 6    -19269.982 9
  23492967.143     1751851.059 6   1282965.976 9
  21548233.080     -184596.964 7   -123190.674 9
  21486957.611      510561.911 7    352286.020 9
 94  3 23 22 19 30.0020000  0  6 15  2 26 19  7 27
  24362223.502     -533596.750 5   -398671.498 9
  21862709.174      380576.300 8    293488.331 9
  23806545.854      -66604.983 6    -36405.421 9
  23510717.189     1845124.206 6   1355646.244 9
  21543221.658     -210932.202 7   -143711.602 9
  21498449.471      570954.197 7    399344.909 9
 94  3 23 22 20  0.0020000  0  6 15  2 26 19  7 27
  24363096.760     -529009.492 6   -395096.939 9
  21864864.994      391907.010 8    302317.456 9
  23802447.166      -88141.658 6    -53187.215 9
  23528516.729     1938664.360 6   1428534.555 9
  21538295.799     -236818.235 7   -163882.493 9
  21510024.736      631782.309 7    446743.402 9
 94  3 23 22 20 30.0020000  0  6 15  2 26 19  7 27
  24364068.861     -523902.088 6   -391117.069 9
  21867049.580      403386.568 8    311262.562 9
  23798436.494     -109215.486 6    -69608.388 9
  23546370.018     2032483.682 6   1501640.396 9
  21533456.518     -262249.466 7   -183698.999 9
  21521686.463      693064.565 7    494495.776 9
 94  3 23 22 21  0.0020000  0  6 15  2 26 19  7 27
  24365139.338     -518271.953 5   -386729.857 9
  21869260.049      415002.294 8    320313.782 9
  23794519.611     -129799.055 6    -85647.514 9
  23564276.510     2126582.052 6   1574963.685 9
  21528702.908     -287229.635 7   -203164.026 9
  21533432.744      754790.767 7    542594.082 9
 94  3 23 22 21 30.0020000  0  6 15  2 26 19  7 27
  24366310.010     -512117.469 5   -381934.095 9
  21871493.643      426740.722 8    329460.610 9
  23790700.088     -149873.560 6   -101289.980 9
  23582234.721     2220950.000 6   1648497.024 9
  21524035.213     -311757.104 7   -222276.298 9
  21545261.728      816952.467 7    591031.738 9
 94  3 23 22 22  0.0020000  0  6 15  2 26 19  7 27
  24367581.877     -505433.026 5   -376725.373 9
  21873750.189      438598.709 8    338700.605 9
  23786979.197     -169426.886 6   -116526.329 9
  23600245.979     2315599.694 6   1722249.918 9
  21519457.244     -335816.584 7   -241023.911 9
  21557175.900      879561.274 7    639817.785 9
 94  3 23 22 22 30.0030000  0  6 15  2 26 19  7 27
  24368955.976     -498213.011 5   -371099.317 9
  21876030.335      450578.613 8    348035.602 9
  23783359.210                      -10714.06116
  23618310.132     2410527.686 6   1796219.667 9
  21514970.233     -359395.740 7   -259397.242 9
  21569176.218      942624.181 7    688957.673 9
 94  3 23 22 23  0.0030000  0  6 15  2 26 19  7 27
  24370432.265     -490454.808 5   -365053.902 9
  21878333.312      462682.707 8    357467.361 9
  23779842.421      -29196.176 6     -9072.21219
  23636427.249     2505734.226 6   1870406.447 9
  21510576.647     -382483.374 7   -277387.576 9
  21581261.569     1006132.830 7    738444.889 9
 94  3 23 22 23 30.0030000  0  6 15  2 26 19  7 27
  24372012.843     -482151.499 5   -358583.739 9
  21880663.374      474927.982 8    367009.135 9
  23776426.249      -47147.560 6    -23060.278 9
  23654601.960     2601242.817 6   1944828.611 9
  21506279.483     -405063.630 7   -294982.544 9
  21593438.968     1070125.203 7    788309.035 9
 94  3 23 22 24  0.0030000  0  6 15  2 26 19  7 27
  24373698.640     -473296.054 6   -351683.345 9
  21883025.405      487339.903 8    376680.765 9
  23773109.265      -64577.024 6    -36641.687 9
  23672834.694     2697053.730 6   2019486.339 9
  21502082.171     -427121.741 7   -312170.651 9
  21605710.827     1134613.431 7    838559.561 9
 94  3 23 22 24 30.0030000  0  6 15  2 26 19  7 27
  24375490.390     -463881.704 6   -344347.437 9
  21885421.647      499932.255 8    386492.992 9
  23769892.116      -81481.275 6    -49813.802 9
  23691122.249     2793154.762 6   2094370.135 9
  21497982.030     -448667.212 7   -328959.299 9
  21618074.733     1199587.925 7    889189.002 9
 94  3 23 22 25  0.0030000  0  6 15  2 26 19  7 27
  24377388.491     -453904.357 6   -336572.835 9
  21887853.616      512712.827 8    396451.885 9
  23766774.296      -97864.356 6    -62579.855 9
  23709465.819     2889550.900 6   2169483.888 9
  21493980.351     -469697.510 7   -345346.513 9
  21630533.608     1265057.904 7    940204.530 9
 94  3 23 22 25 30.0030000  0  6 15  2 26 19  7 27
  24379395.522     -443356.895 6   -328354.009 9
  21890322.647      525688.203 8    406562.571 9
  23763756.061     -113729.506 6    -74942.290 9
  23727864.108     2986234.305 6   2244821.480 9
  21490077.757     -490206.381 7   -361327.422 9
  21643086.241     1331021.746 7    991604.885 9
 94  3 23 22 26  0.0030000  0  6 15  2 26 19  7 27
  24381510.929     -432237.049 5   -319689.152 9
  21892827.257      538850.345 8    416818.791 9
  23760837.718     -129060.284 6    -86888.355 9
  23746316.210     3083201.831 6   2320380.477 9
  21486271.905     -510204.743 7   -376910.533 9
  21655725.999     1397444.945 7   1043363.181 9
 94  3 23 22 26 30.0030000  0  6 15  2 26 19  7 27
  24383737.897     -420539.626 5   -310574.276 9
  21895367.640      552199.733 8    427220.917 9
  23758027.327     -143834.112 6    -98400.431 9
  23764826.343     3180471.163 6   2396174.623 9
  21482563.265     -529694.465 7   -392097.302 9
  21668452.812     1464324.075 7   1095476.745 9
 94  3 23 22 27  0.0030000  0  6 15  2 26 19  7 27
  24386072.397     -408264.388 5   -301009.125 9
  21897943.187      565733.950 8    437767.062 9
  23755322.499     -158046.039 6   -109474.636 9
  23783394.374     3278046.972 6   2472207.590 9
  21478952.765     -548666.435 7   -406880.630 9
  21681268.140     1531670.352 7   1147954.325 9
 94  3 23 22 27 30.0030000  0  6 15  2 26 19  7 27
  24388519.241     -395411.658 6   -290993.980 9
  21900553.874      579452.941 8    448457.195 9
  23752727.413     -171683.650 6   -120101.353 9
  23802019.897     3375929.247 6   2548479.377 9
  21475438.397     -567135.085 7   -421271.756 9
  21694171.726     1599476.967 7   1200790.610 9
 94  3 23 22 28  0.0030000  0  6 15  2 26 19  7 27
  24391076.491     -381973.472 6   -280522.662 9
  21903202.015      593369.717 8    459301.439 9
  23750243.147     -184736.923 6   -130272.722 9
  23820706.819     3474127.726 6   2624997.532 9
  21472018.788     -585104.234 7   -435273.662 9
  21707164.960     1667758.173 7   1253996.703 9
 94  3 23 22 28 30.0030000  0  6 15  2 26 19  7 27
  24393742.999     -367955.414 5   -269599.440 9
  21905886.319      607474.831 8    470292.443 9
  23747866.640     -197230.101 6   -140007.665 9
  23839450.710     3572624.236 6   2701747.924 9
  21468695.210     -602570.301 7   -448883.555 9
  21720252.311     1736532.809 7   1307587.289 9
 94  3 23 22 29  0.0030000  0  6 15  2 26 19  7 27
  24396519.780     -353363.141 5   -258228.865 9
  21908602.226      621745.551 8    481412.488 9
  23745591.851     -209178.722 6   -149318.281 9
  23858249.913     3671414.166 6   2778726.958 9
  21465468.007     -619531.140 7   -462099.762 9
  21733433.890     1805802.907 7   1361563.951 9
 94  3 23 22 29 30.0030000  0  6 15  2 26 19  7 27
  24399405.562     -338199.860 5   -246413.316 9
  21911348.437      636178.564 8    492658.997 9
  23743420.366     -220593.577 6   -158212.964 9
  23877106.077     3770503.455 6   2855939.258 9
  21462336.796     -635984.167 7   -474920.275 9
  21746706.827     1875551.962 7   1415913.832 9
 94  3 23 22 30  0.0030000  0  6 15  2 26 19  7 27
  24402398.530     -322475.989 6   -234160.911 9
  21914123.030      650759.593 8    504020.837 9
  23741345.304     -231495.367 6   -166707.870 9
  23896016.733     3869879.182 6   2933374.761 9
  21459303.905     -651921.085 7   -487338.619 9
  21760068.593     1945768.780 7   1470628.195 9
 94  3 23 22 30 30.0030000  0  6 15  2 26 19  7 27
  24405494.913     -306199.929 5   -221478.266 9
  21916925.733      665488.251 8    515497.714 9
  23739369.226     -241882.602 6   -174801.821 9
  23914981.382     3969541.860 6   3011033.854 9
  21456369.999     -667340.007 7   -499353.333 9
  21773518.038     2016444.915 7   1525700.470 9
 94  3 23 22 31  0.0030000  0  6 15  2 26 19  7 27
  24408696.288     -289375.973 5   -208368.657 9
  21919758.319      680372.767 8    527096.038 9
  23737492.007     -251744.873 6   -182486.697 9
  23934000.804     4069485.769 6   3088912.098 9
  21453531.030     -682259.234 7   -510978.675 9
  21787050.015     2087554.599 7   1581110.578 9
 94  3 23 22 31 30.0030000  0  6 15  2 26 19  7 27
  24412001.069     -272010.711 5   -194837.270 9
  21922621.647      695420.695 8    538821.695 9
  23735714.093     -261089.664 6   -189768.353 9
  23953067.718     4169682.891 6   3166987.640 9
  21450783.382     -696698.307 7   -522229.871 9
  21800660.179     2159076.855 7   1636842.170 9
 94  3 23 22 32  0.0030000  0  6 15  2 26 19  7 27
  24415407.726     -254105.536 5   -180885.150 9
  21925515.296      710627.015 8    550670.778 9
  23734035.132     -269910.687 6   -196641.876 9
  23972179.421     4270113.562 6   3245245.168 9
  21448124.780     -710669.261 7   -533116.302 9
  21814349.858     2231017.105 7   1692899.468 9
 94  3 23 22 32 30.0030000  0  6 15  2 26 19  7 27
  24418918.757     -235654.460 5   -166507.670 9
  21928439.452      725992.752 8    562644.076 9
  23732458.077     -278201.536 6   -203102.267 9
  23991334.968     4370774.808 6   3323682.355 9
  21445554.601     -724175.269 7   -543640.437 9
  21828120.069     2303380.345 7   1749286.380 9
 94  3 23 22 33  0.0030000  0  6 15  2 26 19  7 27
  24422534.093     -216662.845 6   -151708.978 9
  21931388.319      741488.652 8    574718.799 9
  23730977.366     -285981.664 6   -209164.704 9
  24010529.671     4471647.406 6   3402284.255 9
  21443072.522     -737218.269 7   -553803.788 9
  21841969.140     2376157.899 7   1805996.120 9
 94  3 23 22 33 30.0030000  0  6 15  2 26 19  7 27
  24426251.085     -197123.672 5   -136483.641 9
  21934360.476      757106.806 8    586888.787 9
  23729594.304     -293247.990 6   -214826.766 9
  24029769.054     4572747.824 6   3481063.652 9
  21440681.788     -749780.879 7   -563592.809 9
  21855902.569     2449378.064 7   1863050.751 9
 94  3 23 22 34  0.0030000  0  5  2 26 19  7 27
  21937353.218      772834.197 8    599143.892 9
  23728309.421     -300001.897 6   -220089.546 9
  24049052.726     4674083.561 6   3560026.456 9
  21438382.187     -761865.811 7   -573009.615 9
  21869922.116     2523050.706 7   1920457.959 9
 94  3 23 22 34 30.0030000  0  6 15  2 26 19  7 27
  24433997.827       19943.710 6
  21940367.077      788672.378 8    611485.324 9
  23727121.444     -306245.834 6   -224954.948 9
  24068383.405     4775666.965 6   3639182.209 9
  21436173.343     -773471.308 7   -582052.836 9
  21884026.952     2597171.617 7   1978214.473 9
 94  3 23 22 35  0.0030000  0  6 15  2 26 19  7 27
  24438024.976       41107.994 5     11040.53419
  21943401.569      804618.885 8    623911.174 9
  23726027.991     -311989.483 6   -229430.510 9
  24087762.116     4877505.613 5   3718536.850 9
  21434053.929     -784609.851 7   -590732.191 9
  21898215.171     2671731.204 7   2036312.810 9
 94  3 23 22 35 30.0030000  0  6 15  2 26 19  7 27
  24442155.749       62811.674 6     27952.532 9
  21946459.054      820686.120 8    636431.095 9
  23725030.554     -317234.110 6   -233517.241 9
  24107191.741     4979604.566 6   3798094.336 9
  21432019.522     -795300.487 7   -599062.531 9
  21912486.819     2746731.412 7   2094754.492 9
 94  3 23 22 36  0.0030000  0  6 15  2 26 19  7 27
  24446387.913       85055.413 5     45285.322 9
  21949541.562      836884.712 8    649053.374 9
  23724124.968     -321987.638 6   -237221.266 9
  24126669.038     5081958.939 6   3877850.834 9
  21430070.421     -805544.077 7   -607044.525 9
  21926839.382     2822153.096 7   2153524.589 9
 94  3 23 22 36 30.0030000  0  6 15  2 26 19  7 27
  24450722.686      107839.500 5     63039.166 9
  21952649.554      853219.194 8    661781.541 9
  23723312.288     -326264.697 6   -240554.025 9
  24146194.694     5184565.222 6   3957803.640 9
  21428207.187     -815335.015 7   -614673.804 9
  21941270.452     2897987.205 7   2212616.051 9
 94  3 23 22 37  0.0030000  0  6 15  2 26 19  7 27
  24455161.827      131164.446 5     81214.481 9
  21955784.390      869692.734 8    674618.067 9
  23722588.944     -330059.970 6   -243511.395 9
  24165766.272     5287411.886 6   4037943.740 9
  21426431.272     -824666.034 7   -621944.702 9
  21955782.546     2974249.459 7   2272041.134 9
 94  3 23 22 37 30.0030000  0  4 15  2  7 27
  24459703.140      155027.791 6     99809.329 9
  21958946.913      886311.280 8    687567.586 9
  21424746.608                       -4957.71417
  21970376.054     3050938.613 7   2331798.874 9
 94  3 23 22 38  0.0030000  0  6 15  2 26 19  7 27
  24464346.624      179430.468 5    118824.403 9
  21962137.046      903075.684 8    700630.761 9
  23721433.483       -2084.03016
  24205037.140       79206.51216
  21423156.296      -13315.052 7     -4079.83219
  21985047.640     3128039.448 7   2391877.396 9
 94  3 23 22 38 30.0030000  0  6 15  2 26 19  7 27
  24469093.366      204375.973 5    138262.471 9
  21965356.546      919992.486 8    713812.691 9
  23721008.827       -4320.881 6     -1298.65419
  24224732.187      182702.454 6     40338.96119
  21421660.343      -21175.786 7    -10205.052 9
  21999799.140     3205558.966 7   2452282.167 9
 94  3 23 22 39  0.0030000  0  6 15  2 26 19  7 27
  24473943.616      229864.165 5    158123.455 9
  21968604.593      937061.212 8    727113.001 9
  23720689.491       -5997.829 6     -2605.353 9
  24244463.343      286392.663 6    121136.370 9
  21420258.132      -28545.462 7    -15947.630 9
  22014628.601     3283485.917 7   2513004.419 9
 94  3 23 22 39 30.0030000  0  6 15  2 26 19  7 27
  24478899.835      255904.022 6    178414.253 9
  21971881.116      954281.894 8    740531.717 9
  23720475.483       -7122.260 6     -3481.548 9
  24264234.858      390292.334 5    202097.012 9
  21418948.452      -35428.653 7    -21311.130 9
  22029532.921       28762.02117
 94  3 23 22 40  0.0030000  0  6 15  2 26 19  7 27
  24483960.327      282504.262 5    199141.742 9
  21975187.608      971656.259 8    754070.191 9
  23720364.413       -7703.889 6     -3934.767 9
  24284048.390      494409.530 6    283227.131 9
  21417727.030      -41845.873 7    -26311.535 9
  22044515.968      107499.040 7     24577.83619
 94  3 23 22 40 30.0030000  0  6 15  2 26 19  7 27
  24489130.358      309670.551 5    220310.313 9
  21978523.390      989184.872 8    767728.856 9
  23720357.999       -7742.789 6     -3965.072 9
  24303905.562      598764.181 5    364542.290 9
  21416594.593      -47797.026 7    -30948.770 9
  22059580.304      186662.230 7     86263.391 9
 94  3 23 22 41  0.0030000  0  6 15  2 26 19  7 27
  24494408.499      337410.257 5    241925.690 9
  21981886.468     1006859.427 8    781501.241 9
  23720451.218         240.54816
  24323813.944      703378.353 5    446059.661 9
  21415551.936      -53276.320 7    -35218.321 9
  22074728.483      266265.063 7    148291.526 9
 94  3 23 22 41 30.0030000  0  6 15  2 26 19  7 27
  24499797.272      365722.054 6    263986.855 9
  21985275.952     1024670.737 8    795380.194 9
  23720644.616        1256.857 6       421.70919
  24343772.515      808260.999 5    527786.244 9
  21414599.124      -58282.624 7    -39119.310 9
  22089962.233      346320.441 7    210672.294 9
 94  3 23 22 42  0.0030000  0  6 15  2 26 19  7 27
  24505294.765      394615.104 5    286500.955 9
  21988695.515     1042641.482 8    809383.380 9
  23720941.944        2820.790 6      1640.336 9
  24363781.827      913409.711 5    609720.143 9
  21413742.851      -62783.808 7    -42626.698 9
  22105284.218      426835.976 7    273411.627 9
 94  3 23 22 42 30.0030000  0  6 15  2 26 19  7 27
  24510900.960      424075.966 6    309457.490 9
  21992143.937     1060764.048 8    823504.865 9
  23721342.390        4926.826 6      3281.383 9
  24383839.530     1018813.769 5    691852.997 9
  21412986.585      -66757.412 7    -45722.986 9
  22120690.335      507797.277 7    336498.307 9
 94  3 23 22 43  0.0030000  0  6 15  2 26 19  7 27
  24516616.538      454115.756 5    332865.160 9
  21995623.897     1079049.354 8    837753.159 9
  23721845.171        7569.641 6      5340.727 9
  24403947.858     1124483.096 5    774192.561 9
  21412333.936      -70188.120 7    -48396.239 9
  22136186.077      589226.455 7    399949.563 9
 94  3 23 22 43 30.0030000  0  6 15  2 26 19  7 27
  24522442.968      484729.935 6    356720.372 9
  21999136.905     1097510.994 8    852138.852 9
  23722449.788       10747.377 6      7816.868 9
  24424104.343     1230406.068 5    856729.794 9
  21411782.765      -73083.490 7    -50652.344 9
  22151766.921      671106.593 7    463752.236 9
 94  3 23 22 44  0.0030000  0  6 15  2 26 19  7 27
  24528376.710      515910.787 6    381017.194 9
  22002684.374     1116152.104 8    866664.391 9
  23723156.569       14459.653 6     10709.535 9
  24444306.468       81411.87615
  21411331.132      -75456.847 7    -52501.689 9
  22167432.382      753425.624 7    527896.883 9
 94  3 23 22 44 30.0030000  0  6 15  2 26 19  7 27
  24534418.155      547658.085 6    405755.362 9
  22006262.694     1134956.196 8    881316.920 9
  23723963.483       18699.440 6     14013.257 9
  24464557.491      187828.151 5     35953.05819
  21410973.249      -77336.905 7    -53966.649 9
  22183181.632      836189.658 7    592388.292 9
 94  3 23 22 45  0.0030000  0  6 15  2 26 19  7 27
  24540566.530      579970.082 6    430933.577 9
  22009869.897     1153913.099 8    896088.528 9
  23724870.749       23464.778 6     17726.492 9
  24484855.515      294492.362 5    119067.842 9
  21410703.132      -78755.535 7    -55072.053 9
  22199012.382      919382.008 7    657213.454 9
 94  3 23 22 45 30.0030000  0  6 15  2 26 19  7 27
  24546822.155      612844.555 6    456550.072 9
  22013505.608     1173018.138 8    910975.562 9
  23725881.866       28778.247 6     21866.834 9
  24505198.952      401398.409 5    202371.097 9
  21410518.624      -79725.705 7    -55828.010 9
  22214921.452     1002982.940 7    722356.982 9
 94  3 23 22 46  0.0030000  0  6 15  2 26 19  7 27
  24553181.647      646270.062 5    482595.941 9
  22017163.616     1192242.370 8    925955.476 9
  23726992.780       34619.175 6     26418.198 9
  24525586.444      508537.209 5    285855.689 9
  21410419.718      -80246.837 7    -56234.068 9
  22230908.483     1086994.340 7    787820.360 9
 94  3 23 22 46 30.0030000  0  6 15  2 26 19  7 27
  24559648.663      680245.326 6    509070.214 9
  22020843.108     1211577.618 8    941021.897 9
  23728200.726       40965.651 6     31363.500 9
  24546016.757      615900.321 5    369515.075 9
  21410407.358      -80310.843 8    -56283.924 9
  22246971.366     1171405.486 7    853595.227 9
 94  3 23 22 47  0.0030000  0  6 15  2 26 19  7 27
  24566217.796      714768.222 6    535971.175 9
  22024546.218     1231037.461 8    956185.402 9
  23729503.983       47817.551 6     36702.623 9
  24566487.311      723470.671 5    453335.951 9
  21410484.288      -79906.804 8    -55969.068 9
  22263109.030     1256210.002 7    919676.621 9
 94  3 23 22 47 30.0030000  0  6 15  2 26 19  7 27
  24572890.421      749836.439 5    563297.085 9
  22028274.437     1250629.121 8    971451.624 9
  23730902.624       55165.220 6     42428.076 9
  24586993.194      831226.605 5    537301.417 9
  21410651.538      -79027.059 8    -55283.535 9
  22279322.929     1341414.635 7    986069.795 9
 94  3 23 22 48  0.0030000  0  6 15  2 26 19  7 27
  24579665.843      785441.246 5    591041.115 9
  22032027.257     1270349.854 8    986818.418 9
  23732390.796       62985.416 6     48521.704 9
  24607529.187      939147.859 5    621395.722 9
  21410909.101      -77673.474 7    -54228.774 9
  22295613.257     1427019.383 7   1052774.740 9
 94  3 23 22 48 30.0030000  0  6 15  2 26 19  7 27
  24586544.390      821582.064 6    619202.789 9
  22035806.366     1290209.799 8   1002293.696 9
  23733972.397       71298.565 6     54999.480 9
  24628096.647     1047227.489 5    705613.424 9
  21411253.718      -75862.122 7    -52817.308 9
  22311976.507     1513009.394 7   1119779.889 9
 94  3 23 22 49  0.0030000  0  6 15  2 26 19  7 27
  24593521.874      858250.765 6    647775.808 9
  22039610.671     1310200.567 8   1017870.914 9
  23735650.358       80113.071 6     61867.898 9
  24648694.288     1155467.006 5    789955.728 9
  21411683.116      -73606.304 8    -51059.506 9
  22328413.968     1599388.624 7   1187088.327 9
 94  3 23 22 49 30.0030000  0  6 15  2 26 19  7 27
  24600598.671      895445.844 5    676758.991 9
  22043437.991     1330314.560 8   1033544.149 9
  23737422.171       89428.870 6     69126.942 9
  24669324.319     1263879.417 5    874432.736 9
  21412197.061      -70906.096 8    -48955.428 9
  22344927.062     1686163.173 7   1254704.802 9
 94  3 23 22 50  0.0030000  0  6 15  2 26 19  7 27
  24607776.741      933166.229 5    706151.529 9
  22047288.171     1350546.982 8   1049309.673 9
  23739291.280       99248.186 6     76778.342 9
  24689990.804     1372482.120 5    959058.007 9
  21412794.085      -67768.493 8    -46510.519 9
  22361513.577     1773326.293 7   1322624.060 9
 94  3 23 22 50 30.0030000  0  6 15  2 26 19  7 27
  24615054.772      971414.756 5    735955.572 9
  22051161.718     1370904.337 8   1065172.543 9
  23741258.335      109587.456 6     84834.901 9
  24710695.218     1481281.838 5   1043836.823 9
  21413473.882      -64194.733 8    -43725.750 9
  22378173.382     1860874.719 7   1390843.556 9
 94  3 23 22 51  0.0030000  0  6 15  2 26 19  7 27
  24622434.663     1010194.640 5    766173.663 9
  22055059.132     1391383.586 8   1081130.396 9
  23743322.538      120432.583 6     93285.638 9
  24731437.405     1590281.969 5   1128771.781 9
  21414239.015      -60173.747 7    -40592.497 9
  22394910.046     1948825.972 7   1459376.935 9
 94  3 23 22 51 30.0030000  0  6 15  2 26 19  7 27
  24629916.046     1049507.850 5    796807.329 9
  22058979.843     1411986.999 8   1097185.008 9
  23745481.358      131777.254 6    102125.617 9
  24752214.343     1699467.772 5   1213851.429 9
  21415089.015      -55706.161 7    -37111.239 9
  22411721.436     2037169.883 7   1528216.285 9
 94  3 23 22 52  0.0030000  0  6 15  2 26 19  7 27
  24637500.257       30596.99316
  22062925.655     1432722.206 8   1113342.315 9
  23747735.108      143621.430 6    111354.831 9
  24773026.882     1808836.275 5   1299073.472 9
  21416023.819      -50795.266 7    -33284.550 9
  22428605.522     2125897.328 7   1597354.486 9
 94  3 23 22 52 30.0030000  0  6 15  2 26 19  7 27
  24645184.062       70984.166 5     11586.36719
  22066896.749     1453590.353 8   1129603.215 9
  23750084.710      155967.848 6    120975.397 9
  24793873.741     1918389.643 5   1384439.561 9
  21417044.726      -45429.339 7    -29103.290 9
  22445563.577     2215012.814 7   1666795.058 9
 94  3 23 22 53  0.0030000  0  6 15  2 26 19  7 27
  24652973.608      111917.206 5     43482.246 9
  22070894.468     1474598.594 8   1145973.272 9
  23752530.210      168818.706 6    130989.033 9
  24814759.397     2028140.929 5   1469959.812 9
  21418153.968      -39601.192 7    -24561.855 9
  22462597.241     2304525.967 7   1736545.493 9
 94  3 23 22 53 30.0030000  0  6 15  2 26 19  7 27
  24660867.991      153397.365 6     75804.434 9
  22074921.265     1495760.310 8   1162462.926 9
  23755075.804      182194.701 6    141411.871 9
  24835681.147     2138087.450 5   1555632.243 9
  21419350.897      -33311.103 7    -19660.471 9
  22479704.390     2394422.294 7   1806594.508 9
 94  3 23 22 54  0.0030000  0  6 15  2 26 19  7 27
  24668864.522      195424.274 5    108552.670 9
  22078979.679     1517087.829 8   1179081.778 9
  23757721.827      196101.005 6    152247.930 9
  24856642.390     2248235.447 5   1641461.662 9
  21420636.562      -26554.211 8    -14395.340 9
  22496883.819     2484701.536 7   1876941.904 9
 94  3 23 22 54 30.0030000  0  6 15  2 26 19  7 27
  24676965.710      237996.756 5    141726.040 9
  22083068.343     1538573.826 8   1195824.120 9
  23760470.069      210540.402 6    163499.395 9
  24877639.327     2358578.385 5   1727442.937 9
  21422010.796      -19333.509 8     -8768.799 9
  22514136.577     2575364.913 7   1947588.620 9
 94  3 23 22 55  0.0030000  0  6 15  2 26 19  7 27
  24685172.288      281115.710 6    175325.206 9
  22087188.522     1560225.743 8   1212695.750 9
  23763318.311      225510.058 6    175164.042 9
  24898673.366     2469109.182 5   1813570.675 9
  21423470.866      -11659.707 7     -2789.194 9
  22531461.429     2666409.523 7   2018532.401 9
 94  3 23 22 55 30.0030000  0  6 15  2 26 19  7 27
  24693480.593      324777.783 5    209347.606 9
  22091340.522     1582043.571 8   1229696.666 9
  23766264.749      240991.748 6    187227.671 9
  24919742.405     2579825.608 5   1899843.003 9
  21425016.218       -3537.414 7      3539.883 9
  22548859.577     2757836.095 7   2089773.811 9
 94  3 23 22 56  0.0030000  0  6 15  2 26 19  7 27
  24701891.897      368984.676 5    243794.543 9
  22095523.194     1604024.239 8   1246824.461 9
  23769304.562      256967.500 6    199676.280 9
  24940849.335     2690744.326 5   1986272.989 9
  21426647.015        5030.470 7     10216.174 9
  22566331.460     2849650.618 7   2161317.523 9
 94  3 23 22 56 30.0030000  0  6 15  2 26 19  7 27
  24710408.007      413734.068 6    278664.204 9
  22099732.280     1626143.036 8   1264059.892 9
  23772438.015      273434.825 6    212507.955 9
  24961995.999     2801866.521 5   2072861.458 9
  21428360.562       14036.053 7     17233.527 9
  22583878.046     2941858.321 7   2233167.604 9
 94  3 23 22 57  0.0030000  0  6 15  2 26 19  7 27
  24719026.913      459026.654 5    313957.127 9
  22103968.483     1648404.586 8   1281406.561 9
  23775665.046      290388.841 6    225718.847 9
  24983182.796     2913203.092 5   2159617.037 9
  21430161.351       23498.089 8     24606.561 9
  22601501.780     3034471.025 7   2305333.276 9
 94  3 23 22 57 30.0030000  0  6 15  2 26 19  7 27
  24727749.351                       35188.66015
  22108229.835     1670799.052 8   1298856.796 9
  23778984.476      307836.200 6    239314.178 9
  25004407.374       85529.44515
  21432052.546        3699.307 8
  22619202.507     3127489.913 7   2377815.454 9
 94  3 23 22 58  0.0030000  0  6 15  2 26 19  7 27
  24736575.937       81569.895 5     31345.51619
  22112513.655     1693310.276 8   1316398.011 9
  23782400.796      325790.078 6    253304.189 9
  25025670.530      197261.484 5     75460.44319
  21434035.077       14116.490 7      4375.72619
  22636978.054     3220899.496 7   2450602.069 9
 94  3 23 22 58 30.0030000  0  6 15  2 26 19  7 27
  24745503.983      128495.883 5     67911.237 9
  22116819.179     1715935.383 8   1334027.966 9
  23785916.741      344261.153 6    267697.203 9
  25046966.116      309165.389 5    162658.069 9
  21436109.265       25017.311 7     12869.891 9
  22654829.046     3314706.585 7   2523698.426 9
 94  3 23 22 59  0.0030000  0  6 15  2 26 19  7 27
  24754538.101      175962.891 5    104898.544 9
  22121148.522     1738685.683 8   1351755.474 9
  23789528.624                        3200.43616
  25068290.116      421226.238 5    249977.985 9
  21438273.874       36393.980 7     21734.846 9
  22672752.897     3408896.751 7   2597093.289 9
 94  3 23 22 59 30.0030000  0  6 15  2 26 19  7 27
  24763673.960      223973.167 5    142309.156 9
  22125501.538     1761562.808 8   1369581.804 9
  23793242.741       22717.111 6      4095.48219
  25089642.983      533435.969 5    337413.897 8
  21440525.210       48223.635 7     30952.777 9
  22690746.655     3503454.338 7   2670774.453 9
 94  3 23 23  0  0.0030000  0  6 15  2 26 19  7 27
  24772912.421      272525.109 5    180141.853 9
  22129881.944     1784581.138 8   1387518.160 9
  23797057.257       42760.339 6     19713.548 9
  25111028.733      645813.420 5    424980.519 8
  21442857.999       60483.884 7     40506.239 9
  22708809.929     3598376.964 7   2744740.070 9
 94  3 23 23  0 30.0030000  0  6 15  2 26 19  7 27
  24782254.108      321616.645 5    218395.025 9
  22134290.882     1807750.238 8   1405572.002 9
  23800969.507       63320.967 6     35734.798 9
  25132446.491      758369.495 5    512686.299 8
  21445273.507       73177.066 7     50397.053 9
  22726945.694     3693680.214 7   2819002.273 9
 94  3 23 23  1  0.0030000  0  6 15  2 26 19  7 27
  24791699.210      371248.465 5    257069.181 9
  22138731.397     1831083.781 8   1423753.980 9
  23804978.249       84389.579 6     52151.891 9
  25153901.890      871113.939 5    600538.883 9
  21447772.851       86310.170 7     60630.661 9
  22745151.991     3789355.007 7   2893553.989 9
 94  3 23 23  1 30.0030000  0  6 15  2 26 19  7 27
  24801246.147      421420.250 5    296164.082 9
  22143203.444     1854585.726 8   1442067.183 9
  23809083.452      105957.901 6     68958.348 9
  25175393.077      984054.231 5    688544.073 8
  21450358.147       99896.586 7     71217.498 9
  22763430.960     3885410.494 7   2968402.352 9
 94  3 23 23  2  0.0030000  0  6 15  2 26 19  7 27
  24810895.304      472126.860 5    335675.734 9
  22147706.983     1878250.450 8   1460507.226 9
  23813277.608      128002.782 6     86136.152 9
  25196921.601     1097182.587 5    776695.803 9
  21453032.038      113948.565 8     82167.107 9
  22781784.772     3981860.579 7   3043558.183 9
 94  3 23 23  2 30.0030000  0  6 15  2 26 19  7 27
  24820645.530      523364.880 5    375601.454 9
  22152239.655     1902070.637 8   1479068.411 9
  23817565.187      150525.878 6    103686.612 9
  25218481.413     1210480.109 5    864979.375 9
  21455794.976      128467.745 8     93480.775 9
  22800212.226     4078697.496 7   3119015.444 9
 94  3 23 23  3  0.0030000  0  6 15  2 26 19  7 27
  24830496.124      575128.964 5    415937.103 9
  22156802.968     1926050.862 8   1497754.299 9
  23821941.093      173527.111 6    121609.627 9
  25240069.983     1323930.284 5    953381.851 8
  21458645.679      143447.532 7    105153.352 9
  22818708.608     4175897.243 7   3194755.430 9
 94  3 23 23  3 30.0030000  0  6 15  2 26 19  7 27
  24840445.374      627412.028 5    456677.166 9
  22161395.171     1950182.921 8   1516558.499 9
  23826409.780      197012.661 6    139910.047 9
  25261686.296     1437516.828 5   1041890.620 9
  21461580.194      158869.010 8    117170.106 9
  22837274.069     4273457.747 7   3270776.522 9
 94  3 23 23  4  0.0030000  0  6 15  2 26 19  7 27
  24850494.491      680224.577 5    497829.803 9
  22166019.796     1974486.178 8   1535496.097 9
  23830975.632      221005.367 6    158605.632 9
  25283326.843     1551242.832 4   1130508.030 8
  21464598.218      174729.712 7    129529.107 9
  22855906.663     4371373.725 7   3347074.618 9
 94  3 23 23  4 30.0030000  0  6 15  2 26 19  7 27
  24860643.897      733554.249 5    539385.383 9
  22170676.491     1998957.106 8   1554564.354 9
  23835638.046      245505.381 6    177696.470 9
  25304994.265     1665103.282 4   1219230.217 9
  21467697.866      191017.256 8    142220.715 9
  22874600.460     4469611.545 6   3423623.497 9
 94  3 23 23  5  0.0030000  0  6 15  2 26 19  7 27
  24870889.929      787398.008 5    581341.552 9
  22175363.983     2023590.145 8   1573758.929 9
  23840395.522      270501.261 6    197173.822 9
  25326686.062     1779100.031 3   1308058.652 9
  21470878.491      207731.314 8    155244.671 9
  22893358.796     4568184.748 7   3500433.714 9
 94  3 23 23  5 30.0030000  0  5 15  2 26  7 27
  24881231.194      841750.898 5    623694.439 9
  22180077.171     2048357.212 8   1593057.945 9
  23845246.218      295996.076 6    217039.875 9
  21474137.382      224857.030 8    168589.399 9
  22912181.171     4667095.446 7   3577506.912 9
 94  3 23 23  6  0.0030000  0  5 15  2 26  7 27
  24891672.241      896613.758 5    666444.710 9
  22184811.772     2073238.269 8   1612445.787 9
  23850190.968      321979.955 6    237287.047 9
  21477475.913      242401.106 8    182260.124 9
  22931066.022     4766337.614 7   3654838.404 9
 94  3 23 23  6 30.0030000  0  5 15  2 26  7 27
  24902211.522      951995.364 5    709599.199 9
  22189566.108     2098220.667 8   1631912.593 9
  23855226.093      348438.714 6    257904.237 9
  21480896.186      260374.756 8    196265.584 9
  22950019.233     4865935.799 6   3732447.305 9
 94  3 23 23  7  0.0030000  0  5 15  2 26  7 27
  24912847.929     1007893.995 5    753156.571 9
  22194337.890     2123298.708 8   1651453.924 9
  23860351.632      375375.511 6    278893.925 9
  21484397.022      278772.122 8    210601.207 9
  22969040.780     4965894.452 6   3810337.096 9
 94  3 23 23  7 30.0030000  0  5 15  2 26  7 27
  24923583.382     1064309.737 5    797116.873 9
  22199130.671     2148485.013 8   1671079.621 9
  23865569.272      402792.836 6    300258.049 9
  21487978.562      297592.167 8    225266.190 9
  22988127.405     5066195.147 6   3888493.398 9
 94  3 23 23  8  0.0030000  0  6 15  2 26  4  7 27
  24934418.944     1121242.232 5    841479.859 9
  22203949.679     2173808.867 8   1690812.495 9
  23870874.686      430670.693 6    321981.015 9
  25230949.585      -14808.64015
  21491641.046      316839.320 7    240263.985 9
  23007279.522     5166841.913 6   3966919.376 9
 94  3 23 23  8 30.0030000  0  6 15  2 26  4  7 27
  24945348.796     1178687.022 5    886241.998 9
  22208800.593     2199300.488 8   1710676.100 9
  23876267.522      459012.569 6    344065.581 9
  25214033.257     -103700.413 5
  21495384.741      336513.142 8    255594.250 9
  23026497.632     5267832.357 6   4045613.151 9
 94  3 23 23  9  0.0030000  0  6 15  2 26  4  7 27
  24956377.890     1236642.825 5    931402.366 9
  22213687.124     2224979.700 8   1730685.876 9
  23881753.218      487837.725 6    366526.715 9
  25197112.038     -192620.709 5    -43882.10619
  21499208.038      356605.174 7    271250.390 9
  23045779.983     5369160.982 6   4124570.434 9
 94  3 23 23  9 30.0030000  0  6 15  2 26  4  7 27
  24967503.022     1295105.134 5    976957.383 9
  22218608.382     2250841.030 8   1750837.564 9
  23887327.194      517129.225 6    389351.226 9
  25180187.593     -281555.358 5   -113181.518 8
  21503108.999      377104.738 7    287224.090 9
  23065126.679     5470830.022 6   4203792.981 9
 94  3 23 23 10  0.0030000  0  5 15  2 26  4  7
  24978723.694     1354070.079 5   1022904.068 9
  22223560.897     2276865.319 8   1771116.232 9
  23892988.155      546885.717 6    412538.074 9
  25163263.007     -370497.109 5   -182486.498 9
  21507087.561      398013.450 7    303516.605 9
 94  3 23 23 10 30.0030000  0  6 15  2 26  4  7 27
  24990039.374     1413537.993 5   1069242.691 9
  22228539.319     2303030.702 8   1791504.840 9
  23898744.421      577127.244 6    436102.878 9
  25146336.897     -459442.640 5   -251794.448 9
  21511144.140      419329.458 7    320126.497 9
  23104011.468       98926.566 6      7983.43319
 94  3 23 23 11  0.0030000  0  6 15  2 26  4  7 27
  25001452.116     1473509.402 5   1115973.643 9
  22233541.647     2329316.883 8   1811987.579 9
  23904591.382      607853.730 6    460045.565 9
  25129412.952     -548379.770 5   -321095.835 9
  21515276.983      441048.478 7    337050.427 9
  23123549.327      201597.686 6     87986.808 9
 94  3 23 23 11 30.0030000  0  6 15  2 26  4  7 27
  25012959.413     1533982.200 5   1163095.286 9
  22238564.687     2355712.631 8   1832555.691 9
  23910527.468      639051.246 6    484355.288 9
  25112488.265     -637316.117 5   -390396.655 9
  21519488.530      463179.745 7    354295.586 9
  23143149.444                       78991.99516
 94  3 23 23 12  0.0030000  0  6 15  2 26  4  7 27
  25024561.968       10194.49915
  22243608.304        9729.651 8
  23916555.085      670722.815 6    509034.396 9
  25095561.522     -726264.342 5   -459706.683 9
  21523779.491      485728.415 7    371865.994 9
  23162812.436                       37922.926 6
 94  3 23 23 12 30.0030000  0  6 15  2 26  4  7 27
  25036259.882       71663.595 5
  22248674.702       36354.120 8     10385.51319
  23922671.772      702864.967 6    534080.202 9
  25078629.897     -815238.735 5   -529037.142 9
  21528148.093      508686.719 7    389755.599 9
  23182540.780      141592.271 6     40420.65319
 94  3 23 23 13  0.0030000  0  6 15  2 26  4  7 27
  25048050.366      133621.564 5     33833.08119
  22253765.999       63108.957 8     31233.432 9
  23928872.866      735456.367 6    559476.062 9
  25061694.296     -904243.882 5   -598391.544 9
  21532594.421      532053.840 7    407963.761 9
  23202330.765      245591.469 6    121458.893 9
 94  3 23 23 13 30.0030000  0  6 15  2 26  4  7 27
  25059933.905      196066.248 5     82491.259 9
  22258880.968       89987.447 8     52177.709 9
  23935158.882      768487.745 6    585214.779 9
  25044749.936     -993281.705 5   -667771.418 9
  21537119.124      555829.920 7    426490.590 9
  23222183.233      349915.678 6    202750.390 9
 94  3 23 23 14  0.0030000  0  6 15  2 26  4  7 27
  25071910.296      259003.525 5    131533.277 9
  22264021.007      117000.865 8     73227.123 9
  23941532.132      801976.154 6    611309.611 9
  25027804.194    -1082334.453 5   -737162.883 9
  21541721.687      580018.274 7    445338.671 9
  23242096.319      454558.205 6    284289.923 9
 94  3 23 23 14 30.0030000  0  6 15  2 26  4  7 27
  25083979.757      322432.222 5    180958.222 9
  22269188.374      144154.407 8     94385.725 9
  23947990.538      835915.376 6    637755.723 9
  25010857.186    -1171387.878 5   -806554.873 9
  21546404.421      604626.199 7    464513.696 9
  23262066.030      559500.976 6    366063.422 9
 94  3 23 23 15  0.0030000  0  6 15  2 26  4  7 27
  25096142.155      386348.573 5    230763.157 8
  22274380.765      171440.260 8    115647.427 9
  23954533.296      870298.646 6    664547.858 9
  24993913.296    -1260429.228 5   -875937.447 9
  21551166.319      629649.655 7    484012.506 9
  23282091.562      664735.302 6    448064.111 9
 94  3 23 23 15 30.0030000  0  6 15  2 26  4  7 27
  25108398.007      450748.484 5    280944.890 9
  22279598.210      198857.929 8    137011.840 9
  23961161.327      905128.435 6    691687.926 9
  24976971.991    -1349454.234 5   -945307.227 9
  21556007.132      655089.004 7    503835.390 9
  23302171.882      770256.554 6    530288.374 9
 94  3 23 23 16  0.0030000  0  6 15  2 26  4  7 27
  25120744.991      515631.948 5    331503.455 9
  22284846.288      226436.226 8    158501.416 9
  23967874.515      940410.253 6    719180.219 9
  24960032.483    -1438468.646 5  -1014668.822 9
  21560927.991      680947.373 7    523984.779 9
  23322308.038      876074.472 6    612743.812 9
 94  3 23 23 16 30.0030000  0  6 15  2 26  4  7 27
  25133183.780      581002.534 5    382441.551 9
  22290126.991      254187.734 8    180125.970 9
  23974674.874      976143.408 6    747024.204 9
  24943097.022    -1527464.091 5  -1084015.587 9
  21565927.905      707222.521 7    544458.933 9
  23342507.897      982224.070 6    695457.697 9
 94  3 23 23 17  0.0040000  0  6 15  2 26  4  7 27
  25145717.832      646866.702 5    433764.259 9
  22295443.457      282125.374 8    201895.557 9
  23981563.340     1012343.031 6    775231.666 9
  24926163.582    -1616443.927 5  -1153350.229 9
  21571004.637      733901.111 7    565247.454 9
  23362774.441     1088725.609 6    778445.821 9
 94  3 23 23 17 30.0040000  0  6 15  2 26  4  7 27
  25158343.902      713221.343 5    485469.120 9
  22300795.777      310251.800 8    223812.253 9
  23988540.613     1049007.837 6    803801.615 9
  24909235.684    -1705410.278 5  -1222674.307 9
  21576158.434      760984.307 7    586351.246 9
  23383106.863     1195574.299 6    861704.462 9
 94  3 23 23 18  0.0040000  0  6 15  2 26  4  7 27
  25171063.848      780065.274 5    537555.272 9
  22306181.832      338555.525 8    245867.104 9
  23995604.215     1086131.415 6    832729.048 9
  24892305.644    -1794371.186 5  -1291994.160 9
  21581385.293      788451.935 7    607754.596 9
  23403505.426     1302765.625 6    945230.093 9
 94  3 23 23 18 30.0040000  0  6 15  2 26  4  7 27
  25183878.621      847401.440 5    590024.991 9
  22311597.770      367017.744 8    268045.457 9
  24002756.387     1123713.341 6    862013.644 9
  24875380.809    -1883310.073 5  -1361296.861 9
  21586685.254      816303.683 7    629457.259 9
  23423964.598     1410280.248 6   1029007.626 9
 94  3 23 23 19  0.0040000  0  6 15  2 26  4  7 27
  25196784.379      915224.370 5    642874.077 9
  22317041.504      395625.334 8    290337.086 9
  24009993.824     1161742.453 6    891646.672 9
  24858458.449    -1972236.066 5  -1430589.510 9
  21592058.254      844538.961 7    651458.781 9
  23444479.129     1518084.243 6   1113010.666 9
 94  3 23 23 19 30.0040000  0  6 15  2 26  4  7 27
  25209782.816      983530.262 5    696099.474 9
  22322511.394      424367.489 8    312733.533 9
  24017313.035     1200210.387 6    921621.648 9
  24841540.426    -2061140.337 5  -1499865.262 9
  21597506.223      873169.457 7    673768.320 9
  23465045.941     1626163.375 6   1197228.090 9
 94  3 23 23 20  0.0040000  0  5  2 26  4  7 27
  22328005.238      453240.198 8    335231.788 9
  24024718.598     1239121.857 6    951942.236 9
  24824630.676    -2149998.504 5  -1569105.066 9
  21603028.871      902190.860 7    696382.346 9
  23485664.160     1734513.075 6   1281656.341 9
 94  3 23 23 20 30.0040000  0  5  2 26  4  7 27
  22333526.355      482253.754 8    357839.752 9
  24032206.582     1278476.586 6    982608.219 9
  24807731.957    -2238801.772 5  -1638302.099 9
  21608627.090      931608.509 7    719305.201 9
  23506333.262     1843128.916 6   1366291.985 9
 94  3 23 23 21  0.0040000  0  5  2 26  4  7 27
  22339075.926      511414.545 8    380562.449 9
  24039779.496     1318270.809 6   1013616.670 9
  24790843.371    -2327545.761 5  -1707452.941 9
  21614297.738      961407.812 7    742525.446 9
  23527054.332     1952017.983 6   1451140.526 9
 94  3 23 23 21 30.0040000  0  5  2 26  4  7 27
  22344652.996      540725.285 8    403401.993 9
  24047433.824     1358495.951 6   1044960.905 9
  24773971.512    -2416214.616 5  -1776545.246 9
  21620040.605      991586.781 7    766041.538 9
  23547829.832     2061193.151 6   1536212.003 9
 94  3 23 23 22  0.0040000  0  6  9  2 26  4  7 27
  25366284.941      -48272.38815
  22350261.910      570197.202 8    426367.126 9
  24055170.449     1399149.057 6   1076638.613 9
  24757112.098    -2504809.996 5  -1845580.276 9
  21625853.871     1022134.801 7    789845.206 9
  23568659.238     2170653.391 6   1621505.612 9
 94  3 23 23 22 30.0040000  0  6  9  2 26  4  7 27
  25350081.957     -133420.120 5     -2208.88819
  22355901.637      599833.896 8    449460.655 9
  24062986.191     1440222.257 6   1108643.673 9
  24740262.402    -2593350.862 5  -1914572.898 9
  21631738.309     1053057.878 7    813941.125 9
  23589542.152     2280393.262 6   1707017.110 9
 94  3 23 23 23  0.0040000  0  6  9  2 26  4  7 27
  25333888.957     -218516.163 5    -68517.466 9
  22361569.801      629622.035 8    472672.191 9
  24070880.496     1481703.947 6   1140967.018 9
  24723421.019    -2681856.045 5  -1983537.679 9
  21637692.512     1084349.016 7    838323.846 9
  23610478.293     2390412.336 6   1792746.165 9
 94  3 23 23 23 30.0040000  0  6  9  2 26  4  7 27
  25317707.113     -303554.914 5   -134781.391 9
  22367269.098      659569.703 8    496008.036 9
  24078852.824     1523603.495 6   1173615.978 9
  24706582.973    -2770339.954 5  -2052485.888 9
  21643720.371     1116023.992 7    863005.657 9
  23631466.902     2500708.259 6   1878690.956 9
 94  3 23 23 24  0.0040000  0  6  9  2 26  4  7 27
  25301536.801     -388528.884 5   -200994.821 9
  22372995.051      689661.317 8    519456.050 9
  24086907.488     1565930.774 6   1206598.253 9
  24689743.816    -2858823.427 5  -2121433.767 9
  21649820.082     1148078.053 7    887982.863 9
  23652504.816     2611265.173 6   1964839.105 9
 94  3 23 23 24 30.0040000  0  6  9  2 26  4  7 27
  25285379.738     -473435.769 5   -267156.043 9
  22378746.473      719886.749 8    543008.332 9
  24095043.402     1608686.192 6   1239914.127 9
  24672904.754    -2947312.401 5  -2190385.980 9
  21655993.027     1180517.655 7    913260.492 9
  23673595.832     2722099.690 6   2051203.574 9
 94  3 23 23 25  0.0040000  0  6  9  2 26  4  7 27
  25269234.871     -558277.535 5   -333266.440 9
  22384524.480      750247.462 8    566666.033 9
  24103263.512     1651878.989 6   1273570.821 9
  24656068.246    -3035790.254 6  -2259329.470 9
  21662238.269     1213336.505 7    938833.636 9
  23694742.059     2833221.946 6   2137792.233 9
 94  3 23 23 25 30.0040000  0  6  9  2 26  4  7 27
  25253103.066                      -48024.88815
  22390325.910      780736.561 8    590423.771 9
  24111565.559     1695506.840 6   1307566.510 9
  24639236.098      -67806.49615
  21668555.480     1246533.679 7    964701.581 9
  23715942.332     2944628.159 6   2224602.165 9
 94  3 23 23 26  0.0040000  0  6  9  2 26  4  7 27
  25236984.238     -132729.732 5    -19794.96518
  22396151.137      811347.732 8    614276.631 9
  24119947.418     1739553.515 6   1341888.560 9
  24622412.262     -156214.480 5    -52810.31319
  21674942.535     1280098.025 7    990855.632 9
  23737197.137     3056323.942 6   2311637.737 9
 94  3 23 23 26 30.0040000  0  6  9  2 26  4  7 27
  25220873.738     -217390.608 5    -85764.422 9
  22402000.066      842085.040 8    638227.780 9
  24128403.215     1783990.381 6   1376514.659 9
  24605596.637     -244581.813 5   -121667.698 9
  21681395.402     1314007.532 7   1017278.639 9
  23758505.434     3168296.803 6   2398889.205 9
 94  3 23 23 27  0.0040000  0  6  9  2 26  4  7 27
  25204775.434     -301988.022 5   -151684.436 9
  22407876.152      872964.066 8    662289.357 9
  24136933.496     1828819.292 6   1411446.231 9
  24588794.949     -332872.566 5   -190465.440 9
  21687912.473     1348256.251 7   1043965.970 9
  23779862.285     3280532.155 6   2486345.218 9
 94  3 23 23 27 30.0040000  0  6  9  2 26  4  7 27
  25188691.012     -386511.652 5   -217546.933 9
  22413780.699      903991.928 8    686466.917 9
  24145538.090     1874032.506 6   1446677.284 9
  24572008.730     -421088.928 6   -259205.153 9
  21694494.668     1382844.362 7   1070917.762 9
  23801268.348     3393017.044 6   2573995.673 9
 94  3 23 23 28  0.0040000  0  6  9  2 26  4  7 27
  25172621.074     -470958.898 5   -283349.887 9
  22419714.082      935172.081 8    710763.145 9
  24154213.816     1919627.914 6   1482206.137 9
  24555235.410     -509227.170 5   -327884.043 9
  21701139.449     1417764.503 7   1098128.276 9
  23822718.848     3505739.607 6   2661831.324 9
 94  3 23 23 28 30.0040000  0  6  9  2 26  4  7 27
  25156569.254     -555313.893 5   -349080.992 9
  22425677.019      966507.055 8    735180.013 9
  24162965.918     1965617.608 6   1518042.240 9
  24538478.809     -597285.620 6   -396500.767 9
  21707848.168     1453019.304 7   1125599.563 9
  23844212.004     3618690.167 6   2749844.643 9
 94  3 23 23 29  0.0040000  0  6  9  2 26  4  7 27
  25140538.230     -639557.071 5   -414724.929 9
  22431669.785      997999.437 8    759719.527 9
  24171794.613     2012014.041 6   1554195.265 9
  24521738.348     -685257.143 6   -465049.751 9
  21714622.270     1488617.018 7   1153338.053 9
  23865750.230     3731871.996 6   2838038.170 9
 94  3 23 23 29 30.0040000  0  6  9  2 26  4  7 27
  25124527.207     -723697.359 5   -480288.705 9
  22437692.332     1029648.186 8    784380.902 9
  24180700.746     2058815.744 6   1590664.085 9
  24505010.613     -773158.400 6   -533543.963 9
  21721463.621     1524567.420 7   1181351.370 9
  23887332.645     3845288.192 6   2926414.304 9
 94  3 23 23 30  0.0040000  0  6  9  2 26  4  7 27
  25108537.895     -807723.949 5   -545763.874 9
  22443746.301     1061462.355 8    809171.164 9
  24189684.770        7896.01716
  24488300.199     -860973.634 6   -601971.173 9
  21728374.715     1560886.351 7   1209651.847 9
  23908962.371     3958951.078 6   3014982.668 9
 94  3 23 23 30 30.0040000  0  6  9  2 26  4  7 27
  25092568.121     -891642.446 6   -611154.827 9
  22449834.223     1093454.290 8    834099.948 9
  24198748.457       55523.726 6
  24471605.074     -948703.509 6   -670331.858 9
  21735356.637     1597577.142 7   1238242.084 9
  23930639.754       64579.36316
 94  3 23 23 31  0.0040000  0  6  9  2 26  4  7 27
  25076618.949     -975456.652 6   -676464.534 9
  22455957.637     1125632.332 8    859173.745 9
  24207889.934      103564.543 6     31216.24519
  24454931.746    -1036324.177 6   -738607.504 9
  21742410.434     1634644.566 7   1267125.795 9
  23952367.551      178760.146 6     59334.42119
 94  3 23 23 31 30.0040000  0  6  9  2 26  4  7 27
  25060686.996    -1059176.808 6   -741700.944 9
  22462112.426     1157976.445 8    884376.953 9
  24217109.340      152010.095 6     68965.996 9
  24438279.113    -1123832.020 6   -806795.196 9
  21749534.293     1672081.243 7   1296297.239 9
  23974146.254      293205.242 6    148512.301 9
 94  3 23 23 32  0.0040000  0  6  9  2 26  4  7 27
  25044776.270    -1142788.878 6   -806853.148 9
  22468297.730     1190480.911 8    909705.106 9
  24226404.832      200858.547 6    107029.699 9
  24421650.418    -1211216.644 6   -874886.910 9
  21756727.543     1709882.158 7   1325752.501 9
  23995977.387      407927.601 6    237906.224 9
 94  3 23 23 32 30.0040000  0  6  9  2 26  4  7 27
  25028885.973    -1226293.103 5   -871921.302 9
  22474512.137     1223137.110 8    935151.487 9
  24235775.707      250102.013 6    145401.199 9
  24405045.355    -1298475.100 6   -942880.286 9
  21763987.645     1748034.105 7   1355481.293 9
  24017860.191      522924.292 6    327513.915 9
 94  3 23 23 33  0.0040000  0  6  9  2 26  4  7 27
  25013016.809    -1309684.282 5   -936901.387 9
  22480751.074     1255921.943 8    960698.112 9
  24245218.027      299719.872 6    184064.430 9
  24388462.996    -1385615.168 6  -1010781.427 9
  21771313.949     1786534.840 7   1385481.870 9
  24039792.301      638181.623 6    417324.715 9
 94  3 23 23 33 30.0040000  0  6  9  2 26  4  7 27
  24997169.715    -1392959.834 5  -1001791.353 9
  22487013.652     1288833.275 8    986343.300 9
  24254728.402      349696.698 6    223007.373 9
  24371897.691    -1472666.714 6  -1078613.596 9
  21778706.012     1825381.139 7   1415751.711 9
  24061771.699      753678.924 6    507322.487 9
 94  3 23 23 34  0.0040000  0  6  9  2 26  4  7 27
  24981345.160    -1476119.780 5  -1066591.238 9
  22493306.965     1321904.542 8   1012113.112 9
  24264307.691      400031.384 6    262229.170 9
  24355349.723    -1559623.866 6  -1146372.206 9
  21786163.762     1864570.364 7   1446288.766 9
  24083793.824      869403.672 6    597497.493 9
 94  3 23 23 34 30.0040000  0  6  9  2 26  4  7 27
  24965540.387    -1559174.456 5  -1131309.097 9
  22499633.551     1355151.898 8   1038020.142 9
  24273955.699      450734.051 6    301737.693 9
  24338822.137    -1646477.858 6  -1214050.434 9
  21793686.473     1904102.972 7   1477093.393 9
  24105855.019      985337.776 6    687835.642 9
 94  3 23 23 35  0.0040000  0  6  9  2 26  4  7 27
  24949756.965    -1642117.375 5  -1195939.853 9
  22505996.168     1388586.557 8   1064073.119 9
  24283676.191      501812.202 6    341538.825 9
  24322313.676    -1733229.229 6  -1281648.705 9
  21801275.082     1943980.655 7   1508166.915 9
  24127956.191     1101479.833 6    778335.825 9
 94  3 23 23 35 30.0040000  0  6  9  2 26  4  7 27
  24933994.738    -1724945.641 5  -1260481.293 9
  22512397.043     1422225.188 7   1090285.040 9
  24293470.012      553281.388 6    381644.635 9
  24305828.832    -1819856.389 6  -1349150.173 9
  21808925.980     1984187.309 7   1539496.773 9
  24150097.457     1217834.811 6    869001.902 9
 94  3 23 23 36  0.0040000  0  6  9  2 26  4  7 27
  24918255.762    -1807656.802 5  -1324931.486 9
  22518834.949     1456055.575 8   1116646.378 9
  24303340.207      605151.053 6    422062.510 9
  24289370.262    -1906344.078 6  -1416542.954 9
  21816637.894     2024712.672 7   1571074.983 9
  24172281.387     1334407.787 6    959837.848 9
 94  3 23 23 36 30.0040000  0  6  9  2 26  4  7 27
  24902540.035    -1890238.091 5  -1389280.478 9
  22525303.730     1490050.165 8   1143135.672 9
  24313285.059      657414.494 6    462787.236 9
  24272937.785    -1992697.195 6  -1483830.895 9
  21824412.410     2065567.985 7   1602910.294 9
  24194508.832     1451213.629 6   1050855.259 9
 94  3 23 23 37  0.0040000  0  6  9  2 26  4  7 27
  24886853.910    -1972670.535 5  -1453513.481 9
  22531802.121     1524199.769 7   1169745.756 9
  24323303.129      710061.177 6    503810.587 9
  24256530.449    -2078918.857 6  -1551016.394 9
  21832249.254     2106750.830 7   1635000.830 9
  24216783.238     1568268.565 6   1142066.777 9
 94  3 23 23 37 30.0040000  0  6  9  2 26  4  7 27
  24871193.840    -2054964.212 5  -1517638.352 9
  22538328.090     1558493.205 7   1196467.917 9
  24333393.840      763085.495 6    545128.193 9
  24240147.348    -2165009.372 6  -1618099.689 9
  21840147.394     2148256.428 7   1667342.864 9
  24239105.379     1685570.411 6   1233470.665 9
 94  3 23 23 38  0.0040000  0  6  9  2 26  4  7 27
  24855560.934    -2137119.484 6  -1581655.384 9
  22544880.184     1592924.008 8   1223297.114 9
  24343553.949      816477.839 6    586732.577 9
  24223787.215    -2250982.630 6  -1685091.627 9
  21848110.144     2190101.520 7   1699949.444 9
  24261473.473     1803117.059 6   1325065.316 9
 94  3 23 23 38 30.0040000  0  6  9  2 26  4  7 27
  24839952.785    -2219137.804 6  -1645565.686 9
  22551460.285     1627502.565 7   1250241.440 9
  24353781.449      870225.299 6    628613.659 9
  24207449.473    -2336839.101 6  -1751992.550 9
  21856137.238     2232283.644 7   1732818.642 9
  24283887.238     1920900.802 5   1416844.716 9
 94  3 23 23 39  0.0040000  0  6  9  2 26  4  7 27
  24824372.598    -2301011.478 6  -1709363.281 9
  22558073.566     1662255.354 7   1277321.537 9
  24364080.449      924341.981 6    670782.466 9
  24191136.121    -2422566.738 6  -1818793.094 9
  21864225.801     2274789.901 7   1765940.417 9
  24306342.668     2038904.995 6   1508795.889 9
 94  3 23 23 39 30.0040000  0  6  9  2 26  4  7 27
  24808818.629    -2382747.336 6  -1773053.496 9
  22564722.020     1697194.521 7   1304546.860 9
  24374449.629      978831.772 6    713241.996 9
  24174849.418    -2508152.759 6  -1885483.293 9
  21872377.559     2317628.221 7   1799320.944 9
  24328837.176     2157113.533 5   1600906.292 9
 94  3 23 23 40  0.0040000  0  6  9  2 26  4  7 27
  24793292.730    -2464338.536 6  -1836630.963 9
  22571407.043     1732324.480 8   1331920.855 9
  24384886.855     1033681.347 6    755981.875 9
  24158589.160    -2593596.657 6  -1952062.734 9
  21880590.230     2360786.825 7   1832951.039 9
  24351367.082     2275509.025 5   1693162.369 9
 94  3 23 23 40 30.0040000  0  6  9  2 26  4  7 27
  24777795.957    -2545773.864 5  -1900086.991 9
  22578127.684     1767642.451 7   1359441.355 9
  24395392.363     1088888.466 6    799000.356 9
  24142358.894    -2678887.250 6  -2018522.717 9
  21888861.285     2404249.967 7   1866818.438 9
  24373933.152     2394093.858 5   1785565.989 9
 94  3 23 23 41  0.0040000  0  6  9  2 26  4  7 27
  24762329.559    -2627048.829 5  -1963418.060 9
  22584882.879     1803141.011 7   1387102.567 9
  24405965.668     1144452.218 6    842296.735 9
  24126160.902    -2764005.909 6  -2084848.748 9
  21897191.363     2448025.586 7   1900929.326 9
  24396538.707     2512884.316 5   1878129.822 9
 94  3 23 23 41 30.0040000  0  6  9  2 26  4  7 27
  24746894.035    -2708163.292 5  -2026624.044 9
  22591669.269     1838803.278 7   1414891.348 9
  24416605.371     1200361.479 6    885862.352 9
  24109996.074    -2848952.716 6  -2151040.866 9
  21905583.848     2492128.094 7   1935294.929 9
  24419185.887     2631894.151 5   1970864.601 9
 94  3 23 23 42  0.0040000  0  6  9  2 26  4  7 27
  24731489.715    -2789110.711 5  -2089699.903 9
  22598485.566     1874623.139 7   1442802.925 9
  24427309.184     1256609.531 6    929691.933 9
  24093862.543    -2933734.355 6  -2217104.290 9
  21914038.402     2536557.680 7   1969915.398 9
  24441876.730     2751133.580 5   2063778.291 9
 94  3 23 23 42 30.0040000  0  6  9  2 26  4  7 27
  24716116.957    -2869897.166 6  -2152650.289 9
  22605330.543     1910593.889 7   1470832.081 9
  24438080.207     1313209.616 6    973795.847 9
  24077760.668    -3018351.671 6  -2283039.669 9
  21922557.348     2581325.038 7   2004799.062 9
  24464612.496     2870610.002 6   2156876.652 9
 94  3 23 23 43  0.0040000  0  6  9  2 26  4  7 27
  24700772.723    -2950530.971 5  -2215481.768 9
  22612206.230     1946724.622 7   1498985.895 9
  24448918.262     1370167.488 6   1018178.553 9
  24061687.332    -3102813.385 6  -2348853.795 9
  21931141.996     2626437.817 7   2039951.887 9
  24487389.105     2990301.351 5   2250142.467 9
 94  3 23 23 43 30.0040000  0  6  9  2 26  4  7 27
  24685457.660    -3031010.446 6  -2278192.959 9
  22619114.621     1983027.643 7   1527273.961 9
  24459829.066     1427505.663 6   1062857.603 9
  24045642.988    -3187128.326 6  -2414553.573 9
  21939791.129     2671887.954 7   2075367.581 9
  24510202.730     3110188.089 5   2343560.552 9
 94  3 23 23 44  0.0040000  0  6  9  2 26  4  7 27
  24670171.254    -3111339.714 6  -2340787.122 9
  22626056.215     2019506.581 7   1555699.105 9
  24470813.629     1485228.044 6   1107836.039 9
  24029628.684    -3271284.779 6  -2480129.870 9
  21948499.691     2717651.658 7   2111027.619 9
  24533050.488     3230254.514 5   2437118.624 9
 94  3 23 23 44 30.0040000  0  6  9  2 26  4  7 27
  24654914.496    -3191517.027 6  -2403262.886 9
  22633032.059     2056166.381 7   1584265.180 9
  24481872.027     1543338.048 6   1153116.524 9
  24013648.066    -3355261.997 6  -2545566.470 9
  21957265.527     2763716.213 7   2146922.090 9
  24555930.715     3350491.257 5   2530809.449 9
 94  3 23 23 45  0.0040000  0  6  9  2 26  4  7 27
  24639686.621    -3271541.414 6  -2465619.463 9
  22640045.184     2093017.885 7   1612980.628 9
  24492998.348     1601806.669 6   1198676.430 9
  23997703.652    -3439046.521 6  -2610852.941 9
  21966086.840     2810072.699 7   2183044.036 9
  24578843.934     3470898.627 5   2624633.204 9
 94  3 23 23 45 30.0040000  0  6  9  2 26  4  7 27
  24624487.590    -3351409.265 6  -2527854.106 9
  22647094.676     2130064.011 7   1641847.735 9
  24504187.426     1660610.891 6   1244497.856 9
  23981798.848    -3522624.434 6  -2675978.425 9
  21974963.027     2856717.534 7   2219390.672 9
  24601793.012     3591497.030 5   2718605.809 9
 94  3 23 23 46  0.0040000  0  6  9  2 26  4  7 27
  24609321.207    -3431113.332 6  -2589961.085 9
  22654180.715     2167304.003 7   1670865.909 9
  24515433.918     1719710.343 6   1290549.343 9
  23965935.254    -3605988.618 6  -2740937.344 9
  21983895.809     2903660.628 7   2255969.715 9
  24624777.887     3712281.670 5   2812723.553 9
 94  3 23 23 46 30.0040000  0  6  9  2 26  4  7 27
  24594187.418    -3510640.090 6  -2651929.930 9
  22661305.379     2204744.332 7   1700040.182 9
  24526732.957     1779085.472 6   1336815.639 9
  23950109.801    -3689154.619 6  -2805741.842 9
  21992886.644     2950907.634 7   2292785.576 9
  24647799.394     3833259.519 5   2906991.860 9
 94  3 23 23 47  0.0040000  0  6  9  2 26  4  7 27
  24579088.582    -3589984.983 6  -2713757.067 9
  22668467.637     2242380.309 7   1729366.910 9
  24538082.801     1838727.635 6   1383290.008 9
  23934317.035    -3772148.449 6  -2870412.174 9
  22001935.746     2998460.680 7   2329839.907 9
  24670857.129     3954429.792 5   3001410.068 9
 94  3 23 23 47 30.0040000  0  6  9  2 26  4  7 27
  24564025.480    -3669140.908 6  -2775436.946 9
  22675663.949     2280198.399 7   1758835.544 9
  24549485.176     1898643.210 6   1429977.423 9
  23918552.488    -3854985.424 6  -2934960.291 9
  22011040.285     3046305.676 7   2367121.732 9
  24693948.207     4075773.685 5   3095963.604 9
 94  3 23 23 48  0.0040000  0  6  9  2 26  4  7 27
  24549001.340      -60510.07416
  22682892.840     2318186.560 7   1788436.708 9
  24560941.051     1958848.449 6   1476890.560 9
  23902817.629    -3937671.230 6  -2999390.626 9
  22020195.613     3094417.196 7   2404611.238 9
  24717069.027     4197271.902 5   3190637.351 9
 94  3 23 23 48 30.0040000  0  6  9  2 26  4  7 27
  24534014.160     -139265.322 6    -18393.47019
  22690153.176     2356339.283 7   1818166.101 9
  24572455.293     2019356.755 6   1524039.843 9
  23887112.613    -4020204.361 6  -3063701.980 9
  22029399.723     3142785.183 7   2442300.590 9
  24740221.535     4318938.213 5   3285442.127 9
 94  3 23 23 49  0.0040000  0  6  9  2 26  4  7 27
  24519062.832     -217835.205 6    -79616.679 9
  22697443.387     2394649.204 7   1848017.984 9
  24584029.223     2080181.518 6   1571435.722 9
  23871439.262    -4102567.977 6  -3127881.252 9
  22038653.238     3191412.715 7   2480192.182 9
  24763403.730     4440759.808 5   3380367.862 9
 94  3 23 23 49 30.0040000  0  6  9  2 26  4  7 27
  24504145.137     -296229.170 6   -140702.824 9
  22704760.910     2433102.770 7   1877981.799 9
  24595660.941       46886.89515
  23855801.285    -4184747.270 6  -3191916.897 9
  22047955.379     3240295.216 7   2518282.451 9
  24786610.730     4562715.493 5   3475398.101 9
 94  3 23 23 50  0.0040000  0  6  9  2 26  4  7 27
  24489256.527     -374465.746 6   -201666.312 9
  22712103.027     2471684.607 7   1908045.563 9
  24607348.441      108302.693 6     39893.26919
  23840198.340    -4266738.515 6  -3255806.015 9
  22057305.348     3289430.679 7   2556569.831 9
  24809841.910     4684793.444 5   3570523.602 9
 94  3 23 23 50 30.0040000  0  6  9  2 26  4  7 27
  24474394.394     -452569.411 6   -262526.230 9
  22719468.707       14205.603 7
  24619088.879      169997.386 6     87966.997 9
  23824631.543    -4348539.921 6  -3319547.212 9
  22066708.012     3338841.393 7   2595071.696 9
  24833095.832     4806994.272 5   3665744.822 9
 94  3 23 23 51  0.0040000  0  6  9  2 26  4  7 27
  24459558.973     -530529.586 6   -323274.358 9
  22726858.254       53040.886 7     17159.32119
  24630881.527      231967.791 6    136255.573 9
  23809101.293    -4430153.343 6  -3383141.936 9
  22076162.043     3388522.934 7   2633784.587 9
  24856371.113     4929307.440 5   3761053.617 9
 94  3 23 23 51 30.0040000  0  6  9  2 26  4  7 27
  24444753.230     -608335.785 6   -383902.494 9
  22734274.027       92010.640 7     47525.355 9
  24642725.215      294206.687 6    184753.354 9
  23793607.090    -4511575.046 6  -3446587.271 9
  22085667.684     3438473.092 7   2672706.789 9
  24879671.184     5051747.176 5   3856461.011 9
 94  3 23 23 52  0.0040000  0  6  9  2 26  4  7 27
  24429975.863     -685988.358 6   -444410.929 9
  22741715.809      131117.783 7     77998.450 9
  24654621.543      356724.555 5    233468.520 9
  23778148.684    -4592807.800 6  -3509885.370 9
  22095222.512       28483.49917
  24902998.277     5174332.412 5   3951981.808 9
 94  3 23 23 52 30.0040000  0  6  9  2 26  4  7 27
  24415228.598     -763484.342 6   -504797.342 9
  22749184.824      170367.960 7    108582.993 9
  24666568.262      419502.728 5    282386.528 9
  23762724.988    -4673861.674 6  -3573044.063 9
  22104824.770       78944.315 7     24921.67119
  24926354.426     5297068.001 5   4047619.719 9
 94  3 23 23 53  0.0040000  0  6  9  2 26  4  7 27
  24400513.551     -840814.488 6   -565054.522 9
  22756681.465      209763.080 7    139280.482 9
  24678561.316      482531.766 5    331500.002 9
  23747333.301    -4754743.941 6  -3636069.047 9
  22114470.996      129637.401 7     64422.775 9
  24949735.926     5419939.415 5   4143363.472 8
 94  3 23 23 53 30.0040000  0  6  9  2 26  4  7 27
  24385827.996     -917984.813 6   -625187.178 9
  22764204.762      249297.846 7    170086.783 9
  24690604.035      545815.392 5    380811.865 9
  23731975.637    -4835447.636 6  -3698954.898 9
  22124162.543      180565.491 7    104106.991 9
  24973141.590     5542937.873 5   4239206.217 9
 94  3 23 23 54  0.0040000  0  7  9  2 26  4  7 27 12
  24371172.176     -995000.441 6   -685199.291 9
  22771754.254      288971.269 7    201001.136 9
  24702694.894      609348.455 5    430318.092 9
  23716650.035    -4915984.524 6  -3761710.761 9
  22133895.012      231710.680 7    143960.377 9
  24996567.293     5666038.285 5   4335128.406 9
  25300634.277      -78989.081 3    -76400.771 9
 94  3 23 23 54 30.0040000  0  7  9  2 26  4  7 27 12
  24356545.543    -1071864.709 6   -745093.452 9
  22779331.441      328788.618 7    232027.635 9
  24714829.082      673113.473 5    480005.057 9
  23701355.160    -4996358.493 6  -3824339.680 9
  22143667.543      283066.126 7    183977.608 9
  25020005.910     5789209.280 5   4431105.644 9
  25285074.285     -160757.847 3   -140116.615 9
 94  3 23 23 55  0.0040000  0  7  9  2 26  4  7 27 12
  24341946.426    -1148585.616 6   -804875.914 9
  22786934.301      368743.461 7    263161.277 9
  24727008.348      737111.680 6    529873.726 9
  23686091.418    -5076566.904 6  -3886839.600 9
  22153479.402      334627.880 7    224155.594 9
  25043455.090     5912434.241 5   4527124.820 9
  25269503.168     -242579.634 3   -203873.754 9
 94  3 23 23 55 30.0040000  0  7  9  2 26  4  7 27 12
  24327372.910    -1225169.264 6   -864551.426 9
  22794563.566      408835.366 7    294401.713 9
  24739228.207      801329.045 5    579913.164 9
  23670860.840    -5156606.718 6  -3949208.142 9
  22163328.754      386384.285 7    264485.262 9
  25066912.246     6035705.934 5   4623180.549 9
  25253923.043     -324457.691 3   -267674.759 9
 94  3 23 23 56  0.0040000  0  7  9  2 26  4  7 27 12
  24312827.426    -1301605.515 6   -924112.077 9
  22802220.902      449073.284 7    325755.927 9
  24751486.230      865746.475 5    630108.494 9
  23655661.418    -5236478.914 6  -4011446.082 9
  22173212.871      438326.473 7    304959.694 9
  25090380.418     6159027.923 5   4719275.338 9
  25238331.426     -406391.386 4   -331519.089 9
 94  3 23 23 56 30.0040000  0  7  9  2 26  4  7 27 12
  24298311.410    -1377887.338 6   -983552.399 9
  22809904.301      489448.375 7    357217.028 9
  24763780.160      930353.986 5    680451.937 9
  23640494.371    -5316180.871 6  -4073551.373 9
  22183132.723      490456.810 7    345580.741 9
  25113858.980     6282411.152 5   4815417.919 9
  25222728.660     -488384.491 4   -395409.752 9
 94  3 23 23 57  0.0040000  0  7  9  2 26  4  7 27 12
  24283831.480    -1453980.645 6  -1042845.819 9
  22817616.355      529976.817 7    388797.621 9
  24776115.090      995174.912 5    730961.689 9
  23625364.621    -5395689.157 6  -4135505.750 9
  22193090.809      542786.922 7    386357.460 9
  25137357.965     6405891.335 5   4911636.038 9
  25207117.488     -570420.949 4   -459334.196 9
 94  3 23 23 57 30.0040000  0  7  9  2 26  4  7 27 12
  24269390.551    -1529866.296 6  -1101977.426 9
  22825357.582                       14932.054 7
  24788490.871     1060211.439 5    781639.449 9
  23610273.230    -5474993.345 6  -4197301.089 9
  22203087.043      595317.552 7    427290.429 9
  25160874.566     6529474.332 5   5007934.263 9
  25191497.863     -652500.604 4   -523292.265 9
 94  3 23 23 58  0.0040000  0  7  9  2 26  4  7 27 12
  24254990.941    -1605537.395 6  -1160941.853 9
  22833126.199       55755.038 7     16976.16519
  24800910.566     1125474.996 5    832494.114 9
  23595221.902    -5554088.895 6  -4258933.863 9
  22213121.519      648048.723 7    468379.664 9
  25184413.098     6653163.748 5   5104315.453 9
  25175871.191     -734620.182 4   -587281.487 9
 94  3 23 23 58 30.0040000  0  7  9  2 26  4  7 27 12
  24240629.926    -1681005.525 6  -1219748.123 9
  22840919.660       96711.363 7     48890.176 9
  24813373.855     1190968.431 5    883527.908 9
  23580213.012    -5632959.400 6  -4320391.274 9
  22223195.207      700985.865 7    509629.396 9
  25207967.316     6776948.041 5   5200770.533 9
  25160236.715     -816778.519 5   -651300.856 9
 94  3 23 23 59  0.0040000  0  7  9  2 26  4  7 27 12
  24226305.340    -1756283.935 6  -1278406.544 9
  22848740.168      137806.013 7     80911.970 9
  24825879.746     1256686.816 5    934736.944 9
  23565249.973    -5711591.125 6  -4381662.618 9
  22233309.262      754137.996 7    551046.654 9
  25231537.379     6900809.112 5   5297285.435 9
  25144596.184     -898970.378 5   -715346.397 9
 94  3 23 23 59 30.0040000  0  7  9  2 26  4  7 27 12
  24212013.918    -1831383.118 6  -1336925.327 9
  22856587.426      179045.159 7    113046.360 9
  24838426.184     1322624.120 5    986116.611 9
  23550331.926    -5789983.515 6  -4442747.479 9
  22243466.199      807513.649 7    592638.085 9
  25255119.629     7024731.087 5   5393847.835 8
  25128950.934     -981188.328 5   -779412.246 9
 94  3 24  0  0  0.0040000  0  7  9  2 26  4  7 27 12
  24197754.277    -1906318.550 6  -1395316.521 9
  22864462.801      220430.012 7    145294.285 9
  24851013.332     1388764.268 6   1037654.323 9
  23535457.449    -5868149.414 6  -4503655.847 9
  22253664.707      861105.523 7    634398.002 9
  25278710.543     7148700.600 5   5490447.189 8
  25113299.488    -1063434.774 4   -843500.295 9
 94  3 24  0  0 30.0040000  0  7  9  2 26  4  7 27 12
  24183526.309    -1981087.531 6  -1453577.999 9
  22872368.566      261976.294 7    177667.998 9
  24863638.941     1455110.704 6   1089352.775 9
  23520627.957    -5946081.500 6  -4564382.030 9
  22263906.699      914926.067 7    676336.099 9
  25302311.246     7272725.026 5   5587089.469 9
  25097645.379    -1145698.928 4   -907602.182 9
 94  3 24  0  1  0.0040000  0  7  9  2 26  4  7 27 12
  24169331.574    -2055679.883 6  -1511701.842 9
  22880305.035      303681.428 7    210165.496 9
  24876303.355     1521666.193 5   1141214.141 9
  23505836.426    -6023807.434 6  -4624947.573 9
  22274188.887      968960.673 7    718440.996 9
  25325921.309     7396795.410 5   5683767.420 9
  25081986.598    -1227983.262 4   -971719.740 9
 94  3 24  0  1 30.0040000  0  7  9  2 26  4  7 27 12
  24155176.285    -2130066.101 6  -1569665.050 9
  22888273.207      345554.355 7    242793.739 9
  24889012.777     1588451.760 5   1193254.781 9
  23491085.887    -6101321.765 6  -4685348.236 9
  22284513.090     1023215.419 7    760717.434 9
  25349543.176     7520927.320 5   5780493.404 8
  25066326.809    -1310276.883 4  -1035844.610 9
 94  3 24  0  2  0.0040000  0  7  9  2 26  4  7 27 12
  24141065.277    -2204219.166 6  -1627446.600 9
  22896272.410      387590.227 7    275548.963 9
  24901765.121     1655468.295 5   1245475.389 9
  23476377.902    -6178615.203 7  -4745576.768 9
  22294878.160     1077684.924 7    803161.204 9
  25373180.270     7645139.976 4   5877282.244 9
  25050666.426    -1392571.182 4  -1099969.927 9
 94  3 24  0  2 30.0040000  0  7  9  2 26  4  7 27 12
  24126998.793    -2278136.703 6  -1685044.631 9
  22904300.965      429780.085 7    308424.169 9
  24914561.238     1722705.879 5   1297868.258 9
  23461713.145    -6255678.660 7  -4805626.103 9
  22305282.269     1132357.145 7    845762.935 9
  25396831.246     7769427.215 5   5974129.254 9
  25035005.277    -1474870.793 4  -1164099.448 9
 94  3 24  0  3  0.0040000  0  7  9  2 26  4  7 27 12
  24112982.996    -2351792.715 6  -1742438.862 9
  22912360.449      472134.425 7    341427.541 9
  24927395.559     1790151.836 5   1350423.501 9
  23447093.152    -6332508.293 7  -4865493.246 9
  22315723.012     1187225.129 7    888517.207 9
  25420498.004     7893794.406 4   6071038.459 9
  25019344.262    -1557170.053 4  -1228228.641 9
 94  3 24  0  3 30.0040000  0  8  9  2 26  4  7 27 12 24
  24099015.934    -2425191.042 6  -1799632.307 9
  22920449.629      514644.428 7    374552.218 9
  24940264.816     1857781.683 5   1403122.024 9
  23432518.840    -6409095.872 7  -4925171.776 9
  22326198.676     1242273.216 7    931411.817 9
  25444181.894     8018253.211 5   6168019.189 9
  25003682.574    -1639471.984 4  -1292359.942 9
  25511650.551      -94560.566 5
 94  3 24  0  4  0.0040000  0  8  9  2 26  4  7 27 12 24
  24085094.395    -2498351.507 6  -1856640.411 9
  22928566.699      557298.489 7    407789.142 9
  24953163.746     1925566.738 5   1455941.475 9
  23417991.176    -6485438.904 7  -4984659.758 9
  22336705.160     1297485.987 7    974434.751 9
  25467881.926     8142798.297 4   6265067.044 9
  24988020.512    -1721778.472 5  -1356494.794 9
  25493030.293     -192407.966 5    -33040.08619
 94  3 24  0  4 30.0040000  0  8  9  2 26  4  7 27 12 24
  24071212.582    -2571294.105 6  -1913478.746 9
  22936712.832      600103.823 7    441143.942 9
  24966092.230     1993506.329 5   1508881.347 9
  23403510.848    -6561532.027 7  -5043953.002 9
  22347245.020     1352872.762 7   1017593.273 9
  25491596.449     8267412.970 5   6362169.112 8
  24972356.262    -1804093.095 5  -1420635.991 9
  25474401.293     -290300.453 5   -109319.507 9
 94  3 24  0  5  0.0040000  0  8  9  2 26  4  7 27 12 24
  24057372.816    -2644025.153 6  -1970152.243 9
  22944887.941      643066.448 7    474621.305 9
  24979051.074     2061607.598 5   1561947.211 9
  23389077.738    -6637376.972 7  -5103052.867 9
  22357817.895     1408435.065 7   1060888.566 9
  25515324.691     8392105.306 5   6459331.806 8
  24956692.559    -1886408.343 5  -1484777.677 9
  25455764.855     -388233.636 5   -185630.680 9
 94  3 24  0  5 30.0040000  0  8  9  2 26  4  7 27 12 24
  24043568.871    -2716565.999 6  -2026677.531 9
  22953090.074      686170.367 7    508208.763 9
  24992043.184     2129876.275 5   1615143.519 9
  23374695.082    -6712959.386 7  -5161948.176 9
  22368424.996     1464175.317 7   1104322.522 9
  25539065.316     8516863.663 5   6556545.841 9
  24941027.324    -1968728.424 5  -1548923.111 9
  25437119.434     -486215.817 5   -261980.021 9
 94  3 24  0  6  0.0040000  0  8  9  2 26  4  7 27 12 24
  24029799.207    -2788925.869 6  -2083061.797 9
  22961319.559      729415.589 7    541906.332 9
  25005067.496     2198319.930 5   1668476.172 9
  23360361.793    -6788280.571 7  -5220639.937 9
  22379065.809     1520091.730 7   1147893.744 9
  25562814.652     8641661.139 5   6653790.365 9
  24925359.879    -2051060.774 5  -1613078.124 9
  25418463.027     -584253.556 5   -338372.678 9
 94  3 24  0  6 30.0040000  0  8  9  2 26  4  7 27 12 24
  24016065.879    -2861096.240 6  -2139298.403 9
  22969577.691      772811.345 7    575721.194 9
  25018127.543     2266953.517 5   1721956.829 9
  23346076.340    -6863353.707 7  -5279138.402 9
  22389738.418     1576176.875 7   1191596.447 9
  25586568.723     8766496.285 4   6751064.285 9
  24909690.598    -2133404.740 5  -1677242.161 9
  25399798.785     -682334.731 5   -414799.208 9
 94  3 24  0  7  0.0040000  0  8  9  2 26  4  7 27 12 24
  24002368.652    -2933073.957 6  -2195384.892 9
  22977860.191      816337.216 7    609637.439 9
  25031224.441     2335774.516 5   1775583.541 9
  23331835.621    -6938187.332 7  -5337450.227 9
  22400440.629     1632418.244 7   1235420.884 9
  25610329.691     8891362.475 5   6848362.369 8
  24894018.676    -2215758.249 5  -1741413.645 9
  25381129.770     -780440.242 5   -491244.715 9
 94  3 24  0  7 30.0040000  0  8  9  2 26  4  7 27 12 24
  23988712.191    -3004838.581 6  -2251305.332 9
  22986166.621      859986.511 7    643649.869 9
  25044356.207     2404783.597 5   1829356.758 9
  23317639.676    -7012787.275 7  -5395579.969 9
  22411175.348     1688828.642 7   1279377.028 9
  25634094.746     9016244.205 4   6945672.553 9
  24878346.512    -2298116.970 5  -1805589.190 9
  25362455.762     -878568.357 5   -567707.820 9
 94  3 24  0  8  0.0040000  0  8  9  2 26  4  7 27 12 24
  23975098.277    -3076377.794 6  -2307050.136 9
  22994500.090      903778.475 7    677773.461 9
  25057522.715     2473975.389 5   1883272.382 9
  23303486.371      -42118.34217
  22421943.121     1745413.386 7   1323469.031 9
  25657860.137     9141132.696 4   7042988.032 8
  24862674.691    -2380472.825 5  -1869762.516 9
  25343782.754     -976696.487 5   -644170.965 9
 94  3 24  0  8 30.0040000  0  8  9  2 26  4  7 27 12 24
  23961526.941    -3147695.540 6  -2362622.359 9
  23002858.871      947704.975 7    712001.882 9
  25070720.426     2543327.873 5   1937313.219 9
  23289372.324     -116283.992 7    -38507.39219
  22432745.465     1802179.931 7   1367702.694 9
  25681624.457     9266017.371 4   7140300.552 9
  24847001.605    -2462833.671 5  -1933939.713 9
  25325106.684    -1074838.663 5   -720645.031 9
 94  3 24  0  9  0.0040000  0  8  9  2 26  4  7 27 12 24
  23948001.707    -3218772.951 6  -2418007.301 9
  23011247.379      991786.531 7    746351.123 9
  25083946.926     2612836.686 5   1991475.840 9
  23275306.590     -190203.191 7    -96106.687 9
  22443586.387     1859150.085 7   1412095.016 9
  25705388.551     9390899.202 3   7237610.784 9
  24831329.348    -2545190.931 5  -1998114.131 9
  25306425.152    -1173010.889 5   -797142.494 9
 94  3 24  0  9 30.0040000  0  7  9  2 26  4  7 12 24
  23934524.644    -3289595.913 6  -2473193.986 9
  23019670.949     1036052.901 7    780844.380 9
  25097204.426     2682495.581 5   2045755.449 9
  23261291.191     -263852.320 7   -153495.538 9
  22454465.230     1916319.504 7   1456642.607 9
  24815659.238    -2627540.496 5  -2062282.537 9
  25287736.363    -1271217.837 5   -873667.044 9
 94  3 24  0 10  0.0040000  0  7  9  2 26  4  7 12 24
  23921094.082    -3360172.765 6  -2528188.890 9
  23028130.238     1080508.298 7    815484.930 9
  25110484.809     2752285.394 5   2100137.022 9
  23247331.980     -337208.106 7   -210655.805 9
  22465379.269     1973672.248 7   1501333.052 9
  24799988.840    -2709885.943 5  -2126447.740 9
  25269043.309    -1369450.305 5   -950211.460 9
 94  3 24  0 10 30.0040000  0  7  9  2 26  4  7 12 24
  23907711.082    -3430499.850 6  -2582989.172 9
  23036623.332     1125139.047 7    850262.115 9
  25123787.238       53606.84815
  23233432.363     -410252.204 7   -267573.207 9
  22476325.973       44114.87017
  24784320.254    -2792224.456 5  -2190607.564 9
  25250342.496    -1467721.204 5  -1026785.822 9
 94  3 24  0 11  0.0040000  0  7  9  2 26  4  7 12 24
  23894376.137    -3500577.301 6  -2637594.940 9
  23045147.074     1169929.567 7    885163.796 9
  25137109.949      123622.741 5     43650.16519
  23219592.832     -482977.815 7   -324242.425 9
  22487301.473      101792.215 7     35961.58619
  24768653.848    -2874552.628 5  -2254759.325 9
  25231634.769    -1566029.150 5  -1103389.080 9
 94  3 24  0 11 30.0040000  0  7  9  2 26  4  7 12 24
  23881087.387    -3570410.013 7  -2692009.994 9
  23053698.184     1214866.886 7    920179.875 9
  25150454.996      193741.822 5     98288.344 9
  23205811.496                      -12047.96017
  22498305.402      159616.380 7     81019.372 9
  24752990.387    -2956864.124 5  -2318898.097 9
  25212926.582    -1664339.702 5  -1179994.312 9
 94  3 24  0 12  0.0040000  0  7  9  2 26  4  7 12 24
  23867845.340    -3639998.206 7  -2746234.520 9
  23062276.926     1259950.474 7    955309.925 9
  25163819.082      263972.618 5    153013.545 9
  23192084.418      -84182.366 7     -9352.16519
  22509337.262                        9670.44717
  24737330.340    -3039156.853 5  -2383022.222 9
  25194218.973    -1762644.461 5  -1256595.078 9
 94  3 24  0 12 30.0040000  0  7  9  2 26  4  7 12 24
  23854650.988    -3709332.092 7  -2800260.888 9
  23070884.074     1305182.315 7    990555.491 9
  25177207.121      334329.387 5    207836.939 9
  23178408.051     -156053.092 7    -65355.238 9
  22520395.473       67783.337 7      9062.72719
  24721674.762    -3121427.701 5  -2447129.317 9
  25175511.926    -1860952.244 5  -1333198.154 9
 94  3 24  0 13  0.0040000  0  7  9  2 26  4  7 12 24
  23841504.293    -3778416.548 6  -2854092.899 9
  23079522.121     1350572.254 7   1025924.247 9
  25190624.707      404834.669 5    262776.031 9
  23164778.340     -227675.342 7   -121164.693 9
  22531479.269      126028.018 7     54448.190 9
  24706023.355    -3203676.540 5  -2511219.252 9
  25156807.559    -1959243.235 5  -1409788.201 9
 94  3 24  0 13 30.0040000  0  7  9  2 26  4  7 12 24
  23828408.184    -3847237.608 6  -2907719.664 9
  23088194.269     1396144.287 7   1061434.901 9
  25204075.551      475521.405 5    317856.532 9
  23151198.137     -299039.961 7   -176773.392 9
  22542587.668      184401.785 7     99934.231 9
  24690377.894    -3285891.559 5  -2575282.859 9
  25138112.246    -2057487.868 5  -1486342.066 9
 94  3 24  0 14  0.0040000  0  7  9  2 26  4  7 12 24
  23815361.387    -3915799.291 6  -2961144.306 9
  23096897.902     1441883.566 7   1097075.886 9
  25217558.105      546373.230 5    373065.653 9
  23137667.527     -370144.737 7   -232179.612 9
  22553717.574      242889.293 7    145508.904 9
  24674738.488    -3368078.111 5  -2639324.282 9
  25119419.629    -2155712.052 5  -1562880.079 9
 94  3 24  0 14 30.0040000  0  5  9  2 26  4 12
  23802363.535    -3984102.914 6  -3014367.874 9
  23105630.113     1487771.273 7   1132832.529 9
  25231069.199      617374.486 5    428391.221 9
  23124188.246     -440976.852 7   -287373.382 9
  24659105.949    -3450230.090 5  -2703338.768 9
 94  3 24  0 15  0.0040000  0  3  9  2 12
  23789414.301    -4052153.047 6  -3067393.909 9
  23114390.418       16895.50217
  24643480.769    -3532340.397 5
 94  3 24  0 15 30.0040000  0  7  9  2 26  4  7 12 24
  23776514.020    -4119944.748 6  -3120218.564 9
  23123178.809       63078.798 7      3601.66519
  25258165.363       26132.34815
  23097405.754      -53802.27617
  22587258.168       45167.81717
  24627863.144    -3614409.328 5    -49023.53419
  25063368.988      -35991.89215
 94  3 24  0 16  0.0040000  0  4  2 26  4 24
  23131996.215      109412.541 7     39705.846 9
  25271743.379       97483.591 5      3707.02719
  23084105.043      -53557.43917
  25044690.832     -134150.356 5
 94  3 24  0 16 30.0040000  0  4  9  2  4  7
  23750866.715      -11185.13216
  23140845.434                        7761.29117
  23070866.738     -123125.188 7    -32492.16819
  22609775.988       45445.07517
 94  3 24  0 17  0.0040000  0  6  9  2 26  4  7 24
  23738125.551      -78139.725 6
  23149730.160                       54450.328 7
  25298966.738       11937.76415
  23057691.824     -192359.069 7    -86440.569 9
  22621085.668        9915.76317
  25007346.941      -75204.50915
 94  3 24  0 17 30.0040000  0  6  9  2  4  7 12 24
  23725444.316     -144778.703 6    -50190.08819
  23158651.957      101336.413 7     35317.61419
  23044579.301     -261263.992 7   -140132.640 9
  22632428.879        9945.03517
  24565499.184      -79107.328 5    -61642.48119
  24988686.769      -16336.13515
 94  3 24  0 18  0.0040000  0  7  9  2 26  4  7 12 24
  23712826.129     -211088.477 6   -101860.013 9
  23167611.230      148416.570 7     72003.439 9
  25326289.988       11984.64315
  23031530.559     -329833.681 7   -193563.484 9
  22643805.926       69730.648 7
  24549939.574     -160872.746 5   -125355.740 9
  24970038.004      -16326.05715
 94  3 24  0 18 30.0040000  0  7  9  2 26  4  7 12 24
  23700272.137     -277059.290 6   -153265.806 9
  23176607.285      195692.260 7    108841.620 9
  25339994.105       83993.748 5
  23018547.723                      -11345.84717
  22655215.965      129689.504 7     43608.43019
  24534395.012     -242560.479 5   -189008.482 9
  24951402.801      -16312.53215
 94  3 24  0 19  0.0040000  0  7  9  2 26  4  7 12 24
  23687778.816     -342713.014 6   -204424.521 9
  23185641.012      243165.439 7    145833.690 9
  25353721.855       40893.69915
  23005627.879                      -38431.79417
  22666654.230      189798.434 7     90446.551 9
  24518864.559     -324173.300 5   -252602.842 9
  24932781.160      -55442.59815
 94  3 24  0 19 30.0040000  0  3  9  4 12
  23675344.629     -408057.023 7   -255341.909 9
  22992772.902     -105985.717 7    -15762.07019
  24503349.457     -405705.585 5
 94  3 24  0 20  0.0040000  0  5  9  2 26  7 24
  23662967.238     -473099.046 7   -306023.966 9
  23203821.715       27146.91717
  25381247.754       41024.79415
  22689615.105       34244.15117
  24895573.394      -74917.65916
 94  3 24  0 20 30.0040000  0  7  9  2 26  4  7 12 24
  23650644.269     -537856.898 7   -356484.602 9
  23212969.855        8024.05817
  25395040.051      113511.121 5      7533.46719
  22967260.590      -64619.107 7     -1730.45119
  22701135.152       94783.051 7     17306.02219
  24472371.496      -62356.67415
  24876990.363     -172571.729 6
 94  3 24  0 21  0.0040000  0  6  9  2 26  4  7 24
  23638375.621                      -23605.35017
  23222156.895       56302.955 7        -1.32019
  25408850.965                       12098.50515
  22954608.082     -131110.224 7    -53541.638 9
  22712679.707                       22257.56117
  24858419.496     -270158.158 5    -53222.51419
 94  3 24  0 21 30.0040000  0  7  9  2 26  4  7 12 24
  23626164.371                      -10671.67517
  23231381.809                       17794.75217
  25422676.176                       12111.28015
  22942027.059                      -10991.29817
  22724251.004       83066.835 7      7903.45319
  24441465.527      -13517.45615
  24839864.332                      -16242.43515
 94  3 24  0 22  0.0040000  0  5  9  2  4  7 12
  23614015.785                      -74514.808 7
  23240643.988       66470.447 7      7597.08919
  22929520.230      -76714.117 7         1.26619
  22735852.730                       22369.60817
  24426041.926      -94568.767 5    -23145.90019
 94  3 24  0 22 30.0040000  0  7  9  2 26  4  7 12 24
  23601931.488     -138016.870 7    -44520.38419
  23249947.559      115361.275 7     45693.808 9
  25450379.105       26716.69515
  22917089.840     -142037.652 7    -50900.114 9
  22747484.410       83494.598 7      4767.07019
  24410638.699     -175511.464 5    -35729.07519
  24802816.684      -55107.45215
 94  3 24  0 23  0.0040000  0  4  2 26  4 12
  23259294.926      164482.525 7     83970.087 9
  25464260.980       99664.319 5
  22904732.762                      -49748.03517
  24395257.332     -256340.724 5
 94  3 24  0 23 30.0040000  0  2  2 24
  23268686.449      213834.729 7    122426.322 9
  24765865.566      -74370.50616
 94  3 24  0 24  0.0040000  0  5  9  4  7 12 24
  23566088.754      -47829.77517
  22880226.738      -49195.62517
  22782581.676       47280.02817
  24364562.059      -29535.339 5    -12550.44719
  24747425.496      -16140.43116
 94  3 24  0 24 30.0040000  0  7  9  2 26  4  7 12 24
  23554276.605     -109903.882 7    -28987.18819
  23287604.809       28262.55517
  25506059.324       12233.18115
  22868076.730     -113045.094 7    -29816.59719
  22794346.035      109104.593 7     30524.14619
  24349249.441      -13400.81015    -12531.10119
  24729003.441      -74206.02415
 94  3 24  0 25  0.0040000  0  7  9  2 26  4  7 12 24
  23542533.566     -171614.162 7    -77073.091 9
  23297128.996       78314.447 7     15618.03519
  25520045.934       85731.063 5
  22855996.832     -176524.688 7    -79281.138 9
  22806141.652      171089.518 7     78824.073 9
  24333961.598      -93738.301 5    -75131.689 9
  24710600.113     -170917.785 5    -17575.36219
 94  3 24  0 25 30.0040000  0  7  9  2 26  4  7 12 24
  23530861.973     -232949.542 7   -124866.865 9
  23306692.887      128570.764 7     54778.785 9
  25534057.254      159363.950 5     43994.90319
  22843991.785     -239612.963 7   -128440.758 9
  22817966.637      233231.278 7    127246.211 9
  24318699.988     -173937.627 5   -137624.596 9
  24692214.160     -267540.435 6    -92865.571 9
 94  3 24  0 26  0.0040000  0  7  9  2 26  4  7 12 24
  23519263.887     -293896.655 7   -172358.093 9
  23316295.254      179031.627 7     94098.910 9
  25548092.668      233118.002 5    101465.477 9
  22832067.316     -302274.692 7   -177268.006 9
  22829821.113      295525.982 7    175787.519 9
  24303465.793     -253994.170 5   -200006.260 9
  24673843.066     -364077.744 6   -168089.281 9
 94  3 24  0 26 30.0040000  0  7  9  2 26  4  7 12 24
  23507745.527     -354427.415 7   -219524.891 9
  23325938.949      229708.390 7    133587.279 9
  25562151.863      307001.294 5    159036.767 9
  22820228.801     -364484.820 7   -225743.365 9
  22841704.605      357973.886 7    224448.208 9
  24288260.566     -333895.931 5   -262267.317 9
  24655493.840     -460499.406 6   -243222.878 9
 94  3 24  0 27  0.0040000  0  7  9  2 26  4  7 12 24
  23496306.777                       -9987.75117
  23335622.340      280598.145 7    173241.615 9
  25576233.238      380997.740 5    216696.225 9
  22808476.301                      -47306.61317
  22853617.144                       10443.03017
  24273085.613      -13277.756 5    -24839.07019
  24637172.363                      -73798.78616
 94  3 24  0 27 30.0040000  0  7  9  2 26  4  7 12 24
  23484949.121      -69672.109 7     -9274.56819
  23345351.660      331724.103 7    213079.999 9
  25590338.566      455120.885 5    274454.429 9
  22796811.699     -108604.832 7    -41373.58919
  22865563.598                       73223.470 7
  24257942.504      -92853.596 5    -86846.155 9
  24618881.348     -169919.151 6    -64902.18119
 94  3 24  0 28  0.0040000  0  7  9  2 26  4  7 12 24
  23473669.449     -128945.622 7    -55461.690 9
  23355129.059      383103.051 7    253115.520 9
  25604466.738      529361.547 5    332304.154 9
  22785232.035     -169455.589 7    -88789.700 9
  22877543.465      136177.191 7     47419.94419
  24242831.887     -172261.567 5   -148722.447 9
  24600624.402     -265859.228 6   -139660.500 9
 94  3 24  0 28 30.0040000  0  7  9  2 26  4  7 12 24
  23462465.309     -187823.655 7   -101340.645 9
  23364954.644      434737.933 7    293350.474 9
  25618615.793      603713.132 5    390240.402 9
  22773731.988     -229888.136 7   -135879.928 9
  22889554.941      199300.614 7     96607.014 9
  24227752.707     -251504.467 5   -210470.119 9
  24582401.715     -361620.251 6   -214279.284 9
 94  3 24  0 29  0.0040000  0  7  9  2 26  4  7 12 24
  23451332.270     -246326.732 7   -146927.420 9
  23374828.012      486623.000 7    333780.375 9
  25632781.605      678158.850 5    448249.903 9
  22762309.105     -289914.999 7   -182654.045 9
  22901600.559      262598.280 7    145929.856 9
  24212703.941     -330585.091 5   -272091.330 9
  24564211.051     -457211.877 6   -288766.038 9
 94  3 24  0 29 30.0040000  0  7  9  2 26  4  7 12 24
  23440266.777     -304478.145 7   -192240.174 9
  23384747.090      538748.861 7    374397.908 9
  25646963.277      752686.024 5    506322.940 9
  22750962.598     -349542.902 7   -229117.274 9
  22913674.988      326049.254 7    195372.162 9
  24197685.434     -409507.462 5   -333589.226 9
  24546051.824     -552643.269 6   -363127.955 9
 94  3 24  0 30  0.0050000  0  7  9  2 26  4  7 12 24
  23429267.220     -362281.152 7   -237281.437 9
  23394711.087      591109.223 7    415198.170 9
  25661160.134      827284.382 5    564451.422 9
  22739690.337     -408778.248 7   -275274.619 9
  22925776.282      389640.987 7    244924.147 9
  24182696.438     -488274.586 5   -394966.159 9
  24527919.376     -647927.005 6   -437374.807 9
 94  3 24  0 30 30.0050000  0  6  9  2 26  4  7 24
  23418335.813     -419726.642 7   -282044.121 9
  23404714.704      643677.512 7    456160.450 9
  25675367.267                       12445.96215
  22728494.813     -467611.159 7   -321118.380 9
  22937902.767                       10627.43517
  24509813.868     -743067.399 6   -511509.973 9
 94  3 24  0 31  0.0050000  0  7  9  2 26  4  7 12 24
  23407473.681     -476807.251 7   -326522.482 9
  23414756.563      696448.593 7    497280.748 9
  25689589.227       87184.166 4     21357.97219
  22717380.056     -526018.925 7   -366630.856 9
  22950055.243       74488.504 7     18255.18219
  24152809.985      -60126.643 6    -61126.185 9
  24491735.728     -838065.372 6   -585534.182 9
 94  3 24  0 31 30.0050000  0  7  9  2 26  4  7 12 24
  23396681.759     -533516.249 7   -370711.281 9
  23424837.102                       30043.18917
  25703824.423      161995.819 4     79652.679 9
  22706347.782     -583995.289 7   -411807.175 9
  22962233.204      138484.961 7     68122.534 9
  24137912.540     -138412.209 6   -122127.883 9
  24473684.267     -932923.542 6   -659449.438 9
 94  3 24  0 32  0.0050000  0  7  9  2 26  4  7 12 24
  23385966.274     -589826.660 7   -414589.486 9
  23434959.306       83235.075 7     30409.83119
  25718074.860      236880.976 3    138004.623 8
  22695397.063     -641540.971 7   -456647.901 9
  22974440.360      202631.785 7    118107.057 9
  24123046.079     -216535.434 5   -183003.089 9
  24455660.345    -1027644.942 6   -733258.112 9
 94  3 24  0 32 30.0050000  0  7  9  2 26  4  7 12 24
  23375328.470     -645729.382 7   -458150.019 9
  23445126.220      136664.233 7     72042.915 9
  25732338.337      311834.235 3    196409.700 9
  22684530.860     -698642.416 7   -501142.462 9
  22986676.813      266937.574 7    168215.444 9
  24108211.103     -294493.330 5   -243749.462 9
  24437664.157    -1122216.201 6   -806949.802 9
 94  3 24  0 33  0.0050000  0  7  9  2 26  4  7 12 24
  23364767.423     -701227.327 7   -501395.138 9
  23455341.548      190345.821 7    113872.698 9
  25746612.329      386837.441 4    254853.588 9
  22673750.118     -755295.653 7   -545287.777 9
  22998942.462      331395.021 7    218442.011 9
  24093408.181     -372283.929 5   -304365.468 9
  24419697.970    -1216629.022 6   -880518.063 9
 94  3 24  0 33 30.0050000  0  7  9  2 26  4  7 12 24
  23354286.087     -756309.357 7   -544316.168 9
  23465608.352      244298.647 7    155913.830 9
  25760894.548      461885.627 4    313332.587 7
  22663052.571     -811509.973 7   -589091.087 9
  23011239.563      396016.420 7    268796.330 9
  24078639.298     -449896.079 6   -364842.424 9
  24401766.173    -1310858.565 6   -953943.515 9
 94  3 24  0 34  0.0050000  0  7  9  2 26  4  7 12 24
  23343882.243     -810981.976 7   -586918.176 9
  23475925.454      298515.453 7    198160.658 9
  25775184.446      536980.165 4    371847.691 8
  22652437.040     -867294.530 7   -632559.508 9
  23023565.368      460789.433 7    319268.792 9
  24063903.798     -527329.445 6   -425180.078 9
  24383869.938    -1404898.822 6  -1027221.486 9
 94  3 24  0 34 30.0050000  0  6  9  2  4  7 12 24
  23333552.884     -865262.946 7   -629215.004 9
  23486288.790      352974.243 7    240596.043 9
  22641904.079     -922646.936 7   -675691.192 9
  23035916.665      525696.591 7    369845.782 9
  24049203.376     -604581.147 6   -485376.177 9
  24366009.774    -1498752.249 6  -1100353.881 9
 94  3 24  0 35  0.0050000  0  6  9  2  4  7 12 24
  23323297.681     -919153.093 7   -671207.299 9
  23496694.423      407656.090 7    283205.245 9
  22631450.149     -977582.856 7   -718498.346 9
  23048290.056      590716.140 7    420510.344 9
  24034537.704     -681648.819 6   -545428.877 9
  24348183.509    -1592431.256 6  -1173350.377 9
 94  3 24  0 35 30.0050000  0  6  9  2  4  7 12 24
  23313117.954     -972646.616 7   -712890.544 9
  23507142.095      462557.507 7    325985.528 9
  22621075.251    -1032103.992 7   -760982.293 9
  23060683.735      655845.325 7    471260.335 9
  24019907.767     -758529.056 5   -605335.519 9
  24330388.946    -1685944.338 6  -1246217.557 9
 94  3 24  0 36  0.0050000  0  6  9  2  4  7 12 24
  23303015.767    -1025736.660 7   -754259.382 9
  23517630.853      517676.520 6    368935.374 9
  22610784.392    -1086182.457 7   -803121.307 9
  23073095.751      721072.587 7    522086.756 9
  24005314.329     -835217.497 6   -665092.702 9
  24312624.048    -1779298.586 6  -1318960.973 9
 94  3 24  0 36 30.0050000  0  6  9  2  4  7 12 24
  23292991.829    -1078414.502 7   -795307.029 9
  23528161.267      573014.490 6    412055.835 9
  22600581.032    -1139800.375 7   -844901.445 9
  23085525.704      786394.542 7    572986.957 9
  23990757.204     -911715.497 6   -724701.497 9
  24294889.767    -1872493.645 6  -1391580.380 9
 94  3 24  0 37  0.0050000  0  6  9  2  4  7 12 24
  23283049.610    -1130663.639 7   -836020.617 9
  23538737.407      628592.086 6    455363.015 9
  22590466.790    -1192948.961 7   -886315.876 9
  23097976.751      851822.834 7    623970.023 9
  23976237.610     -988016.139 6   -784156.508 9
  24277191.368    -1965496.887 6  -1464050.299 9
 94  3 24  0 37 30.0050000  0  6  9  2  4  7 12 24
  23273187.181    -1182487.050 7   -876402.475 9
  23549360.524      684416.446 6    498862.489 9
  22580446.618    -1245604.796 7   -927346.344 9
  23110450.892      917375.109 7    675049.696 9
  23961755.813    -1064117.903 6   -843456.545 9
  24259532.298    -2058295.526 6  -1536360.788 9
 94  3 24  0 38  0.0050000  0  6  9  2  4  7 12 24
  23263408.376    -1233874.523 7   -916444.641 9
  23560029.470      740481.841 6    542549.776 9
  22570520.642    -1297766.634 7   -967991.882 9
  23122949.610      983056.699 7    726230.138 9
  23947312.220    -1140018.560 5   -902599.860 9
  24241910.415    -2150898.684 6  -1608518.964 9
 94  3 24  0 38 30.0050000  0  6  9  2  4  7 12 24
  23253713.001    -1284821.811 7   -956143.804 9
  23570744.970      796792.572 6    586428.241 9
  22560687.079    -1349443.775 7  -1008259.730 9
  23135474.806     1048877.192 7    777518.815 9
  23932908.454    -1215711.674 6   -961581.461 9
  24224327.696    -2243294.690 6  -1680515.699 9
 94  3 24  0 39  0.0050000  0  6  9  2  4  7 12 24
  23244101.188    -1335332.594 7   -995502.836 9
  23581506.587      853346.161 6    630495.944 9
  22550942.720    -1400650.155 7  -1048160.754 9
  23148023.868     1114823.589 7    828905.598 9
  23918544.274    -1291197.351 6  -1020401.425 9
  24206782.235    -2335497.383 6  -1752361.807 9
 94  3 24  0 39 30.0050000  0  6  9  2  4  7 12 24
  23234572.602    -1385406.348 7  -1034521.318 9
  23592313.071      910134.359 6    674746.456 9
  22541287.102    -1451391.515 7  -1087699.422 9
  23160598.813     1180901.010 7    880394.475 9
  23904220.985    -1366468.434 6  -1079054.177 9
  24189271.954    -2427516.700 6  -1824065.040 9
 94  3 24  0 40  0.0050000  0  6  9  2  4  7 12 24
  23225126.657    -1435045.726 7  -1073201.327 9
  23603162.688      967149.479 6    719173.793 9
  22531714.977    -1501690.856 7  -1126893.667 9
  23173194.923     1247093.814 7    931973.265 9
  23889938.321    -1441525.245 6  -1137539.959 9
  24171798.915    -2519340.257 6  -1895615.704 9
 94  3 24  0 40 30.0050000  0  6  9  2  4  7 12 24
  23215760.313      -37695.21817
  23614059.048     1024410.084 6    763792.428 9
  22522228.876    -1551542.598 7  -1165739.128 9
  23185811.048     1313395.899 7    983637.210 9
  23875696.673    -1516366.057 6  -1195857.427 9
  24154367.040    -2610944.254 6  -1966995.288 9
 94  3 24  0 41  0.0050000  0  6  9  2  4  7 12 24
  23206475.720      -86484.322 7    -30386.83419
  23625002.126     1081916.555 6    808602.635 9
  22512826.970    -1600949.952 7  -1204238.316 9
  23198449.454     1379809.056 7   1035387.701 9
  23861496.431    -1590988.387 6  -1254004.647 9
  24136978.071    -2702323.691 6  -2038199.895 9
 94  3 24  0 41 30.0050000  0  6  9  2  4  7 12 24
  23197272.188     -134849.177 7    -68073.709 9
  23635991.688     1139667.691 6    853603.487 9
  22503508.954    -1649915.404 7  -1242393.164 9
  23211109.298     1446337.897 7   1087228.341 9
  23847337.126    -1665395.178 6  -1311983.919 9
  24119632.102    -2793475.963 6  -2109227.504 9
 94  3 24  0 42  0.0050000  0  6  9  2  4  7 12 24
  23188151.938     -182778.984 7   -105421.581 9
  23647030.673     1197676.417 6    898805.060 9
  22494278.478    -1698420.664 7  -1280189.421 9
  23223790.196     1512980.042 7   1139157.274 9
  23833219.259    -1739583.179 6  -1369792.713 9
  24102326.204    -2884415.467 6  -2180089.305 9
 94  3 24  0 42 30.0050000  0  6  9  2  4  7 12 24
  23179116.735     -230259.365 7   -142419.257 9
  23658118.368     1255942.881 6    944207.471 9
  22485138.556    -1746450.904 7  -1317615.539 9
  23236496.329     1579747.962 7   1191184.215 9
  23819144.235    -1813546.535 6  -1427426.465 9
  24085058.743    -2975155.449 6  -2250795.637 9
 94  3 24  0 43  0.0050000  0  6  9  2  4  7 12 24
  23170167.032     -277290.135 7   -179066.588 9
  23669251.220     1314445.854 6    989794.165 9
  22476087.884    -1794013.283 7  -1354677.091 9
  23249226.001     1646640.717 7   1243308.423 9
  23805112.009    -1887284.034 6  -1484884.228 9
  24067827.876      -15075.31716
 94  3 24  0 43 30.0000000  0  6  9  2  4  7 12 24
  21662338.805     -323878.818 7   -215369.441 9
  22181466.719     1373185.046 6   1035564.933 9
  20968165.672    -1841097.203 7  -1391365.819 9
  21763016.063     1713656.987 7   1295528.885 9
  22292161.813    -1960790.757 6  -1542162.162 9
  22551670.867     -105430.088 6    -18758.45219
 94  3 24  0 44  0.0000000  0  5  9  2  4 12 24
  21653558.406     -370021.967 7   -251325.113 9
  22192687.109     1432150.750 6   1081512.207 9
  20959297.969    -1887697.610 7  -1427677.778 9
  22278218.789    -2034064.189 6  -1599258.310 9
  22534515.461     -195582.489 6    -89006.926 9
 94  3 24  0 44 30.0000000  0  6  9  2  4  7 12 24
  21644863.344     -415717.256 7   -286931.807 9
  22203953.320     1491352.636 6   1127643.509 9
  20950523.984    -1933806.445 7  -1463606.696 9
  21788584.773       64991.22817
  22264320.867    -2107099.953 6  -1656169.265 9
  22517404.305     -285500.901 6   -159073.073 9
 94  3 24  0 45  0.0000000  0  6  9  2  4  7 12 24
  21636252.742     -460964.872 7   -322189.674 9
  22215266.375     1550803.491 6   1173968.809 9
  20941843.969    -1979418.075 7  -1499148.188 9
  21801395.508      132313.368 7     40222.27419
  22250468.984    -2179894.031 6  -1712891.899 9
  22500342.367     -375164.728 6   -228940.850 9
 94  3 24  0 45 30.0000000  0  6  9  2  4  7 12 24
  21627729.766     -505750.835 7   -357087.810 9
  22226628.836     1610513.163 6   1220495.791 9
  20933263.336    -2024509.218 7  -1534284.106 9
  21814222.242      199719.554 7     92746.561 9
  22236663.977    -2252438.227 6  -1769419.830 9
  22483330.359     -464561.701 6   -298600.672 9
 94  3 24  0 46  0.0000000  0  5  9  2  4  7 24
  21619295.617     -550074.155 7   -391625.446 9
  22238041.227     1670486.246 6   1267228.032 9
  20924783.516    -2069070.962 7  -1569007.502 9
  21827064.039      267200.692 7    145329.252 9
  22466367.461     -553700.216 6   -368059.116 9
 94  3 24  0 46 30.0000000  0  6  9  2  4  7 12 24
  21610951.375     -593924.381 7   -425794.436 9
  22249504.828     1730729.363 6   1314170.682 9
  20916405.430    -2113097.703 7  -1603314.019 9
  21839922.742      334773.645 7    197983.485 9
  22209198.117      -26380.737 6    -33652.908 9
  22449455.109     -642577.156 6   -437313.718 9
 94  3 24  0 47  0.0000000  0  7  9  2  5  4  7 12 24
  21602697.188     -637301.676 7   -459594.901 9
  22261014.148     1791208.277 6   1361297.066 9
  24236157.203      -73992.006 6
  20908126.023    -2156607.144 7  -1637217.444 9
  21852800.688      402448.497 7    250717.118 9
  22195539.602      -98157.442 6    -89582.784 9
  22432588.828     -731209.193 6   -506377.506 9
 94  3 24  0 47 30.0000000  0  7  9  2  5  4  7 12 24
  21594534.852     -680194.420 7   -493017.811 9
  22272568.539     1851924.443 6   1408608.323 9
  24221578.594     -150603.136 6    -23883.86219
  20899943.977    -2199603.330 7  -1670720.922 9
  21865701.047      470239.580 7    303541.325 9
  22181930.422     -169673.422 6   -145309.499 9
  22415765.727     -819615.103 6   -575265.082 9
 94  3 24  0 48  0.0000000  0  7  9  2  5  4  7 12 24
  21586466.961     -722590.948 7   -526054.050 9
  22284168.125     1912880.932 6   1456106.835 9
  24206987.398     -227279.477 5    -83631.617 9
  20891857.430    -2242098.347 7  -1703833.883 9
  21878626.922      538163.163 7    356468.775 9
  22168371.211     -240926.926 6   -200831.683 9
  22398985.453     -907796.484 6   -643977.711 9
 94  3 24  0 48 30.0000000  0  7  9  2  5  4  7 12 24
  21578493.344     -764492.264 7   -558704.418 9
  22295810.898     1974064.343 6   1503782.184 9
  24192384.977     -304012.533 5   -143423.523 9
  20883862.133    -2284115.161 7  -1736574.216 9
  21891578.016      606223.163 7    409502.527 9
  22154862.938     -311914.469 6   -256146.624 9
  22382252.109     -995730.730 6   -712497.759 9
 94  3 24  0 49  0.0000000  0  7  9  2  5  4  7 12 24
  21570610.891     -805916.119 7   -590982.732 9
  22307497.938     2035483.336 6   1551641.108 9
  24177769.992     -380815.397 5   -203269.867 9
  20875955.453    -2325662.564 7  -1768948.776 9
  21904550.453      674394.989 7    462623.415 9
  22141403.711     -382644.108 6   -311260.600 9
  22365566.297    -1083413.745 6   -780822.064 9
 94  3 24  0 49 30.0000000  0  7  9  2  5  4  7 12 24
  21562818.414     -846864.681 7   -622890.688 9
  22319236.078     2097166.914 6   1599706.187 9
  24163144.742                      -58926.26316
  20868141.445    -2366726.133 7  -1800946.327 9
  21917541.266      742663.235 7    515819.431 9
  22127995.250     -453106.575 6   -366166.392 9
  22348930.133    -1170834.556 6   -848942.057 9
 94  3 24  0 50  0.0000000  0  7  9  2  5  4  7 12 24
  21555111.703     -887364.075 7   -654448.638 9
  22331021.289     2159098.053 6   1647964.188 9
  24148512.813                     -135817.324 5
  20860418.625    -2407308.694 7  -1832569.064 9
  21930547.461      811008.599 7    569075.542 9
  22114637.086     -523301.521 6   -420863.718 9
  22332348.477    -1257970.949 6   -916840.426 9
 94  3 24  0 50 30.0000000  0  7  9  2  5  4  7 12 24
  21547486.055     -927433.274 7   -685671.351 9
  22342855.250     2221282.781 6   1696419.770 9
  24133874.023                      -58979.71715
  20852787.984    -2447410.588 7  -1863817.278 9
  21943564.719      879415.376 7    622379.505 9
  22101329.758     -593229.649 6   -475353.133 9
  22315821.883    -1344821.653 6   -984516.188 9
 94  3 24  0 51  0.0000000  0  7  9  2  5  4  7 12 24
  21539946.023     -967057.903 7
  22354739.313     2283734.026 6   1745083.036 9
  24119227.063     -135949.558 5    -25992.19219
  20845251.602    -2487014.406 7  -1894677.316 9
  21956594.156      947885.216 7    675732.606 9
  22088074.383     -662888.600 6   -529632.798 9
  22299346.477    -1431400.902 6  -1051980.428 9
 94  3 24  0 51 30.0000000  0  7  9  2  5  4  7 12 24
  21532491.391    -1006234.145 7    -19293.64419
  22366670.789     2346435.643 6   1793941.396 9
  24104573.594     -212954.275 5    -85995.846 9
  20837809.461    -2526120.366 7  -1925149.462 9
  21969638.531     1016432.540 7    729146.082 9
  22074870.289     -732279.198 6   -583703.359 9
  22282921.164    -1517714.825 6  -1119237.926 9
 94  3 24  0 52  0.0000000  0  7  9  2  5  4  7 12 24
  21525121.148    -1044965.862 7    -49474.195 9
  22378648.688     2409380.948 6   1842989.647 9
  24089909.180     -290013.986 5   -146042.307 9
  20830462.289    -2564731.951 7  -1955236.367 9
  21982699.711     1085071.386 7    782630.885 9
  22061716.375     -801402.643 6   -637565.748 9
  22266546.930    -1603761.982 6  -1186287.575 9
 94  3 24  0 52 30.0000000  0  7  9  2  5  4  7 12 24
  21517840.219    -1083223.858 7    -79285.615 9
  22390675.398     2472580.899 6   1892236.334 9
  24075230.031     -367156.360 5   -206153.169 9
  20823209.414    -2602843.999 7  -1984934.030 9
  21995778.984     1153802.977 7    836187.947 9
  22048613.844     -870254.246 6   -691216.307 9
  22250220.000      -14280.00616
 94  3 24  0 53  0.0000000  0  7  9  2  5  4  7 12 24
  21510652.289    -1120998.871 7   -108720.673 9
  22402747.500     2536017.775 6   1941667.632 9
  24060535.250     -444377.474 5   -266325.415 9
  20816054.266    -2640443.814 7  -2014232.552 9
  22008873.023     1222615.884 7    889808.378 9
  22035563.953     -938831.445 6   -744653.046 9
  22233941.148      -99830.382 6     -8874.85419
 94  3 24  0 53 30.0000000  0  7  9  2  5  4  7 12 24
  21503555.117    -1158292.958 7   -137780.986 9
  22414863.781     2599689.568 6   1991281.976 9
  24045825.641     -521673.869 5   -326556.337 9
  20808997.359    -2677527.280 7  -2043128.723 9
  22021982.180     1291500.966 7    943485.048 9
  22022567.945    -1007127.456 6   -797870.684 9
  22217710.727     -185121.683 6    -75335.530 9
 94  3 24  0 54  0.0000000  0  7  9  2  5  4  7 12 24
  21496553.383    -1195090.253 7   -166454.194 9
  22427024.266     2663595.997 6   2041079.153 9
  24031100.758     -599053.360 5   -386851.975 9
  20802039.977    -2714090.017 7  -2071619.127 9
  22035102.500     1360450.664 7    997212.065 9
  22009625.867    -1075138.597 6   -850866.351 9
  22201529.898     -270149.619 6   -141590.983 9
 94  3 24  0 54 30.0000000  0  7  9  2  5  4  7 12 24
  21489647.508    -1231376.337 7   -194729.057 9
  22439228.883     2727733.372 6   2091056.289 9
  24016363.281     -676501.721 5   -447201.256 9
  20795182.875    -2750124.599 7  -2099697.996 9
  22048234.875     1429461.220 7   1050986.505 9
  21996738.641    -1142859.994 6   -903636.243 9
  22185400.203                      -47994.65816
 94  3 24  0 55  0.0000000  0  7  9  2  5  4  7 12 24
  21482837.781    -1267163.134 7   -222614.859 9
  22451476.422     2792093.029 6   2141206.626 9
  24001613.867     -754009.294 5   -507596.706 9
  20788426.172    -2785630.281 7  -2127364.727 9
  22061381.570     1498547.921 7   1104820.276 9
  21983906.742    -1210293.085 6   -956181.482 9
  22169323.102     -132481.767 6    -50451.74619
 94  3 24  0 55 30.0000000  0  7  9  2  5  4  7 12 24
  21476122.797    -1302452.540 7   -250113.083 9
  22463767.500     2856682.151 6   2191535.779 9
  23986853.203     -831575.239 5   -568037.654 9
  20781767.484    -2820622.401 7  -2154631.281 9
  22074546.555     1567733.733 7   1158731.280 9
  21971130.000    -1277435.784 6  -1008500.443 9
  22153300.070     -216683.049 6   -116063.073 9
 94  3 24  0 56  0.0000000  0  7  9  2  5  4  7 12 24
  21469500.039    -1337254.231 7   -277231.274 9
  22476102.164     2921501.302 6   2242044.161 9
  23972082.352     -909197.045 5   -628522.113 9
  20775206.313    -2855101.545 7  -2181498.115 9
  22087731.188     1637016.615 7   1212717.916 9
  21958407.938    -1344289.475 6  -1060594.203 9
  22137328.719     -300610.985 6   -181461.404 9
 94  3 24  0 56 30.0000000  0  7  9  2  5  4  7 12 24
  21462967.250    -1371585.351 7   -303982.783 9
  22488482.703     2986559.205 6   2292738.591 9
  23957301.578     -986871.721 6   -689047.784 9
  20768742.555    -2889067.539 7  -2207965.093 9
  22100932.328     1706385.857 7   1266771.860 9
  21945741.320    -1410852.914 6  -1112461.790 9
  22121408.672     -384271.772 6   -246651.569 9
 94  3 24  0 57  0.0000000  0  7  9  2  5  4  7 12 24
  21456523.711    -1405446.605 7   -330368.162 9
  22500909.609     3051861.268 6   2343623.265 9
  23942513.125    -1064584.429 6   -749603.083 9
  20762376.242    -2922522.767 7  -2234034.067 9
  22114147.906     1775837.440 7   1320889.964 9
  21933130.422    -1477124.378 6  -1164101.866 9
  22105541.664     -467653.191 6   -311624.047 9
 94  3 24  0 57 30.0000000  0  7  9  2  5  4  7 12 24
  21450169.547    -1438836.844 7   -356386.515 9
  22513383.313     3117414.071 6   2394703.339 9
  23927717.820    -1142334.113 5   -810187.183 9
  20756106.250    -2955473.112 7  -2259709.627 9
  22127375.766     1845348.518 7   1375054.428 9
  21920575.609    -1543100.303 6  -1215511.654 9
  22089729.586     -550744.897 6   -376370.766 9
 94  3 24  0 58  0.0000000  0  7  9  2  5  4  7 12 24
  21443906.984    -1471748.279 7   -382031.773 9
  22525903.953     3183210.063 6   2445972.899 9
  23912913.047    -1220132.631 6   -870809.359 9
  20749933.563    -2987909.518 7  -2284984.711 9
  22140609.156       53315.66917
  21908076.719    -1608782.383 6  -1266692.469 9
  22073972.031     -633553.384 6   -440896.798 9
 94  3 24  0 58 30.0000000  0  6  9  2  5  7 12 24
  21437738.898    -1504159.554 7   -407287.302 9
  22538470.039     3249244.847 6   2497428.526 9
  23898100.648    -1297971.839 5   -931463.231 9
  22153846.875      122884.428 6     37945.71819
  21895635.672    -1674160.882 6  -1317636.732 9
  22058273.328     -716052.091 6   -505181.440 9
 94  3 24  0 59  0.0000000  0  7  9  2  5  4  7 12 24
  21431666.414    -1536073.069 7   -432154.959 9
  22551078.227     3315501.580 6   2549057.100 9
  23883279.461    -1375856.897 5   -992152.801 9
  20737880.867      -24038.62417
  22167091.273      192483.985 6     92179.122 9
  21883252.359    -1739234.848 6  -1368343.694 9
  22042634.180     -798235.026 6   -569220.031 9
 94  3 24  0 59 30.0000000  0  7  9  2  5  4  7 12 24
  21425685.016    -1567505.639 7   -456647.866 9
  22563729.664     3381986.007 6   2600863.100 9
  23868445.297    -1453809.842 5  -1052895.296 9
  20732000.266      -54941.053 7    -23270.01619
  22180341.773      262112.565 7    146435.137 9
  21870927.969    -1803999.943 6  -1418809.978 9
  22027051.961     -880117.604 6   -633024.580 9
 94  3 24  1  0  0.0000000  0  7  9  2  5  4  7 12 24
  21419793.617    -1598463.477 7   -480770.844 9
  22576423.852     3448695.731 6   2652844.668 9
  23853599.484    -1531828.443 6  -1113688.966 9
  20726219.547                      -17150.46917
  22193597.937      331778.342 6    200720.141 9
  21858662.984    -1868452.983 6  -1469033.098 9
  22011527.063                      -46190.74016
 94  3 24  1  0 30.0000000  0  7  9  2  5  4  7 12 24
  21413991.781    -1628952.598 7   -504528.598 9
  22589163.680     3515639.465 6   2705008.568 9
  23838742.797    -1609899.014 5  -1174523.129 9
  20720538.055      -47007.722 7    -10805.82719
  22206866.008      401497.952 7    255047.088 9
  21846457.820    -1932591.398 6  -1519011.059 9
  21996059.750     -127475.300 6    -29527.54219
 94  3 24  1  1  0.0000000  0  7  9  2  5  4  7 12 24
  21408280.469    -1658964.944 7   -527914.837 9
  22601950.297     3582834.060 6   2757367.948 9
  23823875.086    -1688026.352 5  -1235401.497 9
  20714957.680      -76333.345 7    -33656.924 9
  22220148.906      471301.183 7    309439.199 9
  21834313.836    -1996408.316 6  -1568738.499 9
  21980646.719     -208471.043 6    -92641.030 9
 94  3 24  1  1 30.0000000  0  7  9  2  5  4  7 12 24
  21402665.484    -1688470.475 7   -550906.155 9
  22614788.047     3650299.247 6   2809938.193 9
  23808997.750    -1766207.500 5  -1296321.826 9
  20709479.125     -105122.593 7    -56090.069 9
  22233447.867      541189.271 7    363897.429 9
  21822232.070    -2059898.918 6  -1618211.672 9
  21965288.664     -289175.210 6   -155527.323 9
 94  3 24  1  2  0.0000000  0  7  9  2  5  4  7 12 24
  21397153.305    -1717437.085 7   -573477.531 9
  22627676.273     3718028.012 6   2862713.810 9
  23794109.500    -1844444.865 5  -1357285.947 9
  20704102.195     -133376.260 7    -78105.881 9
  22246764.711      611162.494 7    418422.000 9
  21810213.039    -2123059.792 6  -1667427.903 9
  21949989.938     -369570.159 6   -218172.640 9
 94  3 24  1  2 30.0000000  0  7  9  2  5  4  7 12 24
  21391746.453    -1745851.596 7   -595618.702 9
  22640616.867     3786026.744 6   2915699.784 9
  23779208.828    -1922748.260 5  -1418301.501 9
  20698826.648     -161099.876 7    -99708.661 9
  22260095.750      681222.190 7    473013.950 9
  21798257.148    -2185886.950 6  -1716384.108 9
  21934748.641     -449660.349 6   -280580.502 9
 94  3 24  1  3  0.0000000  0  7  9  2  5  4  7 12 24
  21386443.289    -1773721.976 7   -617335.877 9
  22653606.211     3854291.391 6   2968892.965 9
  23764293.742    -2001128.754 5  -1479377.165 9
  20693651.695     -188296.040 7   -120900.446 9
  22273443.180      751360.597 7    527667.236 9
  21786365.820    -2248376.289 6  -1765077.073 9
  21919568.938     -529434.654 6   -342742.205 9
 94  3 24  1  3 30.0000000  0  7  9  2  5  4  7 12 24
  21381241.086    -1801057.957 7   -638636.634 9
  22666646.570     3922815.004 6   3022287.951 9
  23749367.352    -2079567.547 5  -1540498.232 9
  20688579.266     -214952.617 7   -141671.776 9
  22286800.055      821556.693 7    582365.474 9
  21774539.953    -2310522.227 6  -1813502.461 9
  21904451.477     -608878.375 7   -404646.311 9
 94  3 24  1  4  0.0000000  0  7  9  2  5  4  7 12 24
  21376136.250    -1827883.724 7   -659539.828 9
  22679734.594     3991593.683 6   3075881.678 9
  23734434.141    -2158042.646 5  -1601647.603 9
  20683612.117     -241054.304 7   -162010.720 9
  22300170.117      891812.784 7    637110.460 9
  21762780.039    -2372319.257 6  -1861655.974 9
  21889398.508     -687978.604 6   -466282.776 9
 94  3 24  1  4 30.0000000  0  7  9  2  5  4  7 12 24
  21371126.797    -1854209.618 7   -680053.509 9
  22692869.656     4060623.286 6   3129670.949 9
  23719498.539    -2236527.465 5  -1662804.565 9
  20678750.195     -266603.117 7   -181918.853 9
  22313551.602      962134.246 7    691906.387 9
  21751087.070    -2433766.377 6  -1909536.824 9
  21874409.461     -766747.675 6   -527661.183 9
 94  3 24  1  5  0.0000000  0  7  9  2  5  4  7 12 24
  21366212.875    -1880032.078 7   -700174.902 9
  22706051.258     4129889.154 6   3183644.312 9
  23704567.734    -2314991.822 5
  20673996.289     -291585.502 7   -201385.614 9
  22326944.648     1032513.842 7    746747.615 9
  21739461.758    -2494858.402 6  -1957140.979 9
  21859484.469     -845178.861 7   -588776.303 9
 94  3 24  1  5 30.0000000  0  7  9  2  5  4  7 12 24
  21361397.039    -1905338.926 7   -719894.514 9
  22719276.422     4199390.018 6   3237800.788 9
  23689643.422    -2393414.962 5
  20669351.922     -315991.092 7   -220402.930 9
  22340348.383     1102948.579 7    801631.802 9
  21727904.664    -2555590.822 6  -2004464.920 9
  21844623.313     -923273.621 7   -649629.285 9
 94  3 24  1  6  0.0000000  0  7  9  2  5  4  7 12 24
  21356681.273    -1930120.897 7   -739205.134 9
  22732548.047     4269127.511 6   3292141.641 9
  23674725.445    -2471811.300 6    -14250.47819
  20664812.172     -339847.900 7   -238992.620 9
  22353762.305     1173442.096 7    856561.802 9
  21716416.484    -2615962.642 6  -2051507.877 9
  21829825.430    -1001036.389 7   -710223.578 9
 94  3 24  1  6 30.0000000  0  7  9  2  5  4  7 12 24
  21352068.109    -1954362.000 7   -758094.295 9
  22745864.250     4339104.972 6   3346669.498 9
  23659809.906    -2550195.762 6    -75329.291 9
  20660375.000     -363164.763 7   -257161.578 9
  22367188.227     1243995.510 7    911538.468 9
  21704998.203    -2675965.546 6  -2098263.364 9
  21815091.508    -1078465.435 7   -770557.830 9
 94  3 24  1  7  0.0000000  0  6  9  2  5  4  7 24
  21347557.164       -8629.533 7
  22759228.352       25779.300 6
  23644892.570                      -28741.219 6
  20656039.797                       -8291.928 7
  22380623.148       25888.967 7
  21800423.891      -28217.876 7
 94  3 24  1  7 30.0000000  0  7  9  2  5  4  7 12 24
  21343147.656      -31803.152 7     -6572.48919
  22772645.195       96283.026 6     20167.35219
  23629971.094     -107160.050 6         1.11219
  20651802.422      -30558.944 7     -9205.00519
  22394067.930       96542.914 7     14683.02119
  21682371.430      -45404.554 6    -46181.795 9
  21785825.344     -104934.250 7    -21884.82319
 94  3 24  1  8  0.0000000  0  7  9  2  5  4  7 12 24
  21338838.109      -54449.524 7    -24219.010 9
  22786113.750      167063.156 6     75320.604 9
  23615037.758     -185632.219 6    -61146.034 9
  20647662.805      -52313.455 7    -26156.543 9
  22407523.602      167254.382 7     69782.842 9
  21671162.203     -104308.129 6    -92080.661 9
  21771294.867     -181290.696 7    -81383.284 9
 94  3 24  1  8 30.0000000  0  7  9  2  5  4  7 12 24
  21334629.961      -76561.773 7    -41449.334 9
  22799638.469      238133.114 6    130699.760 9
  23600097.609     -264142.506 6   -122322.808 9
  20643629.531      -73507.657 7    -42671.485 9
  22420991.953      238026.234 7    124929.711 9
  21660024.922     -162836.062 6   -137686.817 9
  21756835.594     -257275.534 7   -140592.188 9
 94  3 24  1  9  0.0000000  0  7  9  2  5  4  7 12 24
  21330522.773      -98145.452 7    -58267.769 9
  22813214.422      309477.439 6    186292.671 9
  23585148.203     -342701.459 6   -183537.511 9
  20639702.758      -94141.574 7    -58749.835 9
  22434467.383      308842.320 7    180111.064 9
  21648957.109     -220998.298 6   -183008.018 9
  21742444.219     -332902.479 7   -199522.208 9
 94  3 24  1  9 30.0000000  0  7  9  2  5  4  7 12 24
  21326515.719     -119202.102 7    -74675.545 9
  22826842.164      381088.718 6    242093.619 9
  23570188.461     -421313.893 6   -244793.907 9
  20635884.234     -114208.771 7    -74386.592 9
  22447952.375      379706.263 7    235329.703 9
  21637959.648     -278789.432 6   -228040.044 9
  21728119.828     -408177.035 7   -258177.640 9
 94  3 24  1 10  0.0000000  0  7  9  2  5  4  7 12 24
  21322610.773     -139722.178 7    -90665.211 9
  22840519.023      452965.375 6    298101.358 9
  23555221.539     -499965.345 6   -306080.693 9
  20632176.602     -133692.967 7    -89569.062 9
  22461445.680      450612.645 7    290581.411 9
  21627034.672     -336201.066 6   -272776.355 9
  21713862.859     -483097.278 7   -316556.989 9
 94  3 24  1 10 30.0000000  0  7  9  2  5  4  7 12 24
  21318806.891     -159713.259 7   -106242.664 9
  22854244.305      525090.646 6    354302.819 9
  23540248.578     -578649.437 6   -367392.900 9
  20628575.695     -152615.526 7   -104313.894 9
  22474943.719      521547.601 7    345855.372 9
  21616180.500     -393239.544 6   -317221.905 9
  21699672.906     -557665.533 7   -374662.061 9
 94  3 24  1 11  0.0000000  0  7  9  2  5  4  7 12 24
  21315103.102     -179176.853 7   -121409.099 9
  22868015.508      597458.906 6    410693.602 9
  23525269.789     -657364.272 6   -428729.097 9
  20625076.305     -171004.780 7   -118643.161 9
  22488449.227      592518.745 7    401157.537 9
  21605398.414     -449898.953 6   -361372.068 9
  21685551.820     -631872.240 7   -432485.403 9
 94  3 24  1 11 30.0000000  0  7  9  2  5  4  7 12 24
  21311497.961     -198122.022 7   -136171.561 9
  22881833.172      670070.765 6    467274.231 9
  23510286.086     -736101.646 6   -490082.817 9
  20621676.203     -188871.573 7   -132565.318 9
  22501962.430      663532.522 7    456492.935 9
  21594688.711     -506179.593 6   -405227.090 9
  21671498.531     -705723.363 7   -490031.670 9
 94  3 24  1 12  0.0000000  0  7  9  2  5  4  7 12 24
  21307992.891     -216542.033 7   -150524.813 9
  22895693.742      742908.199 6    524030.610 9
  23495302.594     -814843.063 6   -551439.702 9
  20618376.406     -206213.700 7   -146078.645 9
  22515483.391      734588.115 6    511860.910 9
  21584051.297     -562078.825 6   -448784.910 9
  21657512.461     -779219.365 7   -547301.218 9
 94  3 24  1 12 30.0000000  0  7  9  2  5  4  7 12 24
  21304586.539     -234441.441 7   -164472.404 9
  22909594.781      815958.948 6    580953.236 9
  23480319.070     -893579.117 6   -612792.427 9
  20615176.492     -223029.167 7   -159181.579 9
  22529012.977      805684.470 7    567260.648 9
  21573486.852     -617595.244 6   -492044.432 9
  21643593.492     -852366.084 7   -604298.592 9
 94  3 24  1 13  0.0000000  0  7  9  2  5  4  7 12 24
  21301279.477     -251820.624 7   -178014.621 9
  22923536.227      889221.545 6    638040.919 9
  23465335.836     -972318.526 6   -674147.748 9
  20612075.625     -239322.890 7   -171877.973 9
  22542549.203      876815.162 7    622687.135 9
  21562994.945     -672731.341 6   -535007.601 9
  21629738.797     -925170.205 7   -661029.016 9
 94  3 24  1 13 30.0000000  0  7  9  2  5  4  7 12 24
  21298074.336     -268664.629 7   -191139.818 9
  22937520.008      962706.972 6    695302.249 9
  23450353.797    -1051048.757 6   -735495.940 9
  20609078.563     -255073.296 7   -184150.996 9
  22556092.414      947986.649 6    678145.420 9
  21552576.820     -727478.121 6   -577667.409 9
  21615951.773     -997621.658 7   -717484.627 9
 94  3 24  1 14  0.0000000  0  7  9  2  5  4  7 12 24
  21294969.844     -284977.864 7   -203851.429 9
  22951547.492     1036418.681 6    752739.904 9
  23435371.734    -1129778.010 6   -796843.353 9
  20606186.695     -270269.818 7   -195992.424 9
  22569641.797     1019189.689 6    733628.285 9
  21542232.992     -781836.077 6   -620024.243 9
  21602235.648    -1069699.776 7   -773649.342 9
 94  3 24  1 14 30.0000000  0  7  9  2  5  4  7 12 24
  21291966.539     -300760.865 7   -216149.874 9
  22965621.164     1110378.958 6    810371.246 9
  23420386.164    -1208525.314 6   -858204.830 9
  20603400.023     -284912.682 7   -207402.422 9
  22583197.414     1090422.082 6    789134.020 9
  21531962.563     -835806.888 6   -662079.400 9
  21588591.367    -1141404.112 7   -829522.786 9
 94  3 24  1 15  0.0000000  0  7  9  2  5  4  7 12 24
  21289064.039     -316014.548 7   -228035.865 9
  22979744.266     1184598.024 6    868204.244 9
  23405394.781    -1287307.321 6   -919593.378 9
  20600720.516     -298994.463 7   -218375.217 9
  22596758.148     1161685.573 6    844663.998 9
  21521766.383     -889388.407 6   -703831.215 9
  21575019.195    -1212725.362 7   -885097.730 9
 94  3 24  1 15 30.0000000  0  7  9  2  5  4  7 12 24
  21286262.867     -330732.926 6   -239504.780 9
  22993918.555     1259083.702 5    926244.940 9
  23390396.141    -1366122.059 5   -981007.443 9
  20598151.914     -312491.375 6   -228892.322 9
  22610327.164     1232993.835 6    900228.802 9
  21511646.781     -942566.754 6   -745269.000 9
  21561520.836    -1283657.790 6   -940369.745 9
 94  3 24  1 16  0.0000000  0  7  9  2  5  4  7 12 24
  21283564.898     -344911.919 7   -250553.299 9
  23008143.070     1333832.922 6    984491.107 9
  23375392.844    -1444970.238 6  -1042447.501 9
  20595695.000     -325403.893 7   -238953.942 9
  22623906.656     1304351.671 6    955832.336 9
  21501604.563     -995338.683 6   -786389.843 9
  21548096.891    -1354200.241 7   -995337.774 9
 94  3 24  1 16 30.0000000  0  7  9  2  5  4  7 12 24
  21280971.063     -358540.831 7   -261173.243 9
  23022414.844     1408829.744 6   1042930.146 9
  23360381.625    -1523851.294 6  -1103913.226 9
  20593347.789     -337738.512 7   -248565.319 9
  22637493.891     1375757.936 6   1011473.556 9
  21491639.539    -1047706.279 6   -827195.743 9
  21534744.055    -1424370.216 7  -1050015.628 9
 94  3 24  1 17  0.0000000  0  7  9  2  5  4  7 12 24
  21278483.148     -371614.762 7   -271360.723 9
  23036731.008     1484064.072 5   1101554.259 9
  23345367.383    -1602753.887 6  -1165395.723 9
  20591109.344     -349500.949 7   -257730.833 9
  22651091.992     1447214.696 6   1067154.124 9
  21481752.156    -1099663.492 6   -867681.869 9
  21521462.977    -1494162.756 7  -1104399.375 9
 94  3 24  1 17 30.0000000  0  7  9  2  5  4  7 12 24
  21276102.477     -384127.211 7   -281110.686 9
  23051090.797     1559528.833 5   1160357.937 9
  23330353.914    -1681649.781 6  -1226873.015 9
  20588978.031     -360701.867 7   -266458.802 9
  22664699.828     1518722.159 6   1122874.200 9
  21471943.891    -1151206.578 6   -907845.299 9
  21508255.688    -1563567.038 7  -1158480.582 9
 94  3 24  1 18  0.0000000  0  7  9  2  5  4  7 12 24
  21273827.430     -396081.489 7   -290425.709 9
  23065495.117     1635221.730 5   1219339.386 9
  23315343.633    -1760530.851 6  -1288338.736 9
  20586950.883     -371353.516 7   -274758.765 9
  22678313.539     1590264.444 6   1178621.410 9
  21462213.797    -1202337.211 6   -947687.335 9
  21495124.789    -1632570.897 7  -1212249.774 9
